[[{"header":{"parameterUnit":"m.s-1","parameterCategory":1,"la1":31.0,"la2":29.5877,"lo1":-88.7671,"lo2":-86.6584,"dx":0.0162,"dy":0.0185,"nx":115,"ny":88,"refTime":"2023-02-12T06:00:00:Z","depth":0,"parameterNumber":2,"parameterNumberName":"U-component_of_WINDS"},"data":[0.0,0.0,0.0,0.0,0.0,0.0,0.0,0.0,0.0,0.0,0.0,0.0,0.0,0.0,0.0,0.0,0.0,0.0,0.0,0.0,0.0,0.0,0.0,0.0,0.0,0.0,0.0,0.0,0.0,0.0,0.0,0.0,0.0,0.0,0.0,0.0,0.0,0.0,0.0,0.0,0.0,0.0,0.0,0.0,0.0,0.0,0.0,0.0,0.0,0.0,0.0,0.0,0.0,0.0,0.0,0.0,0.0,0.0,0.0,0.0,0.0,0.0,0.0,0.0,0.0,0.0,0.0,0.0,0.0,0.0,0.0,0.0,0.0,0.0,0.0,0.0,0.0,0.0,0.0,0.0,0.0,0.0,0.0,0.0,0.0,0.0,0.0,0.0,0.0,0.0,0.0,0.0,0.0,0.0,0.0,0.0,0.0,0.0,0.0,0.0,0.0,0.0,0.0,0.0,0.0,0.0,0.0,0.0,0.0,0.0,0.0,0.0,0.0,0.0,0.0,0.0,0.0,0.0,0.0,0.0,0.0,0.0,0.0,0.0,0.0,0.0,0.0,0.0,0.0,0.0,0.0,0.0,0.0,0.0,0.0,0.0,0.0,0.0,0.0,0.0,0.0,0.0,0.0,0.0,0.0,0.0,0.0,0.0,0.0,0.0,0.0,0.0,0.0,0.0,0.0,0.0,0.0,0.0,0.0,0.0,0.0,0.0,0.0,0.0,0.0,0.0,0.0,0.0,0.0,0.0,0.0,0.0,0.0,0.0,0.0,0.0,0.0,0.0,0.0,0.0,0.0,0.0,0.0,0.0,0.0,0.0,0.0,0.0,0.0,0.0,0.0,0.0,0.0,0.0,0.0,0.0,0.0,0.0,0.0,0.0,0.0,0.0,0.0,0.0,0.0,0.0,0.0,0.0,0.0,0.0,0.0,0.0,0.0,0.0,0.0,0.0,0.0,0.0,0.0,0.0,0.0,0.0,0.0,0.0,0.0,0.0,0.0,0.0,0.0,0.0,0.0,0.0,0.0,0.0,0.0,0.0,0.0,0.0,0.0,0.0,0.0,0.0,0.0,0.0,0.0,0.0,0.0,0.0,0.0,0.0,0.0,0.0,0.0,0.0,0.0,0.0,0.0,0.0,0.0,0.0,0.0,0.0,0.0,0.0,0.0,0.0,0.0,0.0,0.0,0.0,0.0,0.0,0.0,0.0,0.0,0.0,0.0,0.0,0.0,0.0,0.0,0.0,0.0,0.0,0.0,0.0,0.0,0.0,0.0,0.0,0.0,0.0,0.0,0.0,0.0,0.0,0.0,0.0,0.0,0.0,0.0,0.0,0.0,0.0,0.0,0.0,0.0,0.0,0.0,0.0,0.0,0.0,0.0,0.0,0.0,0.0,0.0,0.0,0.0,0.0,0.0,0.0,0.0,0.0,0.0,0.0,0.0,0.0,0.0,0.0,0.0,0.0,0.0,0.0,0.0,0.0,0.0,0.0,0.0,0.0,0.0,0.0,0.0,0.0,0.0,0.0,0.0,0.0,0.0,0.0,0.0,0.0,0.0,0.0,0.0,0.0,0.0,0.0,0.0,0.0,0.0,0.0,0.0,0.0,0.0,0.0,0.0,0.0,0.0,0.0,0.0,0.0,0.0,0.0,0.0,0.0,0.0,0.0,0.0,0.0,0.0,0.0,0.0,0.0,0.0,0.0,0.0,0.0,0.0,0.0,0.0,0.0,0.0,0.0,0.0,0.0,0.0,0.0,0.0,0.0,0.0,0.0,0.0,0.0,0.0,0.0,0.0,0.0,0.0,0.0,0.0,0.0,0.0,0.0,0.0,0.0,0.0,0.0,0.0,0.0,0.0,0.0,0.0,0.0,0.0,0.0,0.0,0.0,0.0,0.0,0.0,0.0,0.0,0.0,0.0,0.0,0.0,0.0,0.0,0.0,0.0,0.0,0.0,0.0,0.0,0.0,0.0,0.0,0.0,0.0,0.0,0.0,0.0,0.0,0.0,0.0,0.0,0.0,0.0,0.0,0.0,0.0,0.0,0.0,0.0,0.0,0.0,0.0,0.0,0.0,0.0,0.0,0.0,0.0,0.0,0.0,0.0,0.0,0.0,0.0,0.0,0.0,0.0,0.0,0.0,0.0,0.0,0.0,0.0,0.0,0.0,0.0,0.0,0.0,0.0,0.0,0.0,0.0,0.0,0.0,0.0,0.0,0.0,0.0,0.0,0.0,0.0,0.0,0.0,0.0,0.0,0.0,0.0,0.0,0.0,0.0,0.0,0.0,0.0,0.0,0.0,0.0,0.0,0.0,0.0,0.0,0.0,0.0,0.0,0.0,0.0,0.0,0.0,0.0,0.0,0.0,0.0,0.0,0.0,0.0,0.0,0.0,0.0,0.0,0.0,0.0,0.0,0.0,0.0,0.0,0.0,0.0,0.0,0.0,0.0,0.0,0.0,0.0,0.0,0.0,0.0,0.0,0.0,0.0,0.0,0.0,0.0,0.0,0.0,0.0,0.0,0.0,0.0,0.0,0.0,0.0,0.0,0.0,0.0,0.0,0.0,0.0,0.0,0.0,0.0,0.0,0.0,0.0,0.0,0.0,0.0,0.0,0.0,0.0,0.0,0.0,0.0,0.0,0.0,0.0,0.0,0.0,0.0,0.0,0.0,0.0,0.0,0.0,0.0,0.0,0.0,0.0,0.0,0.0,0.0,0.0,0.0,0.0,0.0,0.0,0.0,0.0,0.0,0.0,0.0,0.0,0.0,0.0,0.0,0.0,0.0,0.0,0.0,0.0,0.0,0.0,0.0,0.0,0.0,0.0,0.0,0.0,0.0,0.0,0.0,0.0,0.0,0.0,0.0,0.0,0.0,0.0,0.0,0.0,0.0,0.0,0.0,0.0,0.0,0.0,0.0,0.0,0.0,0.0,0.0,0.0,0.0,0.0,0.0,0.0,0.0,0.0,0.0,0.0,0.0,0.0,0.0,0.0,0.0,0.0,0.0,0.0,0.0,0.0,0.0,0.0,0.0,0.0,0.0,0.0,0.0,0.0,0.0,0.0,0.0,0.0,0.0,0.0,0.0,0.0,0.0,0.0,0.0,0.0,0.0,0.0,0.0,0.0,0.0,0.0,0.0,0.0,0.0,0.0,0.0,0.0,0.0,0.0,0.0,0.0,0.0,0.0,0.0,0.0,0.0,0.0,0.0,0.0,0.0,0.0,0.0,0.0,0.0,0.0,0.0,0.0,0.0,0.0,0.0,0.0,0.0,0.0,0.0,0.0,0.0,0.0,0.0,0.0,0.0,0.0,0.0,0.0,0.0,0.0,0.0,0.0,0.0,0.0,0.0,0.0,0.0,0.0,0.0,0.0,0.0,0.0,0.0,0.0,0.0,0.0,0.0,0.0,0.0,0.0,0.0,0.0,0.0,0.0,0.0,0.0,0.0,0.0,0.0,0.0,0.0,0.0,0.0,0.0,0.0,0.0,0.0,0.0,0.0,0.0,0.0,0.0,0.0,0.0,0.0,0.0,0.0,0.0,0.0,0.0,0.0,0.0,0.0,0.0,0.0,0.0,0.0,0.0,0.0,0.0,0.0,0.0,0.0,0.0,0.0,0.0,0.0,0.0,0.0,0.0,0.0,0.0,0.0,0.0,0.0,0.0,0.0,0.0,0.0,0.0,0.0,0.0,0.0,0.0,0.0,0.0,0.0,0.0,0.0,0.0,0.0,0.0,0.0,0.0,0.0,0.0,0.0,0.0,0.0,0.0,0.0,0.0,0.0,0.0,0.0,0.0,0.0,0.0,0.0,0.0,0.0,0.0,0.0,0.0,0.0,0.0,0.0,0.0,0.0,0.0,0.0,0.0,0.0,0.0,0.0,0.0,0.0,0.0,0.0,0.0,0.0,0.0,0.0,0.0,0.0,0.0,0.0,0.0,0.0,0.0,0.0,0.0,0.0,0.0,0.0,0.0,0.0,0.0,0.0,0.0,0.0,0.0,0.0,0.0,0.0,0.0,0.0,0.0,0.0,0.0,0.0,0.0,0.0,0.0,0.0,0.0,0.0,0.0,0.0,0.0,0.0,0.0,0.0,0.0,0.0,0.0,0.0,0.0,0.0,0.0,0.0,0.0,0.0,0.0,0.0,0.0,0.0,0.0,0.0,0.0,0.0,0.0,0.0,0.0,0.0,0.0,0.0,0.0,0.0,0.0,0.0,0.0,0.0,0.0,0.0,0.0,0.0,0.0,0.0,0.0,0.0,0.0,-6.2805,0.0,0.0,0.0,0.0,0.0,0.0,0.0,0.0,0.0,0.0,0.0,0.0,0.0,0.0,0.0,0.0,0.0,0.0,0.0,0.0,0.0,0.0,0.0,0.0,0.0,0.0,0.0,0.0,0.0,0.0,0.0,0.0,0.0,0.0,0.0,0.0,0.0,0.0,0.0,0.0,0.0,0.0,0.0,0.0,0.0,0.0,0.0,0.0,0.0,0.0,0.0,0.0,0.0,0.0,0.0,0.0,0.0,0.0,0.0,0.0,0.0,0.0,0.0,0.0,0.0,0.0,0.0,0.0,0.0,0.0,0.0,0.0,0.0,0.0,0.0,0.0,0.0,0.0,0.0,0.0,0.0,0.0,0.0,0.0,0.0,0.0,0.0,0.0,0.0,0.0,0.0,0.0,0.0,0.0,0.0,0.0,0.0,0.0,0.0,0.0,0.0,0.0,0.0,0.0,0.0,0.0,0.0,0.0,0.0,0.0,-6.3002,-6.3002,-6.288,-6.2805,-6.2805,0.0,0.0,0.0,0.0,0.0,0.0,0.0,0.0,0.0,0.0,0.0,0.0,0.0,0.0,0.0,0.0,0.0,0.0,0.0,0.0,0.0,0.0,0.0,0.0,0.0,0.0,0.0,0.0,0.0,0.0,0.0,0.0,0.0,0.0,0.0,0.0,0.0,0.0,0.0,0.0,0.0,0.0,0.0,0.0,0.0,0.0,0.0,0.0,0.0,0.0,0.0,0.0,0.0,0.0,0.0,0.0,0.0,0.0,0.0,0.0,0.0,0.0,0.0,0.0,0.0,0.0,0.0,0.0,0.0,0.0,0.0,0.0,0.0,0.0,0.0,0.0,0.0,0.0,0.0,0.0,0.0,0.0,0.0,0.0,0.0,0.0,0.0,0.0,0.0,0.0,0.0,0.0,0.0,0.0,0.0,0.0,0.0,0.0,0.0,0.0,0.0,0.0,0.0,0.0,0.0,0.0,0.0,0.0,0.0,0.0,0.0,0.0,-6.2855,-6.2805,-6.2805,0.0,0.0,0.0,0.0,0.0,0.0,0.0,0.0,0.0,0.0,0.0,0.0,0.0,0.0,0.0,0.0,0.0,0.0,0.0,0.0,0.0,0.0,0.0,0.0,0.0,0.0,0.0,0.0,0.0,0.0,0.0,0.0,0.0,0.0,0.0,0.0,0.0,0.0,0.0,0.0,0.0,0.0,0.0,0.0,0.0,0.0,0.0,0.0,0.0,0.0,0.0,0.0,0.0,0.0,0.0,0.0,0.0,0.0,0.0,0.0,0.0,0.0,0.0,0.0,0.0,0.0,0.0,0.0,0.0,0.0,0.0,0.0,0.0,0.0,0.0,0.0,0.0,0.0,0.0,0.0,0.0,0.0,0.0,0.0,0.0,0.0,0.0,0.0,0.0,0.0,0.0,0.0,0.0,0.0,0.0,0.0,0.0,0.0,0.0,0.0,0.0,0.0,0.0,0.0,0.0,0.0,0.0,0.0,0.0,0.0,-6.2805,-6.2805,-6.2805,0.0,-6.2805,0.0,0.0,0.0,0.0,0.0,0.0,0.0,0.0,0.0,0.0,0.0,0.0,0.0,0.0,0.0,0.0,0.0,0.0,0.0,0.0,0.0,0.0,0.0,0.0,0.0,0.0,0.0,0.0,0.0,0.0,0.0,0.0,0.0,0.0,0.0,0.0,0.0,0.0,0.0,0.0,0.0,0.0,0.0,0.0,0.0,0.0,0.0,0.0,0.0,0.0,0.0,0.0,0.0,0.0,0.0,0.0,0.0,0.0,0.0,0.0,0.0,0.0,0.0,0.0,0.0,0.0,0.0,0.0,0.0,0.0,0.0,0.0,0.0,0.0,0.0,0.0,0.0,0.0,0.0,0.0,0.0,0.0,0.0,0.0,0.0,0.0,0.0,0.0,0.0,0.0,0.0,0.0,0.0,0.0,0.0,0.0,0.0,0.0,0.0,0.0,0.0,0.0,0.0,0.0,0.0,0.0,0.0,0.0,0.0,0.0,-6.283,-6.2929,-6.283,-6.2805,0.0,0.0,0.0,0.0,0.0,0.0,0.0,0.0,0.0,0.0,0.0,0.0,0.0,0.0,0.0,0.0,0.0,0.0,0.0,0.0,0.0,0.0,0.0,0.0,0.0,0.0,0.0,0.0,0.0,0.0,0.0,0.0,0.0,0.0,0.0,0.0,0.0,0.0,0.0,0.0,0.0,0.0,0.0,0.0,0.0,0.0,0.0,0.0,0.0,0.0,0.0,0.0,0.0,0.0,0.0,0.0,0.0,0.0,0.0,0.0,0.0,0.0,0.0,0.0,0.0,0.0,0.0,0.0,0.0,0.0,0.0,0.0,0.0,0.0,0.0,0.0,0.0,0.0,0.0,0.0,0.0,0.0,0.0,0.0,0.0,0.0,0.0,0.0,0.0,0.0,0.0,0.0,0.0,0.0,0.0,0.0,0.0,0.0,0.0,0.0,0.0,0.0,0.0,0.0,0.0,0.0,0.0,0.0,0.0,0.0,-6.288,-6.2855,-6.2929,-6.2855,-6.2805,-6.2805,0.0,0.0,0.0,0.0,0.0,0.0,0.0,0.0,0.0,0.0,0.0,0.0,0.0,0.0,0.0,0.0,0.0,0.0,0.0,0.0,0.0,0.0,0.0,0.0,0.0,0.0,0.0,0.0,0.0,0.0,0.0,0.0,0.0,0.0,0.0,0.0,0.0,0.0,0.0,0.0,0.0,0.0,0.0,0.0,0.0,0.0,0.0,0.0,0.0,0.0,0.0,0.0,0.0,0.0,0.0,0.0,0.0,0.0,0.0,0.0,0.0,0.0,0.0,0.0,0.0,0.0,0.0,0.0,0.0,0.0,0.0,0.0,0.0,0.0,0.0,0.0,0.0,0.0,0.0,0.0,0.0,0.0,0.0,0.0,0.0,0.0,0.0,0.0,0.0,0.0,0.0,0.0,0.0,0.0,0.0,0.0,0.0,0.0,0.0,0.0,0.0,0.0,0.0,0.0,0.0,0.0,0.0,0.0,-6.3002,-6.2855,-6.2805,-6.2805,-6.2805,-6.2805,0.0,0.0,0.0,0.0,0.0,0.0,0.0,0.0,0.0,0.0,0.0,0.0,0.0,0.0,0.0,0.0,0.0,0.0,0.0,0.0,0.0,0.0,0.0,0.0,0.0,0.0,0.0,0.0,0.0,0.0,0.0,0.0,0.0,0.0,0.0,0.0,0.0,0.0,0.0,0.0,0.0,0.0,0.0,0.0,0.0,0.0,0.0,0.0,0.0,0.0,0.0,0.0,0.0,0.0,0.0,0.0,0.0,0.0,0.0,0.0,0.0,0.0,0.0,0.0,0.0,0.0,0.0,0.0,0.0,0.0,0.0,0.0,0.0,0.0,0.0,0.0,0.0,0.0,0.0,0.0,0.0,0.0,0.0,0.0,0.0,0.0,0.0,0.0,0.0,0.0,0.0,0.0,0.0,0.0,0.0,0.0,0.0,0.0,0.0,0.0,0.0,0.0,0.0,0.0,0.0,0.0,0.0,0.0,0.0,-6.288,-6.283,-6.2805,-6.2805,-6.2805,-6.2805,0.0,0.0,0.0,0.0,0.0,0.0,0.0,0.0,0.0,0.0,0.0,0.0,0.0,0.0,0.0,0.0,0.0,0.0,0.0,0.0,0.0,0.0,0.0,0.0,0.0,0.0,0.0,0.0,0.0,0.0,0.0,0.0,0.0,0.0,0.0,0.0,0.0,0.0,0.0,0.0,0.0,0.0,0.0,0.0,0.0,0.0,0.0,0.0,0.0,0.0,0.0,0.0,0.0,0.0,0.0,0.0,0.0,0.0,0.0,0.0,0.0,0.0,0.0,0.0,0.0,0.0,0.0,0.0,0.0,0.0,0.0,0.0,0.0,0.0,0.0,0.0,0.0,0.0,0.0,0.0,0.0,0.0,0.0,0.0,0.0,0.0,0.0,0.0,0.0,0.0,0.0,0.0,0.0,0.0,0.0,0.0,0.0,0.0,0.0,0.0,0.0,0.0,0.0,0.0,0.0,0.0,0.0,0.0,0.0,-6.2805,0.0,-6.2805,-6.2805,-6.2805,-6.2805,0.0,0.0,0.0,0.0,0.0,0.0,0.0,0.0,0.0,0.0,0.0,0.0,0.0,0.0,0.0,0.0,0.0,0.0,0.0,0.0,0.0,0.0,0.0,0.0,0.0,0.0,0.0,0.0,0.0,0.0,0.0,0.0,0.0,0.0,0.0,0.0,0.0,0.0,0.0,0.0,0.0,0.0,0.0,0.0,0.0,0.0,0.0,0.0,0.0,0.0,0.0,0.0,0.0,0.0,0.0,0.0,0.0,0.0,0.0,0.0,0.0,0.0,0.0,0.0,0.0,0.0,0.0,0.0,0.0,0.0,0.0,0.0,0.0,0.0,0.0,0.0,0.0,0.0,0.0,0.0,0.0,0.0,0.0,0.0,0.0,0.0,0.0,0.0,0.0,0.0,0.0,0.0,0.0,0.0,0.0,0.0,0.0,0.0,0.0,0.0,0.0,0.0,0.0,0.0,0.0,0.0,0.0,0.0,-6.2805,-6.2805,-6.2805,-6.2805,-6.2805,-6.2805,-6.2805,0.0,0.0,0.0,0.0,0.0,0.0,0.0,0.0,0.0,0.0,0.0,0.0,0.0,0.0,0.0,0.0,0.0,0.0,0.0,0.0,0.0,0.0,0.0,0.0,0.0,0.0,0.0,0.0,0.0,0.0,0.0,0.0,0.0,0.0,0.0,0.0,0.0,0.0,0.0,0.0,0.0,0.0,0.0,0.0,0.0,0.0,0.0,0.0,0.0,0.0,0.0,0.0,0.0,0.0,0.0,0.0,0.0,0.0,0.0,0.0,0.0,0.0,0.0,0.0,0.0,0.0,0.0,0.0,0.0,0.0,0.0,0.0,0.0,0.0,0.0,0.0,0.0,0.0,0.0,0.0,0.0,0.0,0.0,0.0,0.0,0.0,0.0,0.0,0.0,0.0,0.0,0.0,0.0,0.0,0.0,0.0,0.0,0.0,0.0,0.0,0.0,0.0,0.0,0.0,0.0,0.0,0.0,0.0,0.0,-6.2805,-6.2805,-6.2805,-6.2805,-6.2805,-6.2805,0.0,0.0,0.0,0.0,0.0,0.0,0.0,0.0,0.0,0.0,0.0,0.0,0.0,0.0,0.0,0.0,0.0,0.0,0.0,0.0,0.0,0.0,0.0,0.0,0.0,0.0,0.0,0.0,0.0,0.0,0.0,0.0,0.0,0.0,0.0,0.0,0.0,0.0,0.0,0.0,0.0,0.0,0.0,0.0,0.0,0.0,0.0,0.0,0.0,0.0,0.0,0.0,0.0,0.0,0.0,0.0,0.0,0.0,0.0,0.0,0.0,0.0,0.0,0.0,0.0,0.0,0.0,0.0,0.0,0.0,0.0,0.0,0.0,0.0,0.0,0.0,0.0,0.0,0.0,0.0,0.0,0.0,0.0,0.0,0.0,0.0,0.0,0.0,0.0,0.0,0.0,0.0,0.0,0.0,0.0,0.0,0.0,0.0,0.0,0.0,0.0,0.0,0.0,0.0,0.0,0.0,0.0,0.0,0.0,-6.2805,-6.2805,-6.2805,-6.2805,-6.2805,-6.2805,-6.2805,0.0,0.0,0.0,0.0,0.0,0.0,0.0,0.0,0.0,0.0,0.0,0.0,0.0,0.0,0.0,0.0,0.0,0.0,0.0,0.0,0.0,0.0,0.0,0.0,0.0,0.0,0.0,0.0,0.0,0.0,0.0,0.0,0.0,0.0,0.0,0.0,0.0,0.0,0.0,0.0,0.0,0.0,0.0,0.0,0.0,0.0,0.0,0.0,0.0,0.0,0.0,0.0,0.0,0.0,0.0,0.0,0.0,0.0,0.0,0.0,0.0,0.0,0.0,0.0,0.0,0.0,0.0,0.0,0.0,0.0,0.0,0.0,0.0,0.0,0.0,0.0,0.0,0.0,0.0,0.0,0.0,0.0,0.0,0.0,0.0,0.0,0.0,0.0,0.0,0.0,0.0,0.0,0.0,0.0,0.0,0.0,0.0,0.0,0.0,0.0,0.0,0.0,0.0,0.0,0.0,0.0,0.0,0.0,-6.2805,-6.2805,-6.2805,-6.2805,-6.2805,-6.2805,0.0,0.0,0.0,0.0,0.0,0.0,0.0,0.0,0.0,0.0,0.0,0.0,0.0,0.0,0.0,0.0,0.0,0.0,0.0,0.0,0.0,0.0,0.0,0.0,0.0,0.0,0.0,0.0,0.0,0.0,0.0,0.0,0.0,0.0,0.0,0.0,0.0,0.0,0.0,0.0,0.0,0.0,0.0,0.0,0.0,0.0,0.0,0.0,0.0,0.0,0.0,0.0,0.0,0.0,0.0,0.0,0.0,0.0,0.0,0.0,0.0,0.0,0.0,0.0,0.0,0.0,0.0,0.0,0.0,0.0,0.0,0.0,0.0,0.0,0.0,0.0,0.0,0.0,0.0,0.0,0.0,0.0,0.0,0.0,0.0,0.0,0.0,0.0,0.0,0.0,0.0,0.0,0.0,0.0,0.0,0.0,0.0,0.0,0.0,0.0,0.0,0.0,0.0,0.0,0.0,0.0,0.0,0.0,0.0,-6.2805,-6.2805,-6.2805,-6.2805,-6.2805,-6.2805,0.0,0.0,0.0,0.0,0.0,0.0,0.0,0.0,0.0,0.0,0.0,0.0,0.0,0.0,0.0,0.0,0.0,0.0,0.0,0.0,0.0,0.0,0.0,0.0,0.0,0.0,0.0,0.0,0.0,0.0,0.0,0.0,0.0,0.0,0.0,0.0,0.0,0.0,0.0,0.0,0.0,0.0,0.0,0.0,0.0,0.0,0.0,0.0,0.0,0.0,0.0,0.0,0.0,0.0,0.0,0.0,0.0,0.0,0.0,0.0,0.0,0.0,0.0,0.0,0.0,0.0,0.0,0.0,0.0,0.0,0.0,0.0,0.0,0.0,0.0,0.0,0.0,0.0,0.0,0.0,0.0,0.0,0.0,0.0,0.0,0.0,0.0,0.0,0.0,0.0,0.0,0.0,0.0,0.0,0.0,0.0,0.0,0.0,0.0,0.0,0.0,0.0,0.0,0.0,0.0,0.0,0.0,0.0,-6.2679,-6.2412,-6.2412,-6.2412,-6.2412,-6.2412,-6.2541,0.0,0.0,0.0,0.0,0.0,0.0,0.0,0.0,0.0,0.0,0.0,0.0,0.0,0.0,0.0,0.0,0.0,0.0,0.0,0.0,0.0,0.0,0.0,0.0,0.0,0.0,0.0,0.0,0.0,0.0,0.0,0.0,0.0,0.0,0.0,0.0,0.0,0.0,0.0,0.0,0.0,0.0,0.0,0.0,0.0,0.0,0.0,0.0,0.0,0.0,0.0,0.0,0.0,0.0,0.0,0.0,0.0,0.0,0.0,0.0,0.0,0.0,0.0,0.0,0.0,0.0,0.0,0.0,0.0,0.0,0.0,0.0,0.0,0.0,0.0,0.0,0.0,0.0,0.0,0.0,0.0,0.0,0.0,0.0,0.0,0.0,0.0,0.0,0.0,0.0,0.0,0.0,0.0,0.0,0.0,0.0,0.0,0.0,0.0,0.0,0.0,0.0,0.0,0.0,0.0,0.0,0.0,0.0,-6.2541,-6.2005,-6.1978,-6.1951,-6.1897,-6.1897,-6.2202,0.0,0.0,0.0,0.0,0.0,0.0,0.0,0.0,0.0,0.0,0.0,0.0,0.0,0.0,0.0,0.0,0.0,0.0,0.0,0.0,0.0,0.0,0.0,0.0,0.0,0.0,0.0,0.0,0.0,0.0,0.0,0.0,0.0,0.0,0.0,0.0,0.0,0.0,0.0,0.0,0.0,0.0,0.0,0.0,0.0,0.0,0.0,0.0,0.0,0.0,0.0,0.0,0.0,0.0,0.0,0.0,0.0,0.0,0.0,0.0,0.0,0.0,0.0,0.0,0.0,0.0,0.0,0.0,0.0,0.0,0.0,0.0,0.0,0.0,0.0,0.0,0.0,0.0,0.0,0.0,0.0,0.0,0.0,0.0,0.0,0.0,0.0,0.0,0.0,0.0,0.0,0.0,0.0,0.0,0.0,0.0,0.0,0.0,0.0,0.0,0.0,0.0,0.0,0.0,0.0,0.0,0.0,0.0,-6.273,-6.2592,-6.2629,-6.2386,-6.1924,-6.1897,-6.2202,0.0,0.0,0.0,0.0,0.0,0.0,0.0,0.0,0.0,0.0,0.0,0.0,0.0,0.0,0.0,0.0,0.0,0.0,0.0,0.0,0.0,0.0,0.0,0.0,0.0,0.0,0.0,0.0,0.0,0.0,0.0,0.0,0.0,0.0,0.0,0.0,0.0,0.0,0.0,0.0,0.0,0.0,0.0,0.0,0.0,0.0,0.0,0.0,-5.9873,0.0,0.0,0.0,0.0,0.0,0.0,0.0,0.0,0.0,0.0,0.0,0.0,0.0,0.0,0.0,0.0,0.0,0.0,0.0,0.0,0.0,0.0,0.0,0.0,0.0,0.0,0.0,0.0,0.0,0.0,0.0,0.0,0.0,0.0,0.0,0.0,0.0,0.0,0.0,0.0,0.0,0.0,0.0,0.0,0.0,0.0,0.0,0.0,0.0,0.0,0.0,0.0,0.0,0.0,0.0,0.0,0.0,0.0,0.0,-6.2219,-6.1915,-6.164,-6.1329,-6.101,-6.101,-6.13,0.0,0.0,0.0,0.0,0.0,0.0,0.0,0.0,0.0,0.0,0.0,0.0,0.0,0.0,0.0,0.0,0.0,0.0,0.0,0.0,0.0,0.0,0.0,0.0,0.0,0.0,0.0,0.0,0.0,0.0,0.0,0.0,0.0,0.0,0.0,0.0,0.0,0.0,0.0,0.0,0.0,0.0,0.0,0.0,0.0,0.0,0.0,0.0,0.0,0.0,0.0,0.0,0.0,0.0,0.0,0.0,0.0,0.0,0.0,0.0,0.0,0.0,0.0,0.0,0.0,0.0,0.0,0.0,0.0,0.0,0.0,0.0,0.0,0.0,0.0,0.0,0.0,0.0,0.0,0.0,0.0,0.0,0.0,0.0,0.0,0.0,0.0,0.0,0.0,0.0,0.0,0.0,0.0,0.0,0.0,0.0,0.0,0.0,0.0,0.0,0.0,0.0,0.0,0.0,0.0,0.0,0.0,-6.2229,-6.164,-6.1062,-6.0468,-6.0097,-6.0001,-6.0001,-6.0223,-6.0615,0.0,0.0,0.0,0.0,0.0,0.0,0.0,0.0,0.0,0.0,0.0,0.0,0.0,0.0,0.0,0.0,0.0,0.0,0.0,0.0,0.0,0.0,0.0,0.0,0.0,0.0,0.0,0.0,0.0,0.0,0.0,0.0,0.0,0.0,0.0,0.0,0.0,0.0,-6.2679,-6.2229,0.0,0.0,0.0,0.0,0.0,0.0,0.0,0.0,-5.9012,0.0,0.0,0.0,0.0,0.0,0.0,0.0,0.0,0.0,0.0,0.0,0.0,0.0,0.0,0.0,0.0,0.0,0.0,0.0,0.0,0.0,0.0,0.0,0.0,0.0,0.0,0.0,0.0,0.0,0.0,0.0,0.0,0.0,0.0,0.0,0.0,0.0,0.0,0.0,0.0,0.0,0.0,0.0,0.0,0.0,0.0,0.0,0.0,0.0,0.0,0.0,0.0,0.0,0.0,0.0,0.0,-6.2817,-6.2229,-6.1869,-6.1723,-6.1091,-6.0494,-6.0033,-6.0001,-5.9776,-5.9415,0.0,0.0,0.0,0.0,0.0,0.0,0.0,0.0,0.0,0.0,0.0,0.0,0.0,0.0,0.0,0.0,0.0,0.0,0.0,0.0,0.0,0.0,0.0,0.0,0.0,0.0,0.0,0.0,0.0,0.0,0.0,0.0,0.0,0.0,0.0,0.0,0.0,0.0,0.0,-6.1951,-6.1536,0.0,0.0,0.0,0.0,0.0,0.0,0.0,0.0,-5.9012,0.0,0.0,0.0,0.0,0.0,0.0,0.0,0.0,0.0,0.0,0.0,0.0,0.0,0.0,0.0,0.0,0.0,0.0,0.0,0.0,0.0,0.0,0.0,0.0,0.0,0.0,0.0,0.0,0.0,0.0,0.0,0.0,0.0,0.0,0.0,0.0,0.0,0.0,0.0,0.0,0.0,0.0,0.0,0.0,0.0,0.0,0.0,0.0,0.0,0.0,0.0,0.0,0.0,0.0,0.0,-6.2755,-6.186,-6.135,-6.135,-6.0401,-5.9774,-5.9483,-5.9483,-5.9646,0.0,0.0,0.0,0.0,0.0,0.0,0.0,0.0,0.0,0.0,0.0,0.0,0.0,0.0,0.0,0.0,0.0,0.0,0.0,0.0,0.0,0.0,0.0,0.0,0.0,0.0,0.0,0.0,0.0,0.0,0.0,0.0,0.0,0.0,0.0,0.0,0.0,0.0,0.0,0.0,-6.1415,-6.1068,-6.0129,0.0,0.0,0.0,0.0,0.0,0.0,-5.9012,-5.9012,0.0,0.0,0.0,0.0,0.0,0.0,0.0,0.0,0.0,0.0,0.0,0.0,0.0,0.0,0.0,0.0,0.0,0.0,0.0,0.0,0.0,0.0,0.0,0.0,0.0,0.0,0.0,0.0,0.0,0.0,0.0,0.0,0.0,0.0,0.0,0.0,0.0,0.0,0.0,0.0,0.0,0.0,0.0,0.0,0.0,0.0,0.0,0.0,0.0,0.0,0.0,0.0,0.0,0.0,0.0,-6.2603,-6.1492,-6.0855,-6.0676,-5.9613,-5.9012,-5.9012,-5.9012,-5.9482,0.0,0.0,0.0,0.0,0.0,0.0,0.0,0.0,0.0,0.0,0.0,0.0,0.0,0.0,0.0,0.0,0.0,0.0,0.0,0.0,0.0,0.0,0.0,0.0,0.0,0.0,0.0,0.0,0.0,0.0,0.0,0.0,0.0,0.0,0.0,0.0,0.0,0.0,0.0,0.0,0.0,-6.0646,-5.9905,-5.935,0.0,0.0,0.0,0.0,-5.9012,-5.9012,0.0,0.0,0.0,0.0,0.0,0.0,0.0,0.0,0.0,0.0,0.0,0.0,0.0,0.0,0.0,0.0,0.0,0.0,0.0,0.0,0.0,0.0,0.0,0.0,0.0,0.0,0.0,0.0,0.0,0.0,0.0,0.0,0.0,0.0,0.0,0.0,0.0,0.0,0.0,0.0,0.0,0.0,0.0,0.0,0.0,0.0,0.0,0.0,0.0,0.0,0.0,0.0,0.0,0.0,0.0,0.0,-6.2005,-6.1265,-6.0646,-6.0097,-5.9383,-5.9012,-5.9012,-5.9012,-5.9081,0.0,0.0,0.0,0.0,0.0,0.0,0.0,0.0,0.0,0.0,0.0,0.0,0.0,0.0,0.0,0.0,0.0,0.0,0.0,0.0,0.0,0.0,0.0,0.0,0.0,0.0,0.0,0.0,0.0,0.0,0.0,0.0,0.0,0.0,0.0,0.0,0.0,0.0,0.0,0.0,0.0,-6.0463,-5.9283,-5.9047,-5.9012,0.0,0.0,-5.9012,-5.9012,-5.9012,0.0,0.0,0.0,0.0,0.0,0.0,0.0,0.0,0.0,0.0,0.0,0.0,0.0,0.0,0.0,0.0,0.0,0.0,0.0,0.0,0.0,0.0,0.0,0.0,0.0,0.0,0.0,0.0,0.0,0.0,0.0,0.0,0.0,0.0,0.0,0.0,0.0,0.0,0.0,0.0,0.0,0.0,0.0,0.0,0.0,0.0,0.0,0.0,0.0,0.0,0.0,0.0,0.0,0.0,0.0,-6.249,-6.1897,-6.1236,-6.0585,-6.0001,-5.935,-5.9012,-5.9012,-5.9012,-5.9315,0.0,0.0,0.0,0.0,0.0,0.0,0.0,0.0,0.0,0.0,0.0,0.0,0.0,0.0,0.0,0.0,0.0,0.0,0.0,0.0,0.0,0.0,0.0,0.0,0.0,0.0,0.0,0.0,0.0,0.0,0.0,0.0,0.0,0.0,0.0,0.0,0.0,0.0,0.0,0.0,0.0,0.0,-5.9182,-5.9012,0.0,0.0,0.0,-5.9012,-5.9012,0.0,0.0,0.0,0.0,0.0,0.0,0.0,0.0,0.0,0.0,0.0,0.0,0.0,0.0,0.0,0.0,0.0,0.0,0.0,0.0,0.0,0.0,0.0,0.0,0.0,0.0,0.0,0.0,0.0,0.0,0.0,0.0,0.0,0.0,0.0,0.0,0.0,0.0,0.0,0.0,0.0,0.0,0.0,0.0,0.0,0.0,0.0,0.0,0.0,0.0,0.0,0.0,0.0,0.0,0.0,0.0,0.0,-6.164,-6.1003,-6.034,-5.9779,-5.9284,-5.9012,-5.9012,-5.9012,0.0,0.0,0.0,0.0,0.0,0.0,0.0,0.0,0.0,0.0,0.0,0.0,0.0,0.0,0.0,0.0,0.0,0.0,0.0,0.0,0.0,0.0,0.0,0.0,0.0,0.0,0.0,-6.2805,0.0,0.0,0.0,0.0,0.0,0.0,0.0,0.0,0.0,0.0,0.0,0.0,0.0,0.0,-6.0463,-5.9182,-5.9012,-5.9012,0.0,0.0,-5.9012,-5.9012,-5.9012,-5.9012,0.0,0.0,0.0,0.0,0.0,0.0,0.0,0.0,0.0,0.0,0.0,0.0,0.0,0.0,0.0,0.0,0.0,0.0,0.0,0.0,0.0,0.0,0.0,0.0,0.0,0.0,0.0,0.0,0.0,0.0,0.0,0.0,0.0,0.0,0.0,0.0,0.0,0.0,0.0,0.0,0.0,0.0,0.0,0.0,0.0,0.0,0.0,0.0,0.0,0.0,0.0,0.0,0.0,0.0,0.0,-6.0974,-6.0375,-5.9744,-5.9115,-5.9012,-5.9012,-5.9012,-5.9012,-5.9047,0.0,0.0,0.0,0.0,0.0,0.0,0.0,0.0,0.0,0.0,0.0,0.0,0.0,0.0,0.0,0.0,0.0,0.0,0.0,0.0,0.0,0.0,0.0,0.0,0.0,0.0,0.0,0.0,0.0,0.0,0.0,0.0,0.0,0.0,0.0,0.0,0.0,0.0,0.0,0.0,0.0,-6.0432,-5.9182,-5.9012,-5.9012,0.0,0.0,-5.9012,-5.9012,-5.9012,-5.9012,-5.9012,0.0,0.0,0.0,0.0,0.0,0.0,0.0,0.0,0.0,0.0,0.0,0.0,0.0,0.0,0.0,0.0,0.0,0.0,0.0,0.0,0.0,0.0,0.0,0.0,0.0,0.0,0.0,0.0,0.0,0.0,0.0,0.0,0.0,0.0,0.0,0.0,0.0,0.0,0.0,0.0,0.0,0.0,0.0,0.0,0.0,0.0,0.0,0.0,0.0,0.0,0.0,0.0,0.0,-6.1915,-6.0909,-6.0676,-6.0062,-5.9047,-5.9012,-5.9012,-5.9012,-5.9012,-5.9217,0.0,0.0,0.0,0.0,0.0,0.0,0.0,0.0,0.0,0.0,0.0,0.0,0.0,0.0,0.0,0.0,0.0,0.0,0.0,0.0,0.0,0.0,0.0,0.0,0.0,0.0,0.0,0.0,-6.2805,-6.2805,-6.2805,0.0,0.0,0.0,0.0,0.0,0.0,0.0,0.0,0.0,0.0,-6.0463,-5.9182,-5.9012,0.0,0.0,-5.9012,-5.9012,-5.9012,-5.9012,-5.9012,-5.9012,-5.9012,0.0,0.0,0.0,0.0,0.0,0.0,0.0,0.0,0.0,0.0,0.0,0.0,0.0,0.0,0.0,0.0,0.0,0.0,0.0,0.0,0.0,0.0,0.0,0.0,0.0,0.0,0.0,0.0,0.0,0.0,0.0,0.0,0.0,0.0,0.0,0.0,0.0,0.0,0.0,0.0,0.0,0.0,0.0,0.0,0.0,0.0,0.0,0.0,0.0,0.0,0.0,0.0,-6.1723,-6.0646,-6.0432,-5.9902,-5.9012,-5.9012,-5.9012,-5.9012,-5.9012,-5.9216,0.0,0.0,0.0,0.0,0.0,0.0,0.0,0.0,0.0,0.0,0.0,0.0,0.0,0.0,0.0,0.0,0.0,0.0,0.0,0.0,0.0,0.0,0.0,0.0,0.0,0.0,0.0,0.0,-6.2805,-6.2805,-6.2805,0.0,0.0,0.0,0.0,0.0,0.0,0.0,0.0,0.0,0.0,-6.0278,-5.9417,-5.9149,-5.9012,-5.9012,-5.9012,-5.9012,-5.9012,-5.9012,-5.9012,-5.9012,0.0,0.0,0.0,0.0,0.0,0.0,0.0,0.0,0.0,0.0,0.0,0.0,0.0,0.0,0.0,0.0,0.0,0.0,0.0,0.0,0.0,0.0,0.0,0.0,0.0,0.0,0.0,0.0,0.0,0.0,0.0,0.0,0.0,0.0,0.0,0.0,0.0,0.0,0.0,0.0,0.0,0.0,0.0,0.0,0.0,0.0,0.0,0.0,0.0,0.0,0.0,0.0,0.0,-6.0676,-6.0068,-5.945,-5.9047,-5.9012,-5.9012,-5.9012,-5.9012,-5.9012,-5.9012,-5.9047,0.0,0.0,0.0,0.0,0.0,0.0,0.0,0.0,0.0,0.0,0.0,0.0,0.0,0.0,0.0,0.0,0.0,0.0,0.0,0.0,0.0,0.0,0.0,0.0,0.0,0.0,-6.2805,-6.2805,-6.2805,0.0,0.0,0.0,0.0,0.0,0.0,0.0,0.0,0.0,0.0,-6.0406,-6.0036,-5.9937,-5.9417,-5.9047,-5.9012,-5.9012,-5.9012,-5.9012,-5.9012,-5.9012,0.0,0.0,0.0,0.0,0.0,0.0,0.0,0.0,0.0,0.0,0.0,0.0,0.0,0.0,0.0,0.0,0.0,0.0,0.0,0.0,0.0,0.0,0.0,0.0,0.0,0.0,0.0,-6.2805,-6.2805,0.0,0.0,0.0,0.0,0.0,0.0,0.0,0.0,0.0,0.0,0.0,-6.2805,-6.2805,0.0,0.0,0.0,0.0,0.0,0.0,0.0,0.0,0.0,0.0,0.0,0.0,-6.1068,-6.0033,-5.9811,-5.945,-5.9012,-5.9012,-5.9012,-5.9012,-5.9012,-5.9012,-5.9012,0.0,0.0,0.0,0.0,0.0,0.0,0.0,0.0,0.0,0.0,0.0,0.0,0.0,0.0,0.0,0.0,0.0,0.0,0.0,0.0,0.0,0.0,0.0,0.0,0.0,-6.2805,0.0,0.0,0.0,0.0,0.0,0.0,0.0,0.0,0.0,0.0,0.0,-6.1149,-6.0944,-6.1199,-6.098,-5.952,-6.0,-6.0107,0.0,0.0,0.0,0.0,0.0,0.0,0.0,0.0,0.0,0.0,0.0,0.0,0.0,0.0,-5.9012,-5.9012,-5.9012,-5.9012,-5.9012,0.0,0.0,0.0,0.0,0.0,0.0,0.0,0.0,0.0,0.0,0.0,0.0,0.0,0.0,0.0,0.0,-6.2805,0.0,0.0,0.0,0.0,0.0,0.0,0.0,0.0,-6.2805,-6.2805,-6.2805,-6.2805,-6.2805,0.0,-6.2805,-6.2805,0.0,0.0,0.0,0.0,0.0,0.0,0.0,0.0,-6.0711,-5.9714,-5.9648,-5.945,-5.9012,-5.9012,-5.9012,-5.9012,-5.9012,-5.9012,-5.9012,-5.9012,-5.9012,0.0,0.0,0.0,0.0,0.0,0.0,0.0,0.0,0.0,0.0,0.0,0.0,0.0,0.0,0.0,0.0,0.0,0.0,0.0,0.0,0.0,0.0,0.0,-6.3246,0.0,0.0,0.0,0.0,0.0,0.0,0.0,0.0,0.0,-6.3067,-6.2235,-6.1736,-6.1736,-6.2017,-6.1785,-6.0651,0.0,0.0,0.0,0.0,0.0,0.0,0.0,-5.9426,-5.9426,-5.9219,-5.9012,-5.9012,-5.9012,-5.9012,-5.9012,0.0,0.0,-5.9012,-5.9012,-5.9012,-5.9012,-5.8633,-5.8426,-5.8944,-5.8633,-5.8392,0.0,0.0,0.0,0.0,0.0,0.0,0.0,0.0,-6.2805,-6.2805,0.0,-6.2805,0.0,0.0,0.0,0.0,0.0,0.0,0.0,0.0,-6.2805,-6.2805,-6.2805,-6.2805,-6.2805,-6.2805,-6.2805,-6.2805,-6.2805,-6.2805,0.0,0.0,0.0,0.0,0.0,0.0,-5.9714,-5.9149,-5.9116,-5.9047,-5.9116,-5.9116,-5.9081,-5.9116,-5.9116,-5.9116,-5.9081,-5.9116,-5.9081,-5.9081,-5.9786,0.0,0.0,0.0,0.0,0.0,0.0,0.0,0.0,0.0,0.0,0.0,0.0,0.0,0.0,0.0,0.0,0.0,0.0,0.0,0.0,-6.3649,0.0,0.0,0.0,0.0,0.0,0.0,0.0,0.0,0.0,0.0,-6.3377,-6.3275,-6.3275,-6.3301,0.0,0.0,0.0,0.0,-6.1359,-6.1254,-6.1289,-6.1289,-6.1289,-6.0668,-6.022,-6.022,0.0,0.0,-5.9116,-5.9116,-5.9116,-5.9047,-5.9081,-5.9047,-5.9012,-5.9012,-5.9012,-5.9012,-5.8978,-5.9012,-5.9012,-5.8978,-5.8944,-6.2805,0.0,0.0,0.0,0.0,-6.2805,-6.2805,-6.2805,-6.2805,-6.2805,-6.2805,-6.2805,0.0,0.0,0.0,0.0,0.0,0.0,-6.2805,-6.2805,-6.2805,-6.2805,-6.2805,-6.2805,-6.2805,-6.2805,-6.2805,-6.2805,-6.2805,-6.2805,-6.2834,-6.2948,0.0,0.0,0.0,0.0,-6.0591,-6.0447,-6.0081,-6.0116,-6.0634,-6.0668,-6.0634,-6.0668,-6.0634,-6.0634,-6.0634,-6.0634,-6.0634,-6.0703,-6.175,0.0,0.0,0.0,0.0,0.0,0.0,0.0,0.0,0.0,0.0,0.0,0.0,0.0,0.0,0.0,0.0,0.0,0.0,0.0,-6.4578,-6.4824,-6.4971,0.0,0.0,0.0,0.0,0.0,0.0,0.0,0.0,0.0,-6.4268,-6.3249,-6.2927,0.0,0.0,-6.3016,-6.2649,-6.2742,-6.2509,-6.1429,0.0,0.0,0.0,-6.1116,-6.0978,-6.0978,-6.0771,-6.0668,-6.0634,-6.0634,-6.0461,-5.9944,-5.984,-5.9702,-5.9116,-5.9012,-5.9012,-5.9012,-5.9012,-5.9012,-5.9012,-5.9012,-5.8944,-6.2805,-6.2805,-6.2805,-6.2805,-6.2805,-6.2805,-6.2805,-6.2805,-6.2805,-6.2805,-6.2805,-6.2805,-6.2805,-6.2805,-6.2805,0.0,0.0,0.0,-6.2805,-6.2805,-6.2805,-6.2805,-6.2805,-6.2805,-6.2805,-6.2805,-6.2805,-6.2805,-6.2817,-6.2844,-6.2958,-6.3084,0.0,0.0,-6.2092,-6.1671,-6.1379,-6.1149,-6.0809,-6.084,-6.1289,-6.1323,-6.1323,-6.1323,-6.1323,-6.1323,-6.1323,-6.1323,-6.1323,-6.1289,-6.2085,-6.2546,0.0,0.0,0.0,0.0,0.0,0.0,0.0,0.0,0.0,0.0,0.0,-6.4016,-6.453,0.0,0.0,0.0,-6.5338,-6.5338,-6.5338,-6.5595,0.0,0.0,0.0,0.0,0.0,0.0,0.0,-6.5917,-6.5746,-6.5558,-6.5433,-6.4389,-6.3818,-6.4322,-6.4114,-6.3792,-6.33,0.0,-6.3205,-6.2327,-6.222,-6.222,-6.222,-6.1979,-6.1668,-6.1358,-6.1323,-6.1323,-6.1323,-6.1323,-6.1151,-6.0737,-6.0634,-6.0496,-6.0013,-5.9909,-5.9702,-5.915,-5.9012,-5.9012,-5.9012,-5.9012,-5.8978,-6.2805,-6.2805,-6.2805,-6.2805,-6.2805,-6.2805,-6.2805,-6.2805,-6.2805,-6.2805,-6.2805,-6.2805,-6.2805,-6.2805,-6.2805,0.0,0.0,-6.2805,-6.2805,-6.2805,-6.2805,-6.2805,-6.2805,-6.2805,-6.2805,-6.2805,-6.2853,-6.289,-6.2851,-6.2985,-6.312,-6.3204,-6.325,-6.2926,-6.2251,-6.2293,-6.2052,-6.1499,-6.1499,-6.1533,-6.1568,-6.1497,-6.1496,-6.1496,-6.1496,-6.1496,-6.1496,-6.1496,-6.1496,-6.1496,-6.1532,-6.2125,-6.3204,0.0,0.0,0.0,0.0,0.0,0.0,0.0,0.0,0.0,0.0,0.0,0.0,0.0,0.0,0.0,-6.5485,0.0,-6.5485,-6.6145,0.0,0.0,0.0,-6.7687,-6.7687,-6.6553,-6.6002,-6.6648,0.0,0.0,0.0,0.0,-6.5332,-6.4703,-6.4601,-6.4601,-6.4601,-6.4041,-6.3675,-6.3608,-6.3641,-6.3712,-6.3686,-6.3163,-6.2502,-6.1773,-6.1461,-6.1565,-6.1599,-6.1565,-6.153,-6.1427,-6.1392,-6.1323,-6.1323,-6.1256,-6.0911,-5.9495,-5.9185,-5.9116,-5.9012,-5.9012,-5.9012,-6.2805,-6.2805,-6.2805,-6.2805,-6.2805,-6.2805,-6.2805,-6.2805,-6.2805,-6.2805,-6.2805,-6.2805,-6.2805,-6.2805,-6.2805,-6.2805,-6.2805,-6.2805,-6.2805,-6.2805,-6.2805,-6.2805,-6.2805,-6.2805,-6.2805,-6.2842,-6.3466,-6.3492,-6.3003,-6.3591,-6.3653,-6.327,-6.4331,-6.4243,-6.3113,-6.2562,-6.2501,-6.2891,-6.2925,-6.3239,-6.3764,-6.3303,-6.3048,-6.3048,-6.3048,-6.3048,-6.3048,-6.3048,-6.3048,-6.3048,-6.3554,-6.3729,-6.3518,-6.3343,0.0,0.0,0.0,0.0,0.0,0.0,0.0,0.0,0.0,-6.5595,-6.6182,0.0,-6.6476,0.0,-6.7136,-6.7136,-6.7136,-6.7283,0.0,0.0,-6.7604,-6.7687,-6.7687,-6.7405,-6.7053,-6.6736,-6.6559,-6.6064,-6.524,-6.54,-6.5368,-6.4703,-6.4601,-6.4601,-6.4601,-6.4463,-6.4393,-6.4358,-6.4323,-6.4532,-6.4905,-6.4563,-6.3834,-6.3157,-6.305,-6.3048,-6.3048,-6.3048,-6.2875,-6.2358,-6.222,-6.1979,-6.1462,-6.1675,-6.1743,-6.0912,-6.0289,-5.9702,-5.915,-5.9012,-5.9012,-6.2805,-6.2805,-6.2805,-6.2805,-6.2805,-6.2805,-6.2805,-6.2805,-6.2805,-6.2805,-6.2805,-6.2805,-6.2805,-6.2805,-6.2805,-6.2805,-6.2805,-6.2805,-6.2805,-6.2805,-6.2805,-6.2805,-6.2805,-6.2805,-6.3025,-6.3392,-6.3539,-6.3575,-6.3571,-6.4043,-6.4111,-6.3774,-6.4586,-6.4696,-6.4003,-6.4144,-6.4013,-6.3519,-6.3554,-6.3764,-6.4147,-6.3785,-6.36,-6.36,-6.36,-6.36,-6.36,-6.36,-6.36,-6.36,-6.3655,-6.3904,-6.4428,-6.359,-6.3962,0.0,0.0,0.0,0.0,0.0,0.0,0.0,0.0,0.0,0.0,0.0,-6.721,0.0,-6.7687,0.0,-6.7687,-6.7687,-6.7687,-6.7687,-6.7687,-6.7687,-6.7687,-6.7433,-6.7117,-6.6736,-6.6707,-6.6404,-6.5625,-6.5846,-6.594,-6.5561,-6.5529,-6.54,-6.5039,-6.4566,-6.4253,-6.4532,-6.4358,-6.4358,-6.5072,-6.4838,-6.4601,-6.4497,-6.4463,-6.4463,-6.4532,-6.4497,-6.4357,-6.3971,-6.3901,-6.3624,-6.2962,-6.303,-6.2994,-6.2055,-6.1496,-6.0944,-6.0185,-6.0047,-6.0013,-6.2805,-6.2805,-6.2805,-6.2805,-6.2805,-6.2805,-6.2805,-6.2805,-6.2805,-6.2805,-6.2805,-6.2805,-6.2805,-6.2805,-6.2805,-6.2805,-6.2805,-6.2805,-6.2805,-6.2805,-6.2805,-6.2805,-6.2805,-6.289,-6.3356,-6.4064,-6.3639,-6.3772,-6.4367,-6.4566,-6.459,-6.4436,-6.4586,-6.4635,-6.4532,-6.5976,-6.5689,-6.3749,-6.3673,-6.3673,-6.3712,-6.3712,-6.3712,-6.3712,-6.3821,-6.3858,-6.3823,-6.3858,-6.3821,-6.3712,-6.309,-6.359,-6.5329,-6.3764,-6.3934,0.0,-6.5529,0.0,0.0,0.0,0.0,0.0,0.0,0.0,0.0,-6.766,-6.7687,-6.7687,-6.7687,-6.7687,-6.7687,-6.7687,-6.7687,-6.7687,-6.7687,-6.7687,-6.7687,-6.7174,-6.6823,-6.6794,-6.6823,-6.6794,-6.6648,-6.6765,-6.6794,-6.6648,-6.6589,-6.6404,-6.594,-6.4905,-6.4393,-6.4806,-6.4463,-6.4703,-6.4939,-6.4939,-6.5072,-6.5529,-6.5529,-6.5625,-6.5561,-6.5561,-6.5558,-6.5526,-6.5361,-6.5166,-6.477,-6.4667,-6.4321,-6.3205,-6.296,-6.2577,-6.1498,-6.1185,-6.1323,-6.2805,-6.2805,-6.2805,-6.2805,-6.2805,-6.2805,-6.2805,-6.2805,-6.2805,-6.2805,-6.2805,-6.2805,-6.2805,-6.2805,-6.2805,-6.2805,-6.2805,-6.2805,-6.2805,-6.2805,-6.2805,-6.2805,-6.2842,-6.3539,-6.3906,-6.4163,-6.527,-6.5633,-6.52,-6.5908,-6.5663,-6.4593,-6.5133,-6.4872,0.0,0.0,0.0,0.0,-6.3894,-6.3823,-6.4358,-6.4428,-6.4393,-6.4463,-6.4939,0.0,-6.5237,-6.5237,-6.4972,-6.4428,-6.4288,0.0,0.0,0.0,0.0,0.0,0.0,0.0,0.0,0.0,0.0,0.0,-6.7523,-6.746,-6.6975,-6.7378,-6.7687,-6.7687,-6.7687,-6.7687,-6.7687,-6.7687,-6.7687,-6.7687,-6.7687,-6.7687,-6.7687,-6.7569,-6.7515,-6.7515,-6.7488,-6.7322,-6.686,-6.7146,-6.7294,-6.6823,-6.6707,-6.6852,-6.723,-6.6493,-6.613,-6.6283,-6.6374,-6.6612,-6.6344,-6.6253,-6.6038,-6.5815,-6.5625,-6.5621,-6.5689,-6.5653,-6.5621,-6.5653,-6.5171,-6.5006,-6.5335,-6.5397,-6.5297,-6.5057,-6.4956,-6.427,-6.1848,-6.1323,-6.1323,-6.2805,0.0,-6.2805,-6.2805,0.0,-6.2805,-6.2805,-6.2805,-6.2805,-6.2805,-6.2805,-6.2805,-6.2805,-6.2805,-6.2805,-6.2805,-6.2805,-6.2805,-6.2805,-6.2805,-6.2805,-6.2805,-6.2842,-6.3686,-6.431,-6.4688,-6.5559,-6.5985,-6.6062,-6.646,-6.6313,-6.5661,-6.6007,-6.5784,-6.5174,-6.5815,-6.5971,-6.5625,-6.4974,-6.4772,-6.5072,-6.5105,-6.5105,-6.5105,0.0,0.0,0.0,0.0,0.0,0.0,0.0,0.0,0.0,0.0,0.0,-6.6582,-6.6344,-6.6464,-6.7117,-6.6881,-6.6787,-6.7174,-6.7202,-6.7202,-6.7174,-6.7488,-6.7687,-6.7687,-6.7687,-6.7687,-6.7687,-6.7687,-6.7687,-6.7687,-6.7687,-6.7687,-6.7687,-6.7687,-6.7687,-6.7687,-6.7687,-6.7542,-6.723,-6.746,-6.7542,-6.7266,-6.7174,-6.7322,-6.7515,-6.6823,-6.6192,-6.6156,-6.6434,-6.6671,-6.6707,-6.6707,-6.6765,-6.6612,-6.6641,-6.6641,-6.6641,-6.6641,-6.6641,-6.6612,-6.6374,-6.6186,-6.6095,-6.6125,-6.6033,-6.5721,-6.5625,-6.509,-6.3275,-6.268,-6.2427,-6.2805,-6.2805,-6.2805,-6.2805,-6.2805,-6.2805,-6.2805,-6.2805,0.0,0.0,0.0,-6.2805,-6.2805,-6.2805,-6.2805,-6.2805,-6.2805,-6.2805,-6.2805,-6.2805,-6.2805,-6.2853,-6.3099,-6.3906,-6.4714,-6.5495,-6.5696,-6.617,-6.6852,-6.6852,-6.6794,-6.6707,-6.6707,-6.6707,-6.6677,-6.6095,-6.6192,-6.6794,-6.6033,-6.5625,-6.5625,-6.5716,-6.5815,-6.5779,-6.594,-6.6002,-6.5971,-6.5966,-6.5904,-6.5779,-6.5207,-6.5448,-6.6576,-6.555,-6.5508,-6.6693,-6.6277,-6.6217,-6.6794,-6.6344,-6.6217,-6.6823,-6.6889,-6.7117,-6.766,-6.7687,-6.7687,-6.7687,-6.7687,-6.7687,-6.7687,-6.7687,-6.7687,-6.7687,-6.7687,-6.7687,-6.7687,-6.7687,-6.7687,-6.7687,-6.7687,-6.7687,-6.7687,-6.7687,-6.7687,-6.7687,-6.766,-6.7687,-6.7542,-6.6823,-6.6186,-6.6186,-6.6338,-6.6307,-6.6707,-6.6946,-6.7162,-6.7744,-6.789,-6.7944,-6.8054,-6.8128,-6.8128,-6.8156,-6.8037,-6.7769,-6.7411,-6.728,-6.6957,-6.6526,-6.6272,-6.605,-6.5497,-6.4848,-6.428,-6.2805,-6.2805,-6.2805,-6.2805,-6.2805,-6.2805,-6.2805,-6.2805,-6.2805,-6.2805,-6.2805,-6.2805,-6.2805,-6.2805,-6.2805,-6.2805,-6.2805,-6.2805,-6.2805,0.0,-6.2805,-6.3209,-6.3943,-6.4751,-6.5558,-6.6366,-6.7019,-6.7432,-6.7542,-6.7542,-6.7258,-6.6765,-6.6707,-6.6707,-6.6677,-6.6589,-6.6881,-6.7488,-6.6247,-6.5625,-6.559,-6.6222,-6.6559,-6.6589,-6.7117,-6.7433,-6.7405,-6.7405,-6.7146,-6.6553,-6.6451,-6.651,-6.6677,-6.651,-6.6743,-6.7488,-6.746,-6.746,-6.7542,-6.746,-6.746,-6.7579,-6.7542,-6.7606,-6.7687,-6.7687,-6.7687,-6.7687,-6.7687,-6.7687,-6.7687,-6.7687,-6.7687,-6.7687,-6.7687,-6.7687,-6.7687,-6.7687,-6.7687,-6.7687,-6.7687,-6.7687,-6.7687,-6.7751,-6.776,-6.7724,-6.7907,-6.776,-6.7807,-6.7579,-6.7433,-6.7433,-6.7405,-6.746,-6.7643,-6.7579,-6.7945,-6.8614,-6.8715,-6.8935,-6.9449,-6.9559,-6.9559,-6.9706,-6.9214,-6.9078,-6.9315,-6.9129,-6.8866,-6.8976,-6.8734,-6.8373,-6.8156,-6.7647,-6.6527,-6.2805,-6.2805,-6.2805,-6.2805,-6.2805,-6.2805,-6.2805,-6.2805,-6.2805,-6.2805,-6.2805,-6.2805,-6.2805,-6.2805,-6.2805,-6.2805,-6.2805,-6.2805,-6.2805,-6.2805,-6.2805,-6.3246,-6.4127,-6.4934,-6.5705,-6.6512,-6.732,-6.7687,-6.7687,-6.7687,-6.7515,-6.723,-6.723,-6.723,-6.7266,-6.723,-6.7405,-6.7687,-6.7053,-6.6729,-6.6729,-6.7053,-6.723,-6.7266,-6.7542,-6.7687,-6.7687,-6.7687,-6.7542,-6.723,-6.7266,-6.723,-6.723,-6.723,-6.7378,-6.7687,-6.7687,-6.7687,-6.7687,-6.7687,-6.7687,-6.7687,-6.7687,-6.7687,-6.7687,-6.7687,-6.7687,-6.7687,-6.7687,-6.7687,-6.7687,-6.7687,-6.7687,-6.7687,-6.7687,-6.7687,-6.7687,-6.7687,-6.7687,-6.7687,-6.7687,-6.7687,-6.7687,-6.8054,-6.8348,-6.8385,-6.8678,-6.8972,-6.8972,-6.8972,-6.8825,-6.8458,-6.8348,-6.8568,-6.8862,-6.9009,-6.9155,-6.9522,-6.9559,-6.9706,-7.0073,-7.011,-7.011,-7.011,-6.9848,-6.9819,-7.0082,-6.9876,-6.9848,-6.9933,-6.9905,-6.9581,-6.9159,-6.8566,-6.7465,-6.2805,-6.2805,-6.2805,-6.2805,-6.2805,-6.2805,-6.2805,-6.2805,-6.2805,-6.2805,-6.2805,-6.2805,-6.2805,-6.2805,-6.2805,-6.2805,-6.2805,-6.2805,-6.2805,-6.2842,-6.3025,-6.3539,-6.4383,-6.5191,-6.5999,-6.6769,-6.7393,-6.7687,-6.7687,-6.7687,-6.7687,-6.7687,-6.7687,-6.7687,-6.7687,-6.7687,-6.7687,-6.7687,-6.7687,-6.7687,-6.7687,-6.7687,-6.7687,-6.7687,-6.7687,-6.7687,-6.7687,-6.7687,-6.7687,-6.7687,-6.7687,-6.7687,-6.7687,-6.7687,-6.7687,-6.7687,-6.7687,-6.7687,-6.7687,-6.7687,-6.7687,-6.7687,-6.7687,-6.7687,-6.7687,-6.7687,-6.7687,-6.7687,-6.7687,-6.7687,-6.7687,-6.7687,-6.7687,-6.7687,-6.7687,-6.7824,-6.7907,-6.7981,-6.8054,-6.8164,-6.8238,-6.8274,-6.8348,-6.8788,-6.9155,-6.9265,-6.9706,-7.0073,-7.011,-7.011,-6.9853,-6.9596,-6.9302,-6.9376,-7.0,-7.0036,-7.011,-7.0293,-7.0367,-7.0513,-7.066,-7.0697,-7.066,-7.077,-7.0697,-7.0742,-7.0697,-7.0697,-7.0706,-7.0807,-7.0787,-7.0564,-7.0149,-6.9689,-6.8636,-6.2805,-6.2805,-6.2805,-6.2805,-6.2805,-6.2805,-6.2805,-6.2805,-6.2805,-6.2805,-6.2805,-6.2805,-6.2805,-6.2805,-6.2805,-6.2805,-6.2805,-6.2805,-6.2842,-6.2952,-6.3613,-6.4383,-6.5228,-6.5999,-6.6806,-6.7467,-6.765,-6.7687,-6.7687,-6.7687,-6.7687,-6.7687,-6.7687,-6.7687,-6.7687,-6.7687,-6.7687,-6.7687,-6.7687,-6.7687,-6.7687,-6.7687,-6.7687,-6.7687,-6.7687,-6.7687,-6.7687,-6.7687,-6.7687,-6.7687,-6.7687,-6.7687,-6.7687,-6.7687,-6.7687,-6.7687,-6.7687,-6.7687,-6.7687,-6.7687,-6.7724,-6.7687,-6.7787,-6.776,-6.776,-6.7724,-6.7687,-6.776,-6.7724,-6.776,-6.7687,-6.7787,-6.7898,-6.7907,-6.7871,-6.7944,-6.8641,-6.8788,-6.9082,-6.9816,-6.9669,-6.9853,-6.9706,-6.9889,-7.0,-7.011,-7.0257,-7.0403,-7.0367,-7.0367,-7.055,-7.077,-7.0513,-7.011,-7.0257,-7.011,-7.055,-7.1064,-7.1183,-7.1431,-7.1798,-7.2055,-7.2239,-7.1835,-7.2092,-7.2055,-7.2092,-7.2275,-7.2165,-7.1945,-7.2018,-7.2173,-7.2152,-7.1889,-7.0871,-6.2805,-6.2805,-6.2805,-6.2805,-6.2805,-6.2805,-6.2805,-6.2805,-6.2805,-6.2805,-6.2805,-6.2805,-6.2805,-6.2805,-6.2805,-6.2805,-6.2805,-6.2805,-6.3099,-6.3539,-6.3943,-6.4751,-6.5962,-6.6329,-6.6916,-6.764,-6.7687,-6.7687,-6.7687,-6.7687,-6.7687,-6.7687,-6.7687,-6.7687,-6.7687,-6.7687,-6.7687,-6.7687,-6.7687,-6.7687,-6.7687,-6.7687,-6.7687,-6.7687,-6.7687,-6.7687,-6.7687,-6.7687,-6.7687,-6.7687,-6.7687,-6.7687,-6.7687,-6.7687,-6.7687,-6.7687,-6.7687,-6.7687,-6.7687,-6.8128,-6.8421,-6.8385,-6.8862,-6.9119,-6.9119,-6.9119,-6.9119,-6.9045,-6.8678,-6.8568,-6.9009,-6.9119,-6.9119,-6.9119,-6.9119,-6.9229,-6.9559,-6.9596,-6.9779,-7.0073,-7.011,-7.011,-7.0183,-7.0513,-7.0991,-7.1358,-7.1505,-7.1431,-7.1505,-7.1505,-7.1651,-7.1872,-7.1725,-7.1541,-7.1468,-7.1541,-7.1688,-7.1908,-7.2018,-7.2239,-7.2422,-7.2532,-7.2496,-7.2569,-7.2642,-7.2642,-7.2422,-7.2532,-7.2532,-7.2569,-7.2532,-7.2532,-7.2532,-7.2532,-7.1801,-6.3477,-6.3503,-6.3477,-6.3503,-6.3477,-6.3477,-6.3503,-6.3477,-6.3477,-6.3503,-6.3466,-6.3477,-6.3477,-6.3466,-6.3282,-6.3135,-6.3209,-6.3367,-6.3833,-6.442,-6.464,-6.5375,-6.6439,-6.6733,-6.7136,-6.7614,-6.7687,-6.7687,-6.7687,-6.7687,-6.7687,-6.7687,-6.7687,-6.7687,-6.7687,-6.7687,-6.7687,-6.7714,-6.7907,-6.8017,-6.8054,-6.8238,-6.8128,-6.7787,-6.7687,-6.7687,-6.7687,-6.7687,-6.7687,-6.7687,-6.7687,-6.7687,-6.7687,-6.7907,-6.8128,-6.8338,-6.8348,-6.8348,-6.8348,-6.8898,-6.9229,-6.9265,-6.9779,-7.011,-7.011,-7.011,-7.022,-7.0367,-6.9889,-6.9816,-6.9963,-7.011,-7.011,-7.011,-7.011,-7.0146,-7.0403,-7.044,-7.055,-7.0697,-7.0917,-7.0734,-7.0844,-7.1284,-7.1835,-7.2275,-7.2459,-7.2532,-7.2532,-7.2459,-7.2459,-7.2532,-7.2642,-7.2679,-7.2569,-7.2386,-7.2532,-7.2826,-7.2826,-7.2899,-7.3046,-7.3193,-7.3193,-7.3634,-7.3303,-7.323,-7.3487,-7.334,-7.3156,-7.3156,-7.3156,-7.3156,-7.3377,-7.3083,-7.2899,-6.5191,-6.5154,-6.5191,-6.5092,-6.5191,-6.5118,-6.5154,-6.5044,-6.5118,-6.5154,-6.5081,-6.5081,-6.5154,-6.5044,-6.4383,-6.4053,-6.4127,-6.4751,-6.5118,-6.5301,-6.5962,-6.6402,-6.6549,-6.7247,-6.765,-6.7687,-6.7687,-6.7687,-6.7687,-6.7687,-6.7687,-6.7687,-6.7751,-6.7724,-6.776,-6.7834,-6.7724,-6.7907,-6.8531,-6.8862,-6.8935,-6.9559,-6.9192,-6.8008,-6.7751,-6.7797,-6.776,-6.7724,-6.7724,-6.7724,-6.7797,-6.7787,-6.7824,-6.8458,-6.9155,-6.9779,-6.9926,-6.9926,-6.9889,-6.9963,-7.0036,-7.0036,-7.022,-7.0183,-7.033,-7.033,-7.0624,-7.1174,-7.1174,-7.0917,-7.0367,-7.0403,-7.033,-7.0293,-7.0183,-7.055,-7.1146,-7.1248,-7.1615,-7.2092,-7.2202,-7.2129,-7.2275,-7.2422,-7.2386,-7.2496,-7.2532,-7.2569,-7.2642,-7.2606,-7.2642,-7.2826,-7.3156,-7.3377,-7.2753,-7.2899,-7.312,-7.3377,-7.3707,-7.3817,-7.4404,-7.4808,-7.4735,-7.4698,-7.4478,-7.4478,-7.4698,-7.4698,-7.4551,-7.4515,-7.4441,-7.4441,-7.4184,-7.3927,-7.3744,-6.5338,-6.5338,-6.5338,-6.5338,-6.5338,-6.5338,-6.5338,-6.5338,-6.5338,-6.5338,-6.5338,-6.5338,-6.5338,-6.5301,-6.5558,-6.5375,-6.4934,-6.5191,-6.5595,-6.6035,-6.6366,-6.6769,-6.7247,-6.7577,-6.7687,-6.7687,-6.7687,-6.7687,-6.7687,-6.7687,-6.7687,-6.7797,-6.8238,-6.8458,-6.8568,-6.8972,-6.9229,-6.9265,-6.9559,-6.9669,-6.9669,-6.9963,-6.9779,-6.9302,-6.9229,-6.9229,-6.9229,-6.9229,-6.9229,-6.9229,-6.9229,-6.9229,-6.9265,-6.9486,-6.9779,-7.0036,-7.011,-7.011,-7.0146,-7.0587,-7.0881,-7.0917,-7.1358,-7.1578,-7.1615,-7.1651,-7.1762,-7.1982,-7.2055,-7.1908,-7.1762,-7.1651,-7.1615,-7.1615,-7.1615,-7.1688,-7.1982,-7.2092,-7.2202,-7.2459,-7.2532,-7.2532,-7.2532,-7.2532,-7.2532,-7.2532,-7.2532,-7.2753,-7.3156,-7.3266,-7.3413,-7.3927,-7.4258,-7.4368,-7.4184,-7.4074,-7.4184,-7.4331,-7.4515,-7.4551,-7.4918,-7.5065,-7.5028,-7.5139,-7.5145,-7.5145,-7.5249,-7.5212,-7.5212,-7.5109,-7.5109,-7.5219,-7.4852,-7.4698,-7.4588,-6.6072,-6.6072,-6.6072,-6.6072,-6.6072,-6.6072,-6.6072,-6.6072,-6.6072,-6.6072,-6.6072,-6.6072,-6.6072,-6.6145,-6.6659,-6.6623,-6.6109,-6.6109,-6.6366,-6.6843,-6.688,-6.7173,-6.764,-6.7687,-6.7687,-6.7687,-6.7687,-6.7797,-6.8054,-6.8091,-6.8238,-6.8531,-6.9045,-6.9302,-6.9412,-6.9853,-7.011,-7.011,-7.0367,-7.0477,-7.0513,-7.0734,-7.0881,-7.0881,-7.0881,-7.0587,-7.0146,-7.011,-7.011,-7.011,-7.011,-7.022,-7.044,-7.0477,-7.0624,-7.0807,-7.0881,-7.0881,-7.0917,-7.1394,-7.1688,-7.1725,-7.2165,-7.2532,-7.2532,-7.2532,-7.2532,-7.2532,-7.2532,-7.2532,-7.2532,-7.2496,-7.2532,-7.2532,-7.2532,-7.2532,-7.2532,-7.2496,-7.2496,-7.2496,-7.2532,-7.2532,-7.2569,-7.2753,-7.2899,-7.2899,-7.3083,-7.356,-7.3964,-7.4111,-7.4221,-7.4808,-7.5102,-7.5249,-7.5285,-7.5395,-7.5249,-7.5359,-7.5322,-7.5322,-7.5469,-7.5542,-7.5542,-7.5586,-7.5622,-7.5659,-7.5659,-7.5652,-7.5652,-7.5616,-7.5842,-7.6136,-7.5806,-7.5542,-7.5395,-6.764,-6.7604,-6.765,-6.7504,-6.7467,-6.7467,-6.7614,-6.7504,-6.754,-6.743,-6.7357,-6.754,-6.7393,-6.7577,-6.7504,-6.7577,-6.7467,-6.743,-6.7494,-6.7577,-6.7577,-6.7577,-6.7687,-6.7687,-6.776,-6.7834,-6.776,-6.8201,-6.8898,-6.8935,-6.9265,-6.9889,-7.0036,-7.011,-7.0073,-7.0257,-7.0257,-7.044,-7.0991,-7.1293,-7.1366,-7.1945,-7.2275,-7.2349,-7.2312,-7.1651,-7.0293,-7.0257,-7.033,-7.0257,-7.0257,-7.055,-7.1211,-7.1321,-7.1651,-7.2165,-7.2386,-7.2422,-7.2386,-7.2386,-7.2386,-7.2386,-7.2496,-7.2532,-7.2532,-7.2532,-7.2532,-7.2532,-7.2532,-7.2532,-7.2532,-7.2532,-7.2532,-7.2532,-7.2532,-7.2532,-7.2532,-7.2532,-7.2532,-7.2569,-7.2642,-7.2569,-7.2716,-7.3266,-7.367,-7.3817,-7.4221,-7.4698,-7.4882,-7.4918,-7.4918,-7.5175,-7.5689,-7.6093,-7.6387,-7.6644,-7.646,-7.6313,-7.6203,-7.6203,-7.6533,-7.6613,-7.654,-7.6576,-7.654,-7.6576,-7.654,-7.654,-7.6686,-7.6723,-7.6943,-7.687,-7.6613,-7.635,-7.6203,-6.7767,-6.782,-6.7741,-6.7687,-6.7687,-6.7687,-6.7687,-6.7687,-6.7687,-6.7687,-6.7687,-6.7687,-6.7687,-6.7687,-6.7687,-6.7687,-6.7687,-6.7687,-6.7687,-6.7724,-6.7724,-6.7724,-6.7687,-6.7687,-6.7981,-6.8568,-6.9119,-6.9449,-6.9669,-6.9743,-6.9889,-7.0146,-7.0697,-7.0917,-7.0954,-7.1468,-7.1762,-7.1798,-7.1982,-7.2129,-7.2129,-7.2386,-7.2496,-7.2532,-7.2496,-7.2239,-7.1798,-7.1762,-7.1762,-7.1725,-7.1762,-7.1872,-7.2092,-7.2129,-7.2239,-7.2459,-7.2532,-7.2532,-7.2532,-7.2532,-7.2532,-7.2532,-7.2532,-7.2532,-7.2532,-7.2532,-7.2532,-7.2532,-7.2532,-7.2532,-7.2532,-7.2532,-7.2606,-7.2532,-7.2532,-7.2569,-7.2642,-7.2606,-7.2789,-7.323,-7.3303,-7.356,-7.4001,-7.4478,-7.4515,-7.4551,-7.4845,-7.5139,-7.5579,-7.5726,-7.6019,-7.643,-7.676,-7.6827,-7.6937,-7.7121,-7.7194,-7.6974,-7.6864,-7.6717,-7.709,-7.731,-7.731,-7.7494,-7.7457,-7.7494,-7.7457,-7.7384,-7.7457,-7.7347,-7.72,-7.72,-7.7237,-7.7053,-7.679,-6.782,-6.7863,-6.7767,-6.7687,-6.7687,-6.7687,-6.7687,-6.7687,-6.7687,-6.7687,-6.7687,-6.7687,-6.7871,-6.8091,-6.8128,-6.8311,-6.8531,-6.8568,-6.8568,-6.8531,-6.8201,-6.8128,-6.8201,-6.8458,-6.8825,-6.9339,-6.9853,-7.0257,-7.055,-7.055,-7.0697,-7.1064,-7.1505,-7.1762,-7.1798,-7.2202,-7.2532,-7.2532,-7.2496,-7.2496,-7.2496,-7.2532,-7.2642,-7.2899,-7.2936,-7.312,-7.334,-7.3413,-7.312,-7.2642,-7.2532,-7.2532,-7.2532,-7.2496,-7.2532,-7.2532,-7.2532,-7.2532,-7.2532,-7.2532,-7.2532,-7.2532,-7.2532,-7.2532,-7.2569,-7.2716,-7.2936,-7.2973,-7.3266,-7.3413,-7.345,-7.3413,-7.3413,-7.3413,-7.3156,-7.312,-7.3266,-7.3413,-7.3597,-7.4037,-7.4147,-7.4404,-7.4735,-7.5249,-7.5322,-7.5359,-7.5616,-7.5909,-7.6423,-7.6533,-7.6907,-7.7163,-7.7127,-7.7163,-7.7273,-7.7494,-7.7781,-7.7635,-7.7451,-7.7268,-7.7273,-7.731,-7.731,-7.8038,-7.8222,-7.8626,-7.8662,-7.8148,-7.7965,-7.7745,-7.7604,-7.731,-7.7273,-7.7273,-7.709,-6.8047,-6.801,-6.7914,-6.7944,-6.7971,-6.7971,-6.8017,-6.7907,-6.7944,-6.7981,-6.7971,-6.8054,-6.8348,-6.8862,-6.8972,-6.9302,-6.9926,-6.9889,-6.9853,-6.9743,-6.9412,-6.9119,-6.9045,-6.9669,-7.0073,-7.0183,-7.033,-7.0734,-7.1358,-7.1394,-7.1733,-7.2239,-7.2312,-7.2459,-7.2422,-7.2496,-7.2569,-7.2679,-7.2642,-7.2679,-7.2789,-7.2753,-7.3046,-7.3707,-7.378,-7.4037,-7.4551,-7.4625,-7.4074,-7.2899,-7.2863,-7.2899,-7.2716,-7.2642,-7.2826,-7.2863,-7.2679,-7.2789,-7.2716,-7.2899,-7.2863,-7.2899,-7.2899,-7.2642,-7.2936,-7.345,-7.378,-7.3817,-7.4331,-7.4771,-7.4735,-7.4698,-7.4735,-7.4845,-7.4221,-7.4111,-7.4705,-7.4771,-7.4771,-7.4882,-7.4992,-7.5028,-7.5249,-7.5836,-7.6093,-7.6276,-7.6717,-7.6974,-7.709,-7.709,-7.7273,-7.7457,-7.7635,-7.7892,-7.8112,-7.8369,-7.8626,-7.8552,-7.8369,-7.8185,-7.7928,-7.7928,-7.7928,-7.8589,-7.9066,-7.9507,-7.9507,-7.8919,-7.8662,-7.8626,-7.8259,-7.7604,-7.7494,-7.7781,-7.7671,-6.9667,-6.9667,-6.9504,-6.9449,-6.9449,-6.9449,-6.9449,-6.9449,-6.9449,-6.9339,-6.9449,-6.9449,-6.9522,-6.9779,-6.9779,-6.9926,-7.0146,-7.0183,-7.011,-7.0183,-7.0587,-7.0293,-7.0036,-7.0587,-7.0991,-7.1064,-7.1468,-7.1982,-7.2165,-7.2129,-7.2275,-7.2496,-7.2532,-7.2532,-7.2532,-7.2569,-7.2863,-7.3303,-7.3377,-7.3707,-7.4147,-7.4221,-7.4368,-7.4551,-7.4588,-7.4698,-7.4888,-7.4888,-7.4771,-7.4368,-7.4294,-7.4258,-7.4184,-7.4184,-7.4111,-7.4147,-7.4184,-7.4258,-7.4221,-7.4184,-7.4221,-7.4294,-7.4111,-7.4294,-7.4294,-7.4441,-7.4588,-7.4625,-7.4845,-7.4925,-7.4925,-7.4962,-7.5212,-7.5579,-7.5139,-7.4771,-7.4955,-7.4888,-7.5102,-7.5652,-7.5799,-7.6056,-7.646,-7.6686,-7.6907,-7.6974,-7.7163,-7.7384,-7.7457,-7.7604,-7.7781,-7.8148,-7.8405,-7.8699,-7.8993,-7.9286,-7.947,-7.947,-7.9396,-7.936,-7.9213,-7.9176,-7.925,-7.9507,-7.98,-8.0204,-7.9947,-7.9543,-7.947,-7.947,-7.9176,-7.8736,-7.8772,-7.8883,-7.8479,-7.0374,-7.0374,-7.0193,-7.011,-7.011,-7.011,-7.011,-7.011,-7.011,-7.011,-7.011,-7.011,-7.0293,-7.0587,-7.0624,-7.0807,-7.1064,-7.1101,-7.1138,-7.1174,-7.1578,-7.1505,-7.1321,-7.1651,-7.1798,-7.1835,-7.2275,-7.2459,-7.2496,-7.2532,-7.2532,-7.2532,-7.2532,-7.2679,-7.3046,-7.3046,-7.3413,-7.4074,-7.4221,-7.4478,-7.4882,-7.4888,-7.5139,-7.5285,-7.5432,-7.5506,-7.5806,-7.5916,-7.5652,-7.5102,-7.4852,-7.4888,-7.4888,-7.4888,-7.4888,-7.4888,-7.4888,-7.4852,-7.4888,-7.4888,-7.4888,-7.4888,-7.4888,-7.4888,-7.4925,-7.5175,-7.5395,-7.5432,-7.5689,-7.5879,-7.5916,-7.5916,-7.6166,-7.646,-7.6203,-7.5909,-7.5909,-7.5953,-7.6099,-7.646,-7.6644,-7.6754,-7.7237,-7.7273,-7.731,-7.7347,-7.7671,-7.7818,-7.7965,-7.8112,-7.8405,-7.8846,-7.9103,-7.936,-7.969,-8.0021,-8.0277,-8.0277,-8.0498,-8.0461,-8.0167,-8.0167,-8.0277,-8.0351,-8.0608,-8.0718,-8.0608,-8.0461,-8.0314,-8.0241,-8.0057,-7.9837,-7.969,-7.9653,-7.9286,-7.0766,-7.0739,-7.0496,-7.0386,-7.0496,-7.0395,-7.0569,-7.0459,-7.0541,-7.0505,-7.0505,-7.0431,-7.0917,-7.1403,-7.1468,-7.1798,-7.2422,-7.2239,-7.2349,-7.2312,-7.2386,-7.2312,-7.2275,-7.2275,-7.2349,-7.2386,-7.2496,-7.2532,-7.2532,-7.2532,-7.2606,-7.2716,-7.2716,-7.312,-7.367,-7.3817,-7.4258,-7.4882,-7.5028,-7.5175,-7.5395,-7.5439,-7.5726,-7.6166,-7.624,-7.6497,-7.6943,-7.709,-7.6576,-7.5219,-7.5175,-7.5292,-7.5255,-7.5182,-7.5219,-7.5292,-7.5402,-7.5329,-7.5219,-7.5395,-7.5255,-7.5359,-7.5292,-7.5145,-7.5439,-7.5909,-7.624,-7.624,-7.69,-7.7017,-7.7053,-7.7163,-7.7127,-7.7127,-7.7163,-7.7237,-7.731,-7.731,-7.731,-7.731,-7.7273,-7.7273,-7.731,-7.7347,-7.7457,-7.7855,-7.8222,-7.8626,-7.8772,-7.8956,-7.9323,-7.98,-7.9947,-7.9984,-8.0351,-8.0718,-8.0975,-8.1158,-8.1489,-8.1489,-8.0901,-8.0828,-8.1048,-8.1195,-8.1342,-8.1525,-8.1709,-8.1525,-8.1195,-8.1048,-8.0901,-8.0498,-8.0131,-8.0131,-7.991,-7.2573,-7.2428,-7.241,-7.2383,-7.2355,-7.2208,-7.2199,-7.2282,-7.2059,-7.192,-7.2059,-7.2002,-7.2018,-7.2202,-7.2202,-7.2386,-7.2496,-7.2532,-7.2532,-7.2532,-7.2532,-7.2532,-7.2532,-7.2532,-7.2532,-7.2532,-7.2532,-7.2532,-7.2532,-7.2642,-7.2863,-7.3377,-7.3487,-7.3854,-7.4551,-7.4661,-7.5065,-7.5726,-7.5836,-7.6166,-7.654,-7.6613,-7.6723,-7.7011,-7.698,-7.7053,-7.7237,-7.731,-7.7127,-7.687,-7.6686,-7.6576,-7.6576,-7.6613,-7.6613,-7.6576,-7.665,-7.6686,-7.6723,-7.665,-7.679,-7.6613,-7.6576,-7.6796,-7.676,-7.6833,-7.7011,-7.7053,-7.72,-7.7273,-7.731,-7.731,-7.731,-7.731,-7.731,-7.731,-7.731,-7.731,-7.731,-7.731,-7.7347,-7.731,-7.7384,-7.8038,-7.8259,-7.8405,-7.8883,-7.9433,-7.9653,-7.98,-8.0241,-8.0718,-8.0755,-8.0791,-8.1085,-8.1379,-8.1489,-8.1636,-8.1966,-8.215,-8.1562,-8.1415,-8.1599,-8.1782,-8.2003,-8.2186,-8.2186,-8.215,-8.1746,-8.1746,-8.1672,-8.1415,-8.1122,-8.0938,-8.0718,-7.3145,-7.3091,-7.3037,-7.3009,-7.2982,-7.2899,-7.2899,-7.2955,-7.2816,-7.2695,-7.2695,-7.261,-7.2553,-7.2532,-7.2532,-7.2496,-7.2532,-7.2532,-7.2532,-7.2532,-7.2532,-7.2532,-7.2532,-7.2532,-7.2532,-7.2532,-7.2532,-7.2679,-7.2973,-7.312,-7.3487,-7.4184,-7.4258,-7.4698,-7.5359,-7.5469,-7.5909,-7.6497,-7.668,-7.69,-7.7237,-7.731,-7.731,-7.731,-7.731,-7.731,-7.731,-7.731,-7.731,-7.731,-7.731,-7.731,-7.731,-7.731,-7.731,-7.731,-7.731,-7.731,-7.7273,-7.731,-7.7237,-7.731,-7.731,-7.731,-7.731,-7.731,-7.731,-7.731,-7.7273,-7.731,-7.731,-7.731,-7.731,-7.731,-7.731,-7.731,-7.731,-7.731,-7.731,-7.7384,-7.7677,-7.7892,-7.8185,-7.8699,-7.9029,-7.9213,-7.9837,-8.0388,-8.0571,-8.0755,-8.1158,-8.1489,-8.1525,-8.1672,-8.1893,-8.2039,-8.1966,-8.2003,-8.2076,-8.2186,-8.1966,-8.1966,-8.2113,-8.2186,-8.2186,-8.2186,-8.2186,-8.2186,-8.2186,-8.2039,-8.2003,-8.2113,-8.2039,-8.1636,-8.1489,-7.3225,-7.3225,-7.3091,-7.3064,-7.3064,-7.3037,-7.3037,-7.3064,-7.3009,-7.2899,-7.2751,-7.2723,-7.261,-7.2524,-7.2532,-7.2532,-7.2569,-7.2753,-7.2826,-7.2826,-7.3083,-7.312,-7.312,-7.312,-7.312,-7.2863,-7.2826,-7.3156,-7.3707,-7.3927,-7.4294,-7.4955,-7.5102,-7.5506,-7.6093,-7.6313,-7.657,-7.709,-7.7163,-7.72,-7.7273,-7.731,-7.731,-7.731,-7.731,-7.731,-7.731,-7.731,-7.731,-7.731,-7.742,-7.7457,-7.7457,-7.731,-7.731,-7.731,-7.731,-7.731,-7.731,-7.731,-7.731,-7.731,-7.731,-7.731,-7.731,-7.731,-7.731,-7.731,-7.731,-7.731,-7.731,-7.731,-7.731,-7.7347,-7.7384,-7.7494,-7.753,-7.7561,-7.7818,-7.7677,-7.8295,-7.8736,-7.9029,-7.947,-7.9727,-8.0094,-8.0718,-8.1195,-8.1379,-8.1562,-8.1782,-8.1929,-8.1893,-8.1893,-8.2113,-8.2186,-8.2186,-8.2186,-8.2186,-8.2186,-8.2186,-8.2186,-8.2186,-8.2186,-8.2186,-8.2186,-8.2186,-8.2186,-8.2186,-8.2186,-8.2186,-8.2186,-8.2186,-8.2186,-8.2113,-7.3383,-7.3346,-7.3357,-7.3357,-7.3294,-7.3225,-7.3225,-7.3268,-7.3091,-7.2982,-7.2964,-7.2816,-7.2712,-7.2635,-7.2532,-7.2532,-7.2863,-7.323,-7.3523,-7.3634,-7.4001,-7.4294,-7.4258,-7.4184,-7.4331,-7.4294,-7.3964,-7.4037,-7.4515,-7.4771,-7.5175,-7.5726,-7.5909,-7.6313,-7.6827,-7.7053,-7.7084,-7.7237,-7.731,-7.731,-7.731,-7.731,-7.731,-7.731,-7.7384,-7.742,-7.7384,-7.7347,-7.731,-7.7347,-7.8002,-7.8295,-7.8259,-7.7781,-7.753,-7.7494,-7.753,-7.7604,-7.7567,-7.742,-7.7347,-7.731,-7.7457,-7.742,-7.7384,-7.742,-7.7635,-7.753,-7.7494,-7.7384,-7.731,-7.753,-7.7384,-7.7494,-7.7965,-7.8369,-7.8479,-7.8809,-7.8993,-7.8699,-7.9176,-7.9617,-7.9874,-8.0204,-8.0608,-8.0901,-8.1342,-8.1672,-8.1819,-8.1929,-8.2039,-8.2113,-8.215,-8.215,-8.2186,-8.2186,-8.2186,-8.2186,-8.2186,-8.2186,-8.2186,-8.2186,-8.2186,-8.2186,-8.2186,-8.2186,-8.2186,-8.2186,-8.2186,-8.2186,-8.2186,-8.2186,-8.2186,-8.2186,-8.2186,-7.3372,-7.3372,-7.3372,-7.3372,-7.3372,-7.3357,-7.3357,-7.3372,-7.3278,-7.3377,-7.3536,-7.3563,-7.3578,-7.3699,-7.3744,-7.3744,-7.3854,-7.4074,-7.4331,-7.4441,-7.4735,-7.4888,-7.4925,-7.4925,-7.5212,-7.5285,-7.5139,-7.5065,-7.5506,-7.5542,-7.5983,-7.657,-7.6717,-7.6937,-7.72,-7.7237,-7.731,-7.731,-7.731,-7.731,-7.731,-7.731,-7.731,-7.7384,-7.7781,-7.7965,-7.8075,-7.8442,-7.8589,-7.8699,-7.8993,-7.9176,-7.9103,-7.8919,-7.8589,-7.8589,-7.8552,-7.8552,-7.8589,-7.8589,-7.8662,-7.8626,-7.8552,-7.8589,-7.8589,-7.8662,-7.8516,-7.8552,-7.8589,-7.8589,-7.8662,-7.8552,-7.8589,-7.8662,-7.8993,-7.914,-7.936,-7.9984,-7.9984,-7.98,-8.0167,-8.0461,-8.0571,-8.0938,-8.1452,-8.1782,-8.2003,-8.2113,-8.2186,-8.2186,-8.2186,-8.2186,-8.2186,-8.2186,-8.2186,-8.2186,-8.2186,-8.2186,-8.2186,-8.2186,-8.2186,-8.2186,-8.2186,-8.2186,-8.2186,-8.2186,-8.2186,-8.2186,-8.2186,-8.2186,-8.2186,-8.2186,-8.2186,-8.2186,-8.2186,-7.3372,-7.3372,-7.3584,-7.3658,-7.3658,-7.3844,-7.393,-7.3881,-7.393,-7.4142,-7.4441,-7.4468,-7.4622,-7.4823,-7.4845,-7.4815,-7.4888,-7.4992,-7.5139,-7.5212,-7.5402,-7.5439,-7.5432,-7.5469,-7.5799,-7.6276,-7.6276,-7.635,-7.635,-7.635,-7.6717,-7.7047,-7.7273,-7.731,-7.731,-7.731,-7.731,-7.731,-7.731,-7.731,-7.7494,-7.7567,-7.7677,-7.7818,-7.8479,-7.8809,-7.8883,-7.9286,-7.9543,-7.9653,-7.9874,-8.0057,-8.0057,-8.0204,-8.0277,-8.0241,-7.9984,-7.98,-7.9758,-7.9722,-7.9507,-7.9507,-7.9722,-7.9758,-7.9722,-7.9507,-7.9653,-7.9832,-7.9758,-7.9617,-7.9507,-7.9722,-7.969,-7.9727,-7.98,-8.0057,-8.0241,-8.0645,-8.1122,-8.1122,-8.1232,-8.1232,-8.1269,-8.1415,-8.1856,-8.1893,-8.2113,-8.2113,-8.2186,-8.2186,-8.2186,-8.2186,-8.2186,-8.2186,-8.2186,-8.2186,-8.2186,-8.2186,-8.2186,-8.2186,-8.2186,-8.2186,-8.2186,-8.2186,-8.2186,-8.2186,-8.2186,-8.2186,-8.2186,-8.2186,-8.2186,-8.2186,-8.2186,-8.2186,-8.2186,-7.3372,-7.3473,-7.4153,-7.445,-7.4561,-7.5156,-7.5453,-7.5416,-7.5378,-7.5483,-7.5412,-7.53,-7.5232,-7.5242,-7.5125,-7.4992,-7.5175,-7.5652,-7.5983,-7.6019,-7.6466,-7.6723,-7.6907,-7.7017,-7.6796,-7.7011,-7.7017,-7.7163,-7.7047,-7.7047,-7.7127,-7.7273,-7.731,-7.731,-7.731,-7.731,-7.731,-7.731,-7.731,-7.7708,-7.8332,-7.8442,-7.8772,-7.9213,-7.9543,-7.9653,-7.969,-7.9947,-8.0021,-8.0057,-8.0571,-8.0828,-8.0975,-8.1562,-8.1819,-8.1489,-8.0755,-7.9832,-7.9979,-8.0089,-8.0094,-8.0131,-8.0021,-7.9869,-8.0057,-8.0089,-8.0089,-7.9832,-7.9905,-8.0052,-8.0126,-7.9942,-7.9869,-8.0131,-8.0571,-8.0791,-8.0975,-8.1195,-8.1709,-8.1819,-8.1709,-8.1819,-8.1929,-8.2039,-8.215,-8.2186,-8.2186,-8.2186,-8.2186,-8.2186,-8.2186,-8.2186,-8.2186,-8.2186,-8.2186,-8.2186,-8.2186,-8.2186,-8.2186,-8.2186,-8.2186,-8.2186,-8.2186,-8.2186,-8.2186,-8.2186,-8.2186,-8.2186,-8.2186,-8.2186,-8.2186,-8.2186,-8.2186,-8.2186,-8.2186,-7.5021,-7.4784,-7.5118,-7.5267,-7.5304,-7.5676,-7.5787,-7.5787,-7.5787,-7.5911,-7.6124,-7.6113,-7.6162,-7.628,-7.6367,-7.6374,-7.635,-7.6607,-7.679,-7.6754,-7.709,-7.731,-7.7237,-7.7273,-7.7273,-7.731,-7.731,-7.7237,-7.731,-7.731,-7.731,-7.731,-7.731,-7.731,-7.731,-7.731,-7.731,-7.742,-7.7818,-7.8442,-7.9029,-7.9286,-7.947,-7.98,-8.0241,-8.0424,-8.0571,-8.0975,-8.1122,-8.1195,-8.1562,-8.1672,-8.1709,-8.1966,-8.215,-8.2113,-8.1599,-8.1195,-8.1195,-8.1085,-8.1048,-8.1085,-8.1085,-8.1232,-8.1158,-8.1085,-8.1085,-8.1158,-8.1158,-8.1122,-8.1085,-8.1158,-8.1158,-8.1269,-8.1305,-8.1452,-8.1636,-8.1856,-8.2113,-8.215,-8.2186,-8.2186,-8.2186,-8.2186,-8.2186,-8.2186,-8.2186,-8.2186,-8.2186,-8.2186,-8.2186,-8.2186,-8.2186,-8.2186,-8.2186,-8.2186,-8.2186,-8.2186,-8.2186,-8.2186,-8.2186,-8.2186,-8.2186,-8.2186,-8.2186,-8.2186,-8.2186,-8.2186,-8.2186,-8.2186,-8.2186,-8.2186,-8.2186,-8.2186,-8.2186,-7.6867,-7.6409,-7.6196,-7.6121,-7.6121,-7.6307,-7.6456,-7.6419,-7.6456,-7.6681,-7.6892,-7.6983,-7.7142,-7.7346,-7.7413,-7.7309,-7.7329,-7.7304,-7.7273,-7.731,-7.731,-7.731,-7.731,-7.731,-7.731,-7.731,-7.731,-7.731,-7.731,-7.731,-7.731,-7.731,-7.731,-7.731,-7.731,-7.731,-7.7384,-7.7818,-7.8516,-7.9286,-7.9947,-8.0094,-8.0241,-8.0534,-8.0938,-8.1305,-8.1415,-8.1746,-8.2076,-8.2076,-8.2076,-8.2076,-8.2113,-8.215,-8.2186,-8.2186,-8.1966,-8.1966,-8.1966,-8.1966,-8.2186,-8.2186,-8.2186,-8.1966,-8.2039,-8.2186,-8.215,-8.2003,-8.2003,-8.2039,-8.215,-8.2113,-8.1966,-8.1929,-8.2039,-8.215,-8.2186,-8.2186,-8.2186,-8.2186,-8.2186,-8.2186,-8.2186,-8.2186,-8.2186,-8.2186,-8.2186,-8.2186,-8.2186,-8.2186,-8.2186,-8.2186,-8.2186,-8.2186,-8.2186,-8.2186,-8.2186,-8.2186,-8.2186,-8.2186,-8.2186,-8.2186,-8.2186,-8.2186,-8.2186,-8.2186,-8.2186,-8.2186,-8.2186,-8.2186,-8.2186,-8.2186,-8.2186,-8.2186,-8.2186,-7.8525,-7.8053,-7.7338,-7.704,-7.705,-7.7793,-7.8053,-7.7905,-7.8016,-7.7979,-7.7942,-7.7932,-7.7723,-7.7725,-7.7643,-7.762,-7.759,-7.7365,-7.7304,-7.731,-7.731,-7.731,-7.731,-7.731,-7.731,-7.731,-7.731,-7.731,-7.7347,-7.7457,-7.7384,-7.731,-7.7347,-7.731,-7.7457,-7.7708,-7.8112,-7.8626,-7.9396,-8.0094,-8.0681,-8.0975,-8.1195,-8.1746,-8.2003,-8.2113,-8.2113,-8.215,-8.2186,-8.2186,-8.2186,-8.2186,-8.2186,-8.2186,-8.2186,-8.2186,-8.2186,-8.2186,-8.2186,-8.2186,-8.2186,-8.2186,-8.2186,-8.2186,-8.2186,-8.2186,-8.2186,-8.2186,-8.2186,-8.2186,-8.2186,-8.2186,-8.2186,-8.2186,-8.2186,-8.2186,-8.2186,-8.2186,-8.2186,-8.2186,-8.2186,-8.2186,-8.2186,-8.2186,-8.2186,-8.2186,-8.2186,-8.2186,-8.2186,-8.2186,-8.2186,-8.2186,-8.2186,-8.2186,-8.2186,-8.2186,-8.2186,-8.2186,-8.2186,-8.2186,-8.2186,-8.2186,-8.2186,-8.2186,-8.2186,-8.2186,-8.2186,-8.2186,-8.2186,-8.2186,-8.2186,-8.2186,-8.2186,-8.2186,-8.2186,-7.8738,-7.8267,-7.7942,-7.7858,-7.7895,-7.8165,-7.8304,-7.8304,-7.8313,-7.8221,-7.8099,-7.8006,-7.7928,-7.785,-7.7762,-7.7673,-7.7554,-7.7402,-7.7378,-7.731,-7.731,-7.731,-7.731,-7.7384,-7.731,-7.7347,-7.7347,-7.731,-7.731,-7.7855,-7.8075,-7.8002,-7.7708,-7.7781,-7.7965,-7.8552,-7.9213,-7.9837,-8.0351,-8.0938,-8.1562,-8.1746,-8.1893,-8.2113,-8.2186,-8.2186,-8.2186,-8.2186,-8.2186,-8.2186,-8.2186,-8.2186,-8.2186,-8.2186,-8.2186,-8.2186,-8.2186,-8.2186,-8.2186,-8.2186,-8.2186,-8.2186,-8.2186,-8.2186,-8.2186,-8.2186,-8.2186,-8.2186,-8.2186,-8.2186,-8.2186,-8.2186,-8.2186,-8.2186,-8.2186,-8.2186,-8.2186,-8.2186,-8.2186,-8.2186,-8.2186,-8.2186,-8.2186,-8.2186,-8.2186,-8.2186,-8.2186,-8.2186,-8.2186,-8.2186,-8.2186,-8.2186,-8.2186,-8.2186,-8.2186,-8.2186,-8.2186,-8.2186,-8.2186,-8.2186,-8.2186,-8.2186,-8.2186,-8.2186,-8.2186,-8.2186,-8.2186,-8.2186,-8.2186,-8.2186,-8.2186,-8.2186,-8.2186,-8.2186,-8.2186,-7.8581,-7.8304,-7.8304,-7.8304,-7.8304,-7.8304,-7.8304,-7.8304,-7.8304,-7.8221,-7.8071,-7.8071,-7.8043,-7.8002,-7.8145,-7.8131,-7.8129,-7.8125,-7.8106,-7.8148,-7.8185,-7.8038,-7.8038,-7.8112,-7.8295,-7.8038,-7.8038,-7.8148,-7.8259,-7.8699,-7.8883,-7.8772,-7.8442,-7.8626,-7.8956,-7.9727,-8.0461,-8.0865,-8.1342,-8.1562,-8.215,-8.215,-8.215,-8.2186,-8.2186,-8.2186,-8.2186,-8.2186,-8.2186,-8.2186,-8.2186,-8.2186,-8.2186,-8.2186,-8.2186,-8.2186,-8.2186,-8.2186,-8.2186,-8.2186,-8.2186,-8.2186,-8.2186,-8.2186,-8.2186,-8.2186,-8.2186,-8.2186,-8.2186,-8.2186,-8.2186,-8.2186,-8.2186,-8.2186,-8.2186,-8.2186,-8.2186,-8.2186,-8.2186,-8.2186,-8.2186,-8.2186,-8.2186,-8.2186,-8.2186,-8.2186,-8.2186,-8.2186,-8.2186,-8.2186,-8.2186,-8.2186,-8.2186,-8.2186,-8.2186,-8.2186,-8.2186,-8.2186,-8.2186,-8.2186,-8.2186,-8.2186,-8.2186,-8.2186,-8.2186,-8.2186,-8.2186,-8.2186,-8.2186,-8.2186,-8.2186,-8.2186,-8.2186,-8.2186,-8.2186,-7.8304,-7.8304,-7.8304,-7.8304,-7.8304,-7.8304,-7.8304,-7.8304,-7.8304,-7.8351,-7.8397,-7.836,-7.8434,-7.8498,-7.8898,-7.8965,-7.9024,-7.9332,-7.9433,-7.936,-7.925,-7.9507,-7.9507,-7.9396,-7.9213,-7.9617,-7.9433,-7.9286,-7.9507,-7.969,-7.9727,-7.9837,-7.9727,-7.9727,-7.9874,-8.0571,-8.0975,-8.1122,-8.1782,-8.2039,-8.215,-8.2186,-8.2186,-8.2186,-8.2186,-8.2186,-8.2186,-8.2186,-8.2186,-8.2186,-8.2186,-8.2186,-8.2186,-8.2186,-8.2186,-8.2186,-8.2186,-8.2186,-8.2186,-8.2186,-8.2186,-8.2186,-8.2186,-8.2186,-8.2186,-8.2186,-8.2186,-8.2186,-8.2186,-8.2186,-8.2186,-8.2186,-8.2186,-8.2186,-8.2186,-8.2186,-8.2186,-8.2186,-8.2186,-8.2186,-8.2186,-8.2186,-8.2186,-8.2186,-8.2186,-8.2186,-8.2186,-8.2186,-8.2186,-8.2186,-8.2186,-8.2186,-8.2186,-8.2186,-8.2186,-8.2186,-8.2186,-8.2186,-8.2186,-8.2186,-8.2186,-8.2186,-8.2186,-8.2186,-8.2186,-8.2186,-8.2186,-8.2186,-8.2186,-8.2186,-8.2186,-8.2186,-8.2186,-8.2186,-8.2186,-7.8304,-7.8304,-7.8304,-7.8304,-7.8304,-7.8304,-7.8341,-7.8304,-7.8341,-7.8611,-7.9019,-7.9094,-7.9428,-7.9751,-7.9771,-7.9815,-7.9829,-7.9658,-7.9832,-7.9837,-7.991,-7.9795,-7.9869,-7.9984,-7.9942,-7.98,-7.98,-7.9942,-7.9727,-8.0277,-8.0571,-8.0645,-8.0938,-8.1048,-8.0975,-8.1342,-8.1782,-8.1819,-8.2076,-8.2186,-8.2186,-8.2186,-8.2186,-8.2186,-8.2186,-8.2186,-8.2186,-8.2186,-8.2186,-8.2186,-8.2186,-8.2186,-8.2186,-8.2186,-8.2186,-8.2186,-8.2186,-8.2186,-8.2186,-8.2186,-8.2186,-8.2186,-8.2186,-8.2186,-8.2186,-8.2186,-8.2186,-8.2186,-8.2186,-8.2186,-8.2186,-8.2186,-8.2186,-8.2186,-8.2186,-8.2186,-8.2186,-8.2186,-8.2186,-8.2186,-8.2186,-8.2186,-8.2186,-8.2186,-8.2186,-8.2186,-8.2186,-8.2186,-8.2186,-8.2186,-8.2186,-8.2186,-8.2186,-8.2186,-8.2186,-8.2186,-8.2186,-8.2186,-8.2186,-8.2186,-8.2186,-8.2186,-8.2186,-8.2186,-8.2186,-8.2186,-8.2186,-8.2186,-8.2186,-8.2186,-8.2186,-8.2186,-8.2186,-8.2186,-8.2186,-7.8414,-7.8538,-7.8538,-7.8688,-7.8847,-7.8498,-7.8425,-7.8722,-7.8982,-7.9428,-7.9837,-7.9911,-8.0134,-8.0531,-8.0696,-8.0627,-8.0634,-8.0693,-8.0645,-8.0608,-8.0645,-8.0755,-8.0718,-8.0571,-8.0828,-8.0608,-8.0608,-8.0681,-8.0791,-8.1195,-8.1379,-8.1562,-8.1929,-8.1746,-8.1672,-8.1893,-8.2113,-8.2113,-8.2186,-8.2186,-8.2186,-8.2186,-8.2186,-8.2186,-8.2186,-8.2186,-8.2186,-8.2186,-8.2186,-8.2186,-8.2186,-8.2186,-8.2186,-8.2186,-8.2186,-8.2186,-8.2186,-8.2186,-8.2186,-8.2186,-8.2186,-8.2186,-8.2186,-8.2186,-8.2186,-8.2186,-8.2186,-8.2186,-8.2186,-8.2186,-8.2186,-8.2186,-8.2186,-8.2186,-8.2186,-8.2186,-8.2186,-8.2186,-8.2186,-8.2186,-8.2186,-8.2186,-8.2186,-8.2186,-8.2186,-8.2186,-8.2186,-8.2186,-8.2186,-8.2186,-8.2186,-8.2186,-8.2186,-8.2186,-8.2186,-8.2186,-8.2186,-8.2186,-8.2186,-8.2186,-8.2186,-8.2186,-8.2186,-8.2186,-8.2186,-8.2186,-8.2186,-8.2186,-8.2186,-8.2186,-8.2186,-8.2186,-8.2186,-8.2186,-8.2186,-7.8618,-7.9016,-7.9066,-7.9529,-7.9954,-7.9118,-7.8982,-7.9576,-8.0282,-8.0654,-8.0728,-8.0728,-8.0914,-8.0968,-8.137,-8.1544,-8.1557,-8.1865,-8.1916,-8.1962,-8.181,-8.1888,-8.1893,-8.1893,-8.1746,-8.1929,-8.1929,-8.1636,-8.2076,-8.1966,-8.2003,-8.2076,-8.2113,-8.2076,-8.2076,-8.2113,-8.2186,-8.2186,-8.2186,-8.2186,-8.2186,-8.2186,-8.2186,-8.2186,-8.2186,-8.2186,-8.2186,-8.2186,-8.2186,-8.2186,-8.2186,-8.2186,-8.2186,-8.2186,-8.2186,-8.2186,-8.2186,-8.2186,-8.2186,-8.2186,-8.2186,-8.2186,-8.2186,-8.2186,-8.2186,-8.2186,-8.2186,-8.2186,-8.2186,-8.2186,-8.2186,-8.2186,-8.2186,-8.2186,-8.2186,-8.2186,-8.2186,-8.2186,-8.2186,-8.2186,-8.2186,-8.2186,-8.2186,-8.2186,-8.2186,-8.2186,-8.2186,-8.2186,-8.2186,-8.2186,-8.2186,-8.2186,-8.2186,-8.2186,-8.2186,-8.2223,-8.2186,-8.2186,-8.2223,-8.2223,-8.2186,-8.237,-8.2517,-8.2553,-8.2296,-8.2186,-8.2186,-8.2186,-8.2186,-8.2186,-8.2186,-8.2186,-8.2186,-8.2186,-8.2186,-7.9402,-8.0341,-8.0341,-8.0622,-8.1055,-8.0982,-8.0728,-8.0431,-8.0617,-8.0988,-8.162,-8.162,-8.1843,-8.2445,-8.249,-8.2473,-8.2493,-8.2517,-8.2434,-8.2412,-8.2348,-8.2284,-8.2219,-8.2186,-8.2186,-8.2186,-8.2186,-8.2186,-8.215,-8.2186,-8.2186,-8.2186,-8.2186,-8.2186,-8.2186,-8.2186,-8.2186,-8.2186,-8.2186,-8.2186,-8.2186,-8.2186,-8.2186,-8.2186,-8.2186,-8.2186,-8.2186,-8.2186,-8.2186,-8.2186,-8.2186,-8.2186,-8.2186,-8.2186,-8.2186,-8.2186,-8.2186,-8.2186,-8.2186,-8.2186,-8.2186,-8.2186,-8.2186,-8.2186,-8.2186,-8.2186,-8.2186,-8.2186,-8.2186,-8.2186,-8.2186,-8.2186,-8.2186,-8.2186,-8.2186,-8.2186,-8.2186,-8.2186,-8.2186,-8.2186,-8.2186,-8.2186,-8.2186,-8.2186,-8.2186,-8.2186,-8.2186,-8.2186,-8.2186,-8.2186,-8.2186,-8.2186,-8.2406,-8.2443,-8.2333,-8.2333,-8.226,-8.2186,-8.2406,-8.27,-8.2957,-8.3104,-8.3067,-8.2994,-8.2884,-8.2517,-8.2186,-8.2333,-8.27,-8.2296,-8.2223,-8.2186,-8.2186,-8.2186,-8.2186,-8.0102,-8.1042,-8.1103,-8.1379,-8.1956,-8.2286,-8.214,-8.1731,-8.1657,-8.2028,-8.2437,-8.2437,-8.2734,-8.3032,-8.292,-8.283,-8.2837,-8.2721,-8.2571,-8.2407,-8.2407,-8.2316,-8.2251,-8.2186,-8.2186,-8.2186,-8.2186,-8.2186,-8.2186,-8.2186,-8.2186,-8.2186,-8.2186,-8.2186,-8.2186,-8.2186,-8.2186,-8.2186,-8.2186,-8.2186,-8.2186,-8.2186,-8.2186,-8.2186,-8.2186,-8.2186,-8.2186,-8.2186,-8.2186,-8.2186,-8.2186,-8.2186,-8.2186,-8.2186,-8.2186,-8.2186,-8.2186,-8.2186,-8.2186,-8.2186,-8.2186,-8.2186,-8.2186,-8.2186,-8.2186,-8.2186,-8.2186,-8.2186,-8.2186,-8.2186,-8.2186,-8.2186,-8.2186,-8.2186,-8.2186,-8.2186,-8.2186,-8.2186,-8.2186,-8.2186,-8.2186,-8.2186,-8.2186,-8.2186,-8.2186,-8.2186,-8.2186,-8.2186,-8.2186,-8.2186,-8.2186,-8.2186,-8.2553,-8.281,-8.27,-8.281,-8.3067,-8.3214,-8.3434,-8.3691,-8.3838,-8.3875,-8.3875,-8.3728,-8.3544,-8.3287,-8.3067,-8.3177,-8.3361,-8.2957,-8.259,-8.259,-8.248,-8.2186,-8.2186,-8.0844,-8.1595,-8.1557,-8.2083,-8.2692,-8.3031,-8.3106,-8.318,-8.3032,-8.3143,-8.3143,-8.3143,-8.3106,-8.3151,-8.3024,-8.2964,-8.2934,-8.288,-8.2696,-8.2439,-8.2471,-8.2412,-8.2251,-8.2186,-8.2186,-8.2186,-8.2186,-8.2186,-8.2186,-8.2186,-8.2186,-8.2186,-8.2186,-8.2186,-8.2186,-8.2186,-8.2186,-8.2186,-8.2186,-8.2186,-8.2186,-8.2186,-8.2186,-8.2186,-8.2186,-8.2186,-8.2186,-8.2186,-8.2186,-8.2186,-8.2186,-8.2186,-8.2186,-8.2186,-8.2186,-8.2186,-8.2186,-8.2186,-8.2186,-8.2186,-8.2186,-8.2186,-8.2186,-8.2186,-8.2186,-8.2186,-8.2186,-8.2186,-8.2186,-8.2186,-8.2186,-8.2186,-8.2186,-8.2186,-8.2186,-8.2186,-8.2186,-8.2186,-8.2186,-8.2186,-8.2186,-8.2186,-8.2186,-8.2186,-8.2186,-8.2186,-8.2406,-8.2443,-8.2553,-8.2553,-8.2553,-8.259,-8.303,-8.3508,-8.3581,-8.3765,-8.4168,-8.4389,-8.4425,-8.4535,-8.4646,-8.4682,-8.4719,-8.4499,-8.4315,-8.4315,-8.4242,-8.4168,-8.3948,-8.3691,-8.3361,-8.3141,-8.2847,-8.259,-8.226,-8.2179,-8.2964,-8.3213,-8.3408,-8.3517,-8.3292,-8.318,-8.318,-8.318,-8.318,-8.318,-8.318,-8.318,-8.318,-8.3151,-8.3121,-8.3091,-8.3031,-8.288,-8.2696,-8.2602,-8.2444,-8.2251,-8.2186,-8.2186,-8.2186,-8.2186,-8.2186,-8.2186,-8.2186,-8.2186,-8.2186,-8.2186,-8.2186,-8.2186,-8.2186,-8.2186,-8.2186,-8.2186,-8.2186,-8.2186,-8.2186,-8.2186,-8.2186,-8.2186,-8.2186,-8.2186,-8.2186,-8.2186,-8.2186,-8.2186,-8.2186,-8.2186,-8.2186,-8.2186,-8.2186,-8.2186,-8.2186,-8.2186,-8.2186,-8.2186,-8.2186,-8.2186,-8.2186,-8.2186,-8.2186,-8.2186,-8.2186,-8.2186,-8.2186,-8.2186,-8.2186,-8.2186,-8.2186,-8.2186,-8.2186,-8.2186,-8.2186,-8.2186,-8.2186,-8.2186,-8.2186,-8.2186,-8.2223,-8.2186,-8.248,-8.2957,-8.3214,-8.3434,-8.3544,-8.3581,-8.3654,-8.3948,-8.4278,-8.4389,-8.4682,-8.5049,-8.5013,-8.4903,-8.5123,-8.5416,-8.549,-8.549,-8.527,-8.5123,-8.5159,-8.5013,-8.4609,-8.4425,-8.4352,-8.4242,-8.4022,-8.3765,-8.3508,-8.2884,-8.2736,-8.3298,-8.3495,-8.3583,-8.3536,-8.3289,-8.318,-8.318,-8.318,-8.318,-8.318,-8.318,-8.318,-8.318,-8.318,-8.318,-8.318,-8.318,-8.2941,-8.2758,-8.2665,-8.2476,-8.2316,-8.2186,-8.2186,-8.2186,-8.2186,-8.2186,-8.2186,-8.2186,-8.2186,-8.2186,-8.2186,-8.2186,-8.2186,-8.2186,-8.2186,-8.2186,-8.2186,-8.2186,-8.2186,-8.2186,-8.2186,-8.2186,-8.2186,-8.2186,-8.2186,-8.2186,-8.2186,-8.2186,-8.2186,-8.2186,-8.2186,-8.2186,-8.2186,-8.2186,-8.2186,-8.2186,-8.2186,-8.2186,-8.2186,-8.2186,-8.2186,-8.2186,-8.2186,-8.2186,-8.2186,-8.2186,-8.2186,-8.2186,-8.2186,-8.2186,-8.2186,-8.2186,-8.2186,-8.2186,-8.2186,-8.2186,-8.2186,-8.2186,-8.2186,-8.2186,-8.2333,-8.2774,-8.2774,-8.303,-8.3471,-8.3911,-8.4168,-8.4572,-8.4609,-8.4682,-8.4939,-8.5086,-8.5159,-8.549,-8.593,-8.5783,-8.549,-8.5894,-8.6261,-8.6297,-8.6297,-8.6077,-8.593,-8.6004,-8.5783,-8.5453,-8.5233,-8.5196,-8.5086,-8.4976,-8.4682,-8.4389,-8.3875,-8.2927,-8.3172,-8.321,-8.321,-8.318,-8.318,-8.318,-8.318,-8.318,-8.318,-8.318,-8.318,-8.318,-8.318,-8.318,-8.318,-8.318,-8.318,-8.2971,-8.2758,-8.2696,-8.2476,-8.2316,-8.2186,-8.2186,-8.2186,-8.2186,-8.2186,-8.2186,-8.2186,-8.2186,-8.2186,-8.2186,-8.2186,-8.2186,-8.2186,-8.2186,-8.2186,-8.2186,-8.2186,-8.2186,-8.2186,-8.2186,-8.2186,-8.2186,-8.2186,-8.2186,-8.2186,-8.2186,-8.2186,-8.2186,-8.2186,-8.2186,-8.2186,-8.2186,-8.2186,-8.2186,-8.2186,-8.2186,-8.2186,-8.2186,-8.2186,-8.2186,-8.2186,-8.2186,-8.2223,-8.2223,-8.226,-8.226,-8.2223,-8.2223,-8.2186,-8.2186,-8.2186,-8.2186,-8.2186,-8.2186,-8.2223,-8.2223,-8.2223,-8.2333,-8.2333,-8.27,-8.3141,-8.3508,-8.3728,-8.4058,-8.4462,-8.4903,-8.5416,-8.571,-8.5747,-8.5857,-8.593,-8.5967,-8.6151,-8.6518,-8.6554,-8.6371,-8.6738,-8.6958,-8.6811,-8.6738,-8.6848,-8.6775,-8.6591,-8.6664,-8.6518,-8.6297,-8.5967,-8.5967,-8.582,-8.5527,-8.5233,-8.4903,-8.3461,-8.318,-8.318,-8.318,-8.318,-8.318,-8.318,-8.318,-8.318,-8.318,-8.318,-8.318,-8.318,-8.318,-8.318,-8.318,-8.318,-8.318,-8.2971,-8.2727,-8.2696,-8.2476,-8.2316,-8.2251,-8.2186,-8.2186,-8.2186,-8.2186,-8.2186,-8.2186,-8.2186,-8.2186,-8.2186,-8.2186,-8.2186,-8.2186,-8.2186,-8.2186,-8.2186,-8.2186,-8.2186,-8.2186,-8.2186,-8.2186,-8.2186,-8.2186,-8.2186,-8.2186,-8.2186,-8.2186,-8.2186,-8.2186,-8.2186,-8.2186,-8.2186,-8.2186,-8.2186,-8.2186,-8.2186,-8.2186,-8.2186,-8.2186,-8.2186,-8.226,-8.2296,-8.237,-8.2406,-8.248,-8.248,-8.2333,-8.2296,-8.2223,-8.2186,-8.2186,-8.2186,-8.2186,-8.2186,-8.2296,-8.237,-8.259,-8.2884,-8.303,-8.3287,-8.3765,-8.4315,-8.4609,-8.5086,-8.5453,-8.5637,-8.6187,-8.6701,-8.6664,-8.6628,-8.6775,-8.6775,-8.6628,-8.6848,-8.6958,-8.7031,-8.7031,-8.7031,-8.7031,-8.7031,-8.7031,-8.7031,-8.6885,-8.6995,-8.7031,-8.6921,-8.6591,-8.6738,-8.6664,-8.6334,-8.604,-8.571]},{"header":{"parameterUnit":"m.s-1","parameterCategory":1,"la1":31.0,"la2":29.5877,"lo1":-88.7671,"lo2":-86.6584,"dx":0.0162,"dy":0.0185,"nx":115,"ny":88,"refTime":"2023-02-12T06:00:00:Z","depth":0,"parameterNumber":3,"parameterNumberName":"V-component_of_WINDS"},"data":[0.0,0.0,0.0,0.0,0.0,0.0,0.0,0.0,0.0,0.0,0.0,0.0,0.0,0.0,0.0,0.0,0.0,0.0,0.0,0.0,0.0,0.0,0.0,0.0,0.0,0.0,0.0,0.0,0.0,0.0,0.0,0.0,0.0,0.0,0.0,0.0,0.0,0.0,0.0,0.0,0.0,0.0,0.0,0.0,0.0,0.0,0.0,0.0,0.0,0.0,0.0,0.0,0.0,0.0,0.0,0.0,0.0,0.0,0.0,0.0,0.0,0.0,0.0,0.0,0.0,0.0,0.0,0.0,0.0,0.0,0.0,0.0,0.0,0.0,0.0,0.0,0.0,0.0,0.0,0.0,0.0,0.0,0.0,0.0,0.0,0.0,0.0,0.0,0.0,0.0,0.0,0.0,0.0,0.0,0.0,0.0,0.0,0.0,0.0,0.0,0.0,0.0,0.0,0.0,0.0,0.0,0.0,0.0,0.0,0.0,0.0,0.0,0.0,0.0,0.0,0.0,0.0,0.0,0.0,0.0,0.0,0.0,0.0,0.0,0.0,0.0,0.0,0.0,0.0,0.0,0.0,0.0,0.0,0.0,0.0,0.0,0.0,0.0,0.0,0.0,0.0,0.0,0.0,0.0,0.0,0.0,0.0,0.0,0.0,0.0,0.0,0.0,0.0,0.0,0.0,0.0,0.0,0.0,0.0,0.0,0.0,0.0,0.0,0.0,0.0,0.0,0.0,0.0,0.0,0.0,0.0,0.0,0.0,0.0,0.0,0.0,0.0,0.0,0.0,0.0,0.0,0.0,0.0,0.0,0.0,0.0,0.0,0.0,0.0,0.0,0.0,0.0,0.0,0.0,0.0,0.0,0.0,0.0,0.0,0.0,0.0,0.0,0.0,0.0,0.0,0.0,0.0,0.0,0.0,0.0,0.0,0.0,0.0,0.0,0.0,0.0,0.0,0.0,0.0,0.0,0.0,0.0,0.0,0.0,0.0,0.0,0.0,0.0,0.0,0.0,0.0,0.0,0.0,0.0,0.0,0.0,0.0,0.0,0.0,0.0,0.0,0.0,0.0,0.0,0.0,0.0,0.0,0.0,0.0,0.0,0.0,0.0,0.0,0.0,0.0,0.0,0.0,0.0,0.0,0.0,0.0,0.0,0.0,0.0,0.0,0.0,0.0,0.0,0.0,0.0,0.0,0.0,0.0,0.0,0.0,0.0,0.0,0.0,0.0,0.0,0.0,0.0,0.0,0.0,0.0,0.0,0.0,0.0,0.0,0.0,0.0,0.0,0.0,0.0,0.0,0.0,0.0,0.0,0.0,0.0,0.0,0.0,0.0,0.0,0.0,0.0,0.0,0.0,0.0,0.0,0.0,0.0,0.0,0.0,0.0,0.0,0.0,0.0,0.0,0.0,0.0,0.0,0.0,0.0,0.0,0.0,0.0,0.0,0.0,0.0,0.0,0.0,0.0,0.0,0.0,0.0,0.0,0.0,0.0,0.0,0.0,0.0,0.0,0.0,0.0,0.0,0.0,0.0,0.0,0.0,0.0,0.0,0.0,0.0,0.0,0.0,0.0,0.0,0.0,0.0,0.0,0.0,0.0,0.0,0.0,0.0,0.0,0.0,0.0,0.0,0.0,0.0,0.0,0.0,0.0,0.0,0.0,0.0,0.0,0.0,0.0,0.0,0.0,0.0,0.0,0.0,0.0,0.0,0.0,0.0,0.0,0.0,0.0,0.0,0.0,0.0,0.0,0.0,0.0,0.0,0.0,0.0,0.0,0.0,0.0,0.0,0.0,0.0,0.0,0.0,0.0,0.0,0.0,0.0,0.0,0.0,0.0,0.0,0.0,0.0,0.0,0.0,0.0,0.0,0.0,0.0,0.0,0.0,0.0,0.0,0.0,0.0,0.0,0.0,0.0,0.0,0.0,0.0,0.0,0.0,0.0,0.0,0.0,0.0,0.0,0.0,0.0,0.0,0.0,0.0,0.0,0.0,0.0,0.0,0.0,0.0,0.0,0.0,0.0,0.0,0.0,0.0,0.0,0.0,0.0,0.0,0.0,0.0,0.0,0.0,0.0,0.0,0.0,0.0,0.0,0.0,0.0,0.0,0.0,0.0,0.0,0.0,0.0,0.0,0.0,0.0,0.0,0.0,0.0,0.0,0.0,0.0,0.0,0.0,0.0,0.0,0.0,0.0,0.0,0.0,0.0,0.0,0.0,0.0,0.0,0.0,0.0,0.0,0.0,0.0,0.0,0.0,0.0,0.0,0.0,0.0,0.0,0.0,0.0,0.0,0.0,0.0,0.0,0.0,0.0,0.0,0.0,0.0,0.0,0.0,0.0,0.0,0.0,0.0,0.0,0.0,0.0,0.0,0.0,0.0,0.0,0.0,0.0,0.0,0.0,0.0,0.0,0.0,0.0,0.0,0.0,0.0,0.0,0.0,0.0,0.0,0.0,0.0,0.0,0.0,0.0,0.0,0.0,0.0,0.0,0.0,0.0,0.0,0.0,0.0,0.0,0.0,0.0,0.0,0.0,0.0,0.0,0.0,0.0,0.0,0.0,0.0,0.0,0.0,0.0,0.0,0.0,0.0,0.0,0.0,0.0,0.0,0.0,0.0,0.0,0.0,0.0,0.0,0.0,0.0,0.0,0.0,0.0,0.0,0.0,0.0,0.0,0.0,0.0,0.0,0.0,0.0,0.0,0.0,0.0,0.0,0.0,0.0,0.0,0.0,0.0,0.0,0.0,0.0,0.0,0.0,0.0,0.0,0.0,0.0,0.0,0.0,0.0,0.0,0.0,0.0,0.0,0.0,0.0,0.0,0.0,0.0,0.0,0.0,0.0,0.0,0.0,0.0,0.0,0.0,0.0,0.0,0.0,0.0,0.0,0.0,0.0,0.0,0.0,0.0,0.0,0.0,0.0,0.0,0.0,0.0,0.0,0.0,0.0,0.0,0.0,0.0,0.0,0.0,0.0,0.0,0.0,0.0,0.0,0.0,0.0,0.0,0.0,0.0,0.0,0.0,0.0,0.0,0.0,0.0,0.0,0.0,0.0,0.0,0.0,0.0,0.0,0.0,0.0,0.0,0.0,0.0,0.0,0.0,0.0,0.0,0.0,0.0,0.0,0.0,0.0,0.0,0.0,0.0,0.0,0.0,0.0,0.0,0.0,0.0,0.0,0.0,0.0,0.0,0.0,0.0,0.0,0.0,0.0,0.0,0.0,0.0,0.0,0.0,0.0,0.0,0.0,0.0,0.0,0.0,0.0,0.0,0.0,0.0,0.0,0.0,0.0,0.0,0.0,0.0,0.0,0.0,0.0,0.0,0.0,0.0,0.0,0.0,0.0,0.0,0.0,0.0,0.0,0.0,0.0,0.0,0.0,0.0,0.0,0.0,0.0,0.0,0.0,0.0,0.0,0.0,0.0,0.0,0.0,0.0,0.0,0.0,0.0,0.0,0.0,0.0,0.0,0.0,0.0,0.0,0.0,0.0,0.0,0.0,0.0,0.0,0.0,0.0,0.0,0.0,0.0,0.0,0.0,0.0,0.0,0.0,0.0,0.0,0.0,0.0,0.0,0.0,0.0,0.0,0.0,0.0,0.0,0.0,0.0,0.0,0.0,0.0,0.0,0.0,0.0,0.0,0.0,0.0,0.0,0.0,0.0,0.0,0.0,0.0,0.0,0.0,0.0,0.0,0.0,0.0,0.0,0.0,0.0,0.0,0.0,0.0,0.0,0.0,0.0,0.0,0.0,0.0,0.0,0.0,0.0,0.0,0.0,0.0,0.0,0.0,0.0,0.0,0.0,0.0,0.0,0.0,0.0,0.0,0.0,0.0,0.0,0.0,0.0,0.0,0.0,0.0,0.0,0.0,0.0,0.0,0.0,0.0,0.0,0.0,0.0,0.0,0.0,0.0,0.0,0.0,0.0,0.0,0.0,0.0,0.0,0.0,0.0,0.0,0.0,0.0,0.0,0.0,0.0,0.0,0.0,0.0,0.0,0.0,0.0,0.0,0.0,0.0,0.0,0.0,0.0,0.0,0.0,0.0,0.0,0.0,0.0,0.0,0.0,0.0,0.0,0.0,0.0,0.0,0.0,0.0,0.0,0.0,0.0,0.0,0.0,0.0,0.0,0.0,0.0,0.0,0.0,0.0,0.0,0.0,0.0,0.0,0.0,0.0,0.0,0.0,0.0,0.0,0.0,0.0,0.0,0.0,0.0,0.0,0.0,0.0,0.0,0.0,0.0,0.0,0.0,0.0,2.2859,0.0,0.0,0.0,0.0,0.0,0.0,0.0,0.0,0.0,0.0,0.0,0.0,0.0,0.0,0.0,0.0,0.0,0.0,0.0,0.0,0.0,0.0,0.0,0.0,0.0,0.0,0.0,0.0,0.0,0.0,0.0,0.0,0.0,0.0,0.0,0.0,0.0,0.0,0.0,0.0,0.0,0.0,0.0,0.0,0.0,0.0,0.0,0.0,0.0,0.0,0.0,0.0,0.0,0.0,0.0,0.0,0.0,0.0,0.0,0.0,0.0,0.0,0.0,0.0,0.0,0.0,0.0,0.0,0.0,0.0,0.0,0.0,0.0,0.0,0.0,0.0,0.0,0.0,0.0,0.0,0.0,0.0,0.0,0.0,0.0,0.0,0.0,0.0,0.0,0.0,0.0,0.0,0.0,0.0,0.0,0.0,0.0,0.0,0.0,0.0,0.0,0.0,0.0,0.0,0.0,0.0,0.0,0.0,0.0,0.0,2.231,2.231,2.2654,2.2859,2.2859,0.0,0.0,0.0,0.0,0.0,0.0,0.0,0.0,0.0,0.0,0.0,0.0,0.0,0.0,0.0,0.0,0.0,0.0,0.0,0.0,0.0,0.0,0.0,0.0,0.0,0.0,0.0,0.0,0.0,0.0,0.0,0.0,0.0,0.0,0.0,0.0,0.0,0.0,0.0,0.0,0.0,0.0,0.0,0.0,0.0,0.0,0.0,0.0,0.0,0.0,0.0,0.0,0.0,0.0,0.0,0.0,0.0,0.0,0.0,0.0,0.0,0.0,0.0,0.0,0.0,0.0,0.0,0.0,0.0,0.0,0.0,0.0,0.0,0.0,0.0,0.0,0.0,0.0,0.0,0.0,0.0,0.0,0.0,0.0,0.0,0.0,0.0,0.0,0.0,0.0,0.0,0.0,0.0,0.0,0.0,0.0,0.0,0.0,0.0,0.0,0.0,0.0,0.0,0.0,0.0,0.0,0.0,0.0,0.0,0.0,0.0,0.0,2.2722,2.2859,2.2859,0.0,0.0,0.0,0.0,0.0,0.0,0.0,0.0,0.0,0.0,0.0,0.0,0.0,0.0,0.0,0.0,0.0,0.0,0.0,0.0,0.0,0.0,0.0,0.0,0.0,0.0,0.0,0.0,0.0,0.0,0.0,0.0,0.0,0.0,0.0,0.0,0.0,0.0,0.0,0.0,0.0,0.0,0.0,0.0,0.0,0.0,0.0,0.0,0.0,0.0,0.0,0.0,0.0,0.0,0.0,0.0,0.0,0.0,0.0,0.0,0.0,0.0,0.0,0.0,0.0,0.0,0.0,0.0,0.0,0.0,0.0,0.0,0.0,0.0,0.0,0.0,0.0,0.0,0.0,0.0,0.0,0.0,0.0,0.0,0.0,0.0,0.0,0.0,0.0,0.0,0.0,0.0,0.0,0.0,0.0,0.0,0.0,0.0,0.0,0.0,0.0,0.0,0.0,0.0,0.0,0.0,0.0,0.0,0.0,0.0,2.2859,2.2859,2.2859,0.0,2.2859,0.0,0.0,0.0,0.0,0.0,0.0,0.0,0.0,0.0,0.0,0.0,0.0,0.0,0.0,0.0,0.0,0.0,0.0,0.0,0.0,0.0,0.0,0.0,0.0,0.0,0.0,0.0,0.0,0.0,0.0,0.0,0.0,0.0,0.0,0.0,0.0,0.0,0.0,0.0,0.0,0.0,0.0,0.0,0.0,0.0,0.0,0.0,0.0,0.0,0.0,0.0,0.0,0.0,0.0,0.0,0.0,0.0,0.0,0.0,0.0,0.0,0.0,0.0,0.0,0.0,0.0,0.0,0.0,0.0,0.0,0.0,0.0,0.0,0.0,0.0,0.0,0.0,0.0,0.0,0.0,0.0,0.0,0.0,0.0,0.0,0.0,0.0,0.0,0.0,0.0,0.0,0.0,0.0,0.0,0.0,0.0,0.0,0.0,0.0,0.0,0.0,0.0,0.0,0.0,0.0,0.0,0.0,0.0,0.0,0.0,2.2791,2.2516,2.2791,2.2859,0.0,0.0,0.0,0.0,0.0,0.0,0.0,0.0,0.0,0.0,0.0,0.0,0.0,0.0,0.0,0.0,0.0,0.0,0.0,0.0,0.0,0.0,0.0,0.0,0.0,0.0,0.0,0.0,0.0,0.0,0.0,0.0,0.0,0.0,0.0,0.0,0.0,0.0,0.0,0.0,0.0,0.0,0.0,0.0,0.0,0.0,0.0,0.0,0.0,0.0,0.0,0.0,0.0,0.0,0.0,0.0,0.0,0.0,0.0,0.0,0.0,0.0,0.0,0.0,0.0,0.0,0.0,0.0,0.0,0.0,0.0,0.0,0.0,0.0,0.0,0.0,0.0,0.0,0.0,0.0,0.0,0.0,0.0,0.0,0.0,0.0,0.0,0.0,0.0,0.0,0.0,0.0,0.0,0.0,0.0,0.0,0.0,0.0,0.0,0.0,0.0,0.0,0.0,0.0,0.0,0.0,0.0,0.0,0.0,0.0,2.2654,2.2722,2.2516,2.2722,2.2859,2.2859,0.0,0.0,0.0,0.0,0.0,0.0,0.0,0.0,0.0,0.0,0.0,0.0,0.0,0.0,0.0,0.0,0.0,0.0,0.0,0.0,0.0,0.0,0.0,0.0,0.0,0.0,0.0,0.0,0.0,0.0,0.0,0.0,0.0,0.0,0.0,0.0,0.0,0.0,0.0,0.0,0.0,0.0,0.0,0.0,0.0,0.0,0.0,0.0,0.0,0.0,0.0,0.0,0.0,0.0,0.0,0.0,0.0,0.0,0.0,0.0,0.0,0.0,0.0,0.0,0.0,0.0,0.0,0.0,0.0,0.0,0.0,0.0,0.0,0.0,0.0,0.0,0.0,0.0,0.0,0.0,0.0,0.0,0.0,0.0,0.0,0.0,0.0,0.0,0.0,0.0,0.0,0.0,0.0,0.0,0.0,0.0,0.0,0.0,0.0,0.0,0.0,0.0,0.0,0.0,0.0,0.0,0.0,0.0,2.231,2.2722,2.2859,2.2859,2.2859,2.2859,0.0,0.0,0.0,0.0,0.0,0.0,0.0,0.0,0.0,0.0,0.0,0.0,0.0,0.0,0.0,0.0,0.0,0.0,0.0,0.0,0.0,0.0,0.0,0.0,0.0,0.0,0.0,0.0,0.0,0.0,0.0,0.0,0.0,0.0,0.0,0.0,0.0,0.0,0.0,0.0,0.0,0.0,0.0,0.0,0.0,0.0,0.0,0.0,0.0,0.0,0.0,0.0,0.0,0.0,0.0,0.0,0.0,0.0,0.0,0.0,0.0,0.0,0.0,0.0,0.0,0.0,0.0,0.0,0.0,0.0,0.0,0.0,0.0,0.0,0.0,0.0,0.0,0.0,0.0,0.0,0.0,0.0,0.0,0.0,0.0,0.0,0.0,0.0,0.0,0.0,0.0,0.0,0.0,0.0,0.0,0.0,0.0,0.0,0.0,0.0,0.0,0.0,0.0,0.0,0.0,0.0,0.0,0.0,0.0,2.2654,2.2791,2.2859,2.2859,2.2859,2.2859,0.0,0.0,0.0,0.0,0.0,0.0,0.0,0.0,0.0,0.0,0.0,0.0,0.0,0.0,0.0,0.0,0.0,0.0,0.0,0.0,0.0,0.0,0.0,0.0,0.0,0.0,0.0,0.0,0.0,0.0,0.0,0.0,0.0,0.0,0.0,0.0,0.0,0.0,0.0,0.0,0.0,0.0,0.0,0.0,0.0,0.0,0.0,0.0,0.0,0.0,0.0,0.0,0.0,0.0,0.0,0.0,0.0,0.0,0.0,0.0,0.0,0.0,0.0,0.0,0.0,0.0,0.0,0.0,0.0,0.0,0.0,0.0,0.0,0.0,0.0,0.0,0.0,0.0,0.0,0.0,0.0,0.0,0.0,0.0,0.0,0.0,0.0,0.0,0.0,0.0,0.0,0.0,0.0,0.0,0.0,0.0,0.0,0.0,0.0,0.0,0.0,0.0,0.0,0.0,0.0,0.0,0.0,0.0,0.0,2.2859,0.0,2.2859,2.2859,2.2859,2.2859,0.0,0.0,0.0,0.0,0.0,0.0,0.0,0.0,0.0,0.0,0.0,0.0,0.0,0.0,0.0,0.0,0.0,0.0,0.0,0.0,0.0,0.0,0.0,0.0,0.0,0.0,0.0,0.0,0.0,0.0,0.0,0.0,0.0,0.0,0.0,0.0,0.0,0.0,0.0,0.0,0.0,0.0,0.0,0.0,0.0,0.0,0.0,0.0,0.0,0.0,0.0,0.0,0.0,0.0,0.0,0.0,0.0,0.0,0.0,0.0,0.0,0.0,0.0,0.0,0.0,0.0,0.0,0.0,0.0,0.0,0.0,0.0,0.0,0.0,0.0,0.0,0.0,0.0,0.0,0.0,0.0,0.0,0.0,0.0,0.0,0.0,0.0,0.0,0.0,0.0,0.0,0.0,0.0,0.0,0.0,0.0,0.0,0.0,0.0,0.0,0.0,0.0,0.0,0.0,0.0,0.0,0.0,0.0,2.2859,2.2859,2.2859,2.2859,2.2859,2.2859,2.2859,0.0,0.0,0.0,0.0,0.0,0.0,0.0,0.0,0.0,0.0,0.0,0.0,0.0,0.0,0.0,0.0,0.0,0.0,0.0,0.0,0.0,0.0,0.0,0.0,0.0,0.0,0.0,0.0,0.0,0.0,0.0,0.0,0.0,0.0,0.0,0.0,0.0,0.0,0.0,0.0,0.0,0.0,0.0,0.0,0.0,0.0,0.0,0.0,0.0,0.0,0.0,0.0,0.0,0.0,0.0,0.0,0.0,0.0,0.0,0.0,0.0,0.0,0.0,0.0,0.0,0.0,0.0,0.0,0.0,0.0,0.0,0.0,0.0,0.0,0.0,0.0,0.0,0.0,0.0,0.0,0.0,0.0,0.0,0.0,0.0,0.0,0.0,0.0,0.0,0.0,0.0,0.0,0.0,0.0,0.0,0.0,0.0,0.0,0.0,0.0,0.0,0.0,0.0,0.0,0.0,0.0,0.0,0.0,0.0,2.2859,2.2859,2.2859,2.2859,2.2859,2.2859,0.0,0.0,0.0,0.0,0.0,0.0,0.0,0.0,0.0,0.0,0.0,0.0,0.0,0.0,0.0,0.0,0.0,0.0,0.0,0.0,0.0,0.0,0.0,0.0,0.0,0.0,0.0,0.0,0.0,0.0,0.0,0.0,0.0,0.0,0.0,0.0,0.0,0.0,0.0,0.0,0.0,0.0,0.0,0.0,0.0,0.0,0.0,0.0,0.0,0.0,0.0,0.0,0.0,0.0,0.0,0.0,0.0,0.0,0.0,0.0,0.0,0.0,0.0,0.0,0.0,0.0,0.0,0.0,0.0,0.0,0.0,0.0,0.0,0.0,0.0,0.0,0.0,0.0,0.0,0.0,0.0,0.0,0.0,0.0,0.0,0.0,0.0,0.0,0.0,0.0,0.0,0.0,0.0,0.0,0.0,0.0,0.0,0.0,0.0,0.0,0.0,0.0,0.0,0.0,0.0,0.0,0.0,0.0,0.0,2.2859,2.2859,2.2859,2.2859,2.2859,2.2859,2.2859,0.0,0.0,0.0,0.0,0.0,0.0,0.0,0.0,0.0,0.0,0.0,0.0,0.0,0.0,0.0,0.0,0.0,0.0,0.0,0.0,0.0,0.0,0.0,0.0,0.0,0.0,0.0,0.0,0.0,0.0,0.0,0.0,0.0,0.0,0.0,0.0,0.0,0.0,0.0,0.0,0.0,0.0,0.0,0.0,0.0,0.0,0.0,0.0,0.0,0.0,0.0,0.0,0.0,0.0,0.0,0.0,0.0,0.0,0.0,0.0,0.0,0.0,0.0,0.0,0.0,0.0,0.0,0.0,0.0,0.0,0.0,0.0,0.0,0.0,0.0,0.0,0.0,0.0,0.0,0.0,0.0,0.0,0.0,0.0,0.0,0.0,0.0,0.0,0.0,0.0,0.0,0.0,0.0,0.0,0.0,0.0,0.0,0.0,0.0,0.0,0.0,0.0,0.0,0.0,0.0,0.0,0.0,0.0,2.2859,2.2859,2.2859,2.2859,2.2859,2.2859,0.0,0.0,0.0,0.0,0.0,0.0,0.0,0.0,0.0,0.0,0.0,0.0,0.0,0.0,0.0,0.0,0.0,0.0,0.0,0.0,0.0,0.0,0.0,0.0,0.0,0.0,0.0,0.0,0.0,0.0,0.0,0.0,0.0,0.0,0.0,0.0,0.0,0.0,0.0,0.0,0.0,0.0,0.0,0.0,0.0,0.0,0.0,0.0,0.0,0.0,0.0,0.0,0.0,0.0,0.0,0.0,0.0,0.0,0.0,0.0,0.0,0.0,0.0,0.0,0.0,0.0,0.0,0.0,0.0,0.0,0.0,0.0,0.0,0.0,0.0,0.0,0.0,0.0,0.0,0.0,0.0,0.0,0.0,0.0,0.0,0.0,0.0,0.0,0.0,0.0,0.0,0.0,0.0,0.0,0.0,0.0,0.0,0.0,0.0,0.0,0.0,0.0,0.0,0.0,0.0,0.0,0.0,0.0,0.0,2.2859,2.2859,2.2859,2.2859,2.2859,2.2859,0.0,0.0,0.0,0.0,0.0,0.0,0.0,0.0,0.0,0.0,0.0,0.0,0.0,0.0,0.0,0.0,0.0,0.0,0.0,0.0,0.0,0.0,0.0,0.0,0.0,0.0,0.0,0.0,0.0,0.0,0.0,0.0,0.0,0.0,0.0,0.0,0.0,0.0,0.0,0.0,0.0,0.0,0.0,0.0,0.0,0.0,0.0,0.0,0.0,0.0,0.0,0.0,0.0,0.0,0.0,0.0,0.0,0.0,0.0,0.0,0.0,0.0,0.0,0.0,0.0,0.0,0.0,0.0,0.0,0.0,0.0,0.0,0.0,0.0,0.0,0.0,0.0,0.0,0.0,0.0,0.0,0.0,0.0,0.0,0.0,0.0,0.0,0.0,0.0,0.0,0.0,0.0,0.0,0.0,0.0,0.0,0.0,0.0,0.0,0.0,0.0,0.0,0.0,0.0,0.0,0.0,0.0,0.0,2.3201,2.3802,2.3802,2.3802,2.3802,2.3802,2.3461,0.0,0.0,0.0,0.0,0.0,0.0,0.0,0.0,0.0,0.0,0.0,0.0,0.0,0.0,0.0,0.0,0.0,0.0,0.0,0.0,0.0,0.0,0.0,0.0,0.0,0.0,0.0,0.0,0.0,0.0,0.0,0.0,0.0,0.0,0.0,0.0,0.0,0.0,0.0,0.0,0.0,0.0,0.0,0.0,0.0,0.0,0.0,0.0,0.0,0.0,0.0,0.0,0.0,0.0,0.0,0.0,0.0,0.0,0.0,0.0,0.0,0.0,0.0,0.0,0.0,0.0,0.0,0.0,0.0,0.0,0.0,0.0,0.0,0.0,0.0,0.0,0.0,0.0,0.0,0.0,0.0,0.0,0.0,0.0,0.0,0.0,0.0,0.0,0.0,0.0,0.0,0.0,0.0,0.0,0.0,0.0,0.0,0.0,0.0,0.0,0.0,0.0,0.0,0.0,0.0,0.0,0.0,0.0,2.3461,2.4738,2.4805,2.4873,2.5008,2.5008,2.4345,0.0,0.0,0.0,0.0,0.0,0.0,0.0,0.0,0.0,0.0,0.0,0.0,0.0,0.0,0.0,0.0,0.0,0.0,0.0,0.0,0.0,0.0,0.0,0.0,0.0,0.0,0.0,0.0,0.0,0.0,0.0,0.0,0.0,0.0,0.0,0.0,0.0,0.0,0.0,0.0,0.0,0.0,0.0,0.0,0.0,0.0,0.0,0.0,0.0,0.0,0.0,0.0,0.0,0.0,0.0,0.0,0.0,0.0,0.0,0.0,0.0,0.0,0.0,0.0,0.0,0.0,0.0,0.0,0.0,0.0,0.0,0.0,0.0,0.0,0.0,0.0,0.0,0.0,0.0,0.0,0.0,0.0,0.0,0.0,0.0,0.0,0.0,0.0,0.0,0.0,0.0,0.0,0.0,0.0,0.0,0.0,0.0,0.0,0.0,0.0,0.0,0.0,0.0,0.0,0.0,0.0,0.0,0.0,2.3065,2.3324,2.3338,2.387,2.494,2.5008,2.4345,0.0,0.0,0.0,0.0,0.0,0.0,0.0,0.0,0.0,0.0,0.0,0.0,0.0,0.0,0.0,0.0,0.0,0.0,0.0,0.0,0.0,0.0,0.0,0.0,0.0,0.0,0.0,0.0,0.0,0.0,0.0,0.0,0.0,0.0,0.0,0.0,0.0,0.0,0.0,0.0,0.0,0.0,0.0,0.0,0.0,0.0,0.0,0.0,2.9526,0.0,0.0,0.0,0.0,0.0,0.0,0.0,0.0,0.0,0.0,0.0,0.0,0.0,0.0,0.0,0.0,0.0,0.0,0.0,0.0,0.0,0.0,0.0,0.0,0.0,0.0,0.0,0.0,0.0,0.0,0.0,0.0,0.0,0.0,0.0,0.0,0.0,0.0,0.0,0.0,0.0,0.0,0.0,0.0,0.0,0.0,0.0,0.0,0.0,0.0,0.0,0.0,0.0,0.0,0.0,0.0,0.0,0.0,0.0,2.4196,2.4858,2.5532,2.627,2.7004,2.7004,2.6337,0.0,0.0,0.0,0.0,0.0,0.0,0.0,0.0,0.0,0.0,0.0,0.0,0.0,0.0,0.0,0.0,0.0,0.0,0.0,0.0,0.0,0.0,0.0,0.0,0.0,0.0,0.0,0.0,0.0,0.0,0.0,0.0,0.0,0.0,0.0,0.0,0.0,0.0,0.0,0.0,0.0,0.0,0.0,0.0,0.0,0.0,0.0,0.0,0.0,0.0,0.0,0.0,0.0,0.0,0.0,0.0,0.0,0.0,0.0,0.0,0.0,0.0,0.0,0.0,0.0,0.0,0.0,0.0,0.0,0.0,0.0,0.0,0.0,0.0,0.0,0.0,0.0,0.0,0.0,0.0,0.0,0.0,0.0,0.0,0.0,0.0,0.0,0.0,0.0,0.0,0.0,0.0,0.0,0.0,0.0,0.0,0.0,0.0,0.0,0.0,0.0,0.0,0.0,0.0,0.0,0.0,0.0,2.4278,2.5532,2.6788,2.8196,2.9068,2.9265,2.9265,2.8806,2.7784,0.0,0.0,0.0,0.0,0.0,0.0,0.0,0.0,0.0,0.0,0.0,0.0,0.0,0.0,0.0,0.0,0.0,0.0,0.0,0.0,0.0,0.0,0.0,0.0,0.0,0.0,0.0,0.0,0.0,0.0,0.0,0.0,0.0,0.0,0.0,0.0,0.0,0.0,2.3201,2.4278,0.0,0.0,0.0,0.0,0.0,0.0,0.0,0.0,3.1377,0.0,0.0,0.0,0.0,0.0,0.0,0.0,0.0,0.0,0.0,0.0,0.0,0.0,0.0,0.0,0.0,0.0,0.0,0.0,0.0,0.0,0.0,0.0,0.0,0.0,0.0,0.0,0.0,0.0,0.0,0.0,0.0,0.0,0.0,0.0,0.0,0.0,0.0,0.0,0.0,0.0,0.0,0.0,0.0,0.0,0.0,0.0,0.0,0.0,0.0,0.0,0.0,0.0,0.0,0.0,0.0,2.2941,2.4278,2.5075,2.533,2.6722,2.8048,2.9199,2.9265,2.9722,3.0437,0.0,0.0,0.0,0.0,0.0,0.0,0.0,0.0,0.0,0.0,0.0,0.0,0.0,0.0,0.0,0.0,0.0,0.0,0.0,0.0,0.0,0.0,0.0,0.0,0.0,0.0,0.0,0.0,0.0,0.0,0.0,0.0,0.0,0.0,0.0,0.0,0.0,0.0,0.0,2.4873,2.5883,0.0,0.0,0.0,0.0,0.0,0.0,0.0,0.0,3.1377,0.0,0.0,0.0,0.0,0.0,0.0,0.0,0.0,0.0,0.0,0.0,0.0,0.0,0.0,0.0,0.0,0.0,0.0,0.0,0.0,0.0,0.0,0.0,0.0,0.0,0.0,0.0,0.0,0.0,0.0,0.0,0.0,0.0,0.0,0.0,0.0,0.0,0.0,0.0,0.0,0.0,0.0,0.0,0.0,0.0,0.0,0.0,0.0,0.0,0.0,0.0,0.0,0.0,0.0,0.0,2.2996,2.4993,2.6121,2.6121,2.8246,2.9639,3.039,3.039,2.9982,0.0,0.0,0.0,0.0,0.0,0.0,0.0,0.0,0.0,0.0,0.0,0.0,0.0,0.0,0.0,0.0,0.0,0.0,0.0,0.0,0.0,0.0,0.0,0.0,0.0,0.0,0.0,0.0,0.0,0.0,0.0,0.0,0.0,0.0,0.0,0.0,0.0,0.0,0.0,0.0,2.6069,2.6871,2.9003,0.0,0.0,0.0,0.0,0.0,0.0,3.1377,3.1377,0.0,0.0,0.0,0.0,0.0,0.0,0.0,0.0,0.0,0.0,0.0,0.0,0.0,0.0,0.0,0.0,0.0,0.0,0.0,0.0,0.0,0.0,0.0,0.0,0.0,0.0,0.0,0.0,0.0,0.0,0.0,0.0,0.0,0.0,0.0,0.0,0.0,0.0,0.0,0.0,0.0,0.0,0.0,0.0,0.0,0.0,0.0,0.0,0.0,0.0,0.0,0.0,0.0,0.0,0.0,2.3406,2.5786,2.7254,2.7652,3.0048,3.1377,3.1377,3.1377,3.0307,0.0,0.0,0.0,0.0,0.0,0.0,0.0,0.0,0.0,0.0,0.0,0.0,0.0,0.0,0.0,0.0,0.0,0.0,0.0,0.0,0.0,0.0,0.0,0.0,0.0,0.0,0.0,0.0,0.0,0.0,0.0,0.0,0.0,0.0,0.0,0.0,0.0,0.0,0.0,0.0,0.0,2.7718,2.9461,3.0649,0.0,0.0,0.0,0.0,3.1377,3.1377,0.0,0.0,0.0,0.0,0.0,0.0,0.0,0.0,0.0,0.0,0.0,0.0,0.0,0.0,0.0,0.0,0.0,0.0,0.0,0.0,0.0,0.0,0.0,0.0,0.0,0.0,0.0,0.0,0.0,0.0,0.0,0.0,0.0,0.0,0.0,0.0,0.0,0.0,0.0,0.0,0.0,0.0,0.0,0.0,0.0,0.0,0.0,0.0,0.0,0.0,0.0,0.0,0.0,0.0,0.0,0.0,2.4738,2.6321,2.7718,2.9068,3.0584,3.1377,3.1377,3.1377,3.1249,0.0,0.0,0.0,0.0,0.0,0.0,0.0,0.0,0.0,0.0,0.0,0.0,0.0,0.0,0.0,0.0,0.0,0.0,0.0,0.0,0.0,0.0,0.0,0.0,0.0,0.0,0.0,0.0,0.0,0.0,0.0,0.0,0.0,0.0,0.0,0.0,0.0,0.0,0.0,0.0,0.0,2.8114,3.0779,3.1313,3.1377,0.0,0.0,3.1377,3.1377,3.1377,0.0,0.0,0.0,0.0,0.0,0.0,0.0,0.0,0.0,0.0,0.0,0.0,0.0,0.0,0.0,0.0,0.0,0.0,0.0,0.0,0.0,0.0,0.0,0.0,0.0,0.0,0.0,0.0,0.0,0.0,0.0,0.0,0.0,0.0,0.0,0.0,0.0,0.0,0.0,0.0,0.0,0.0,0.0,0.0,0.0,0.0,0.0,0.0,0.0,0.0,0.0,0.0,0.0,0.0,0.0,2.3597,2.5008,2.6388,2.785,2.9265,3.0649,3.1377,3.1377,3.1377,3.0631,0.0,0.0,0.0,0.0,0.0,0.0,0.0,0.0,0.0,0.0,0.0,0.0,0.0,0.0,0.0,0.0,0.0,0.0,0.0,0.0,0.0,0.0,0.0,0.0,0.0,0.0,0.0,0.0,0.0,0.0,0.0,0.0,0.0,0.0,0.0,0.0,0.0,0.0,0.0,0.0,0.0,0.0,3.0972,3.1377,0.0,0.0,0.0,3.1377,3.1377,0.0,0.0,0.0,0.0,0.0,0.0,0.0,0.0,0.0,0.0,0.0,0.0,0.0,0.0,0.0,0.0,0.0,0.0,0.0,0.0,0.0,0.0,0.0,0.0,0.0,0.0,0.0,0.0,0.0,0.0,0.0,0.0,0.0,0.0,0.0,0.0,0.0,0.0,0.0,0.0,0.0,0.0,0.0,0.0,0.0,0.0,0.0,0.0,0.0,0.0,0.0,0.0,0.0,0.0,0.0,0.0,0.0,2.5532,2.6922,2.8378,2.9805,3.0861,3.1377,3.1377,3.1377,0.0,0.0,0.0,0.0,0.0,0.0,0.0,0.0,0.0,0.0,0.0,0.0,0.0,0.0,0.0,0.0,0.0,0.0,0.0,0.0,0.0,0.0,0.0,0.0,0.0,0.0,0.0,2.2859,0.0,0.0,0.0,0.0,0.0,0.0,0.0,0.0,0.0,0.0,0.0,0.0,0.0,0.0,2.8114,3.0972,3.1377,3.1377,0.0,0.0,3.1377,3.1377,3.1377,3.1377,0.0,0.0,0.0,0.0,0.0,0.0,0.0,0.0,0.0,0.0,0.0,0.0,0.0,0.0,0.0,0.0,0.0,0.0,0.0,0.0,0.0,0.0,0.0,0.0,0.0,0.0,0.0,0.0,0.0,0.0,0.0,0.0,0.0,0.0,0.0,0.0,0.0,0.0,0.0,0.0,0.0,0.0,0.0,0.0,0.0,0.0,0.0,0.0,0.0,0.0,0.0,0.0,0.0,0.0,0.0,2.6988,2.8394,2.9787,3.1184,3.1377,3.1377,3.1377,3.1377,3.1313,0.0,0.0,0.0,0.0,0.0,0.0,0.0,0.0,0.0,0.0,0.0,0.0,0.0,0.0,0.0,0.0,0.0,0.0,0.0,0.0,0.0,0.0,0.0,0.0,0.0,0.0,0.0,0.0,0.0,0.0,0.0,0.0,0.0,0.0,0.0,0.0,0.0,0.0,0.0,0.0,0.0,2.818,3.0972,3.1377,3.1377,0.0,0.0,3.1377,3.1377,3.1377,3.1377,3.1377,0.0,0.0,0.0,0.0,0.0,0.0,0.0,0.0,0.0,0.0,0.0,0.0,0.0,0.0,0.0,0.0,0.0,0.0,0.0,0.0,0.0,0.0,0.0,0.0,0.0,0.0,0.0,0.0,0.0,0.0,0.0,0.0,0.0,0.0,0.0,0.0,0.0,0.0,0.0,0.0,0.0,0.0,0.0,0.0,0.0,0.0,0.0,0.0,0.0,0.0,0.0,0.0,0.0,2.4858,2.7039,2.7652,2.9051,3.1313,3.1377,3.1377,3.1377,3.1377,3.0991,0.0,0.0,0.0,0.0,0.0,0.0,0.0,0.0,0.0,0.0,0.0,0.0,0.0,0.0,0.0,0.0,0.0,0.0,0.0,0.0,0.0,0.0,0.0,0.0,0.0,0.0,0.0,0.0,2.2859,2.2859,2.2859,0.0,0.0,0.0,0.0,0.0,0.0,0.0,0.0,0.0,0.0,2.8114,3.0972,3.1377,0.0,0.0,3.1377,3.1377,3.1377,3.1377,3.1377,3.1377,3.1377,0.0,0.0,0.0,0.0,0.0,0.0,0.0,0.0,0.0,0.0,0.0,0.0,0.0,0.0,0.0,0.0,0.0,0.0,0.0,0.0,0.0,0.0,0.0,0.0,0.0,0.0,0.0,0.0,0.0,0.0,0.0,0.0,0.0,0.0,0.0,0.0,0.0,0.0,0.0,0.0,0.0,0.0,0.0,0.0,0.0,0.0,0.0,0.0,0.0,0.0,0.0,0.0,2.533,2.7718,2.818,2.9378,3.1377,3.1377,3.1377,3.1377,3.1377,3.0908,0.0,0.0,0.0,0.0,0.0,0.0,0.0,0.0,0.0,0.0,0.0,0.0,0.0,0.0,0.0,0.0,0.0,0.0,0.0,0.0,0.0,0.0,0.0,0.0,0.0,0.0,0.0,0.0,2.2859,2.2859,2.2859,0.0,0.0,0.0,0.0,0.0,0.0,0.0,0.0,0.0,0.0,2.8509,3.052,3.112,3.1377,3.1377,3.1377,3.1377,3.1377,3.1377,3.1377,3.1377,0.0,0.0,0.0,0.0,0.0,0.0,0.0,0.0,0.0,0.0,0.0,0.0,0.0,0.0,0.0,0.0,0.0,0.0,0.0,0.0,0.0,0.0,0.0,0.0,0.0,0.0,0.0,0.0,0.0,0.0,0.0,0.0,0.0,0.0,0.0,0.0,0.0,0.0,0.0,0.0,0.0,0.0,0.0,0.0,0.0,0.0,0.0,0.0,0.0,0.0,0.0,0.0,0.0,2.7652,2.9216,3.0455,3.1313,3.1377,3.1377,3.1377,3.1377,3.1377,3.1377,3.1313,0.0,0.0,0.0,0.0,0.0,0.0,0.0,0.0,0.0,0.0,0.0,0.0,0.0,0.0,0.0,0.0,0.0,0.0,0.0,0.0,0.0,0.0,0.0,0.0,0.0,0.0,2.2859,2.2859,2.2859,0.0,0.0,0.0,0.0,0.0,0.0,0.0,0.0,0.0,0.0,2.8328,2.9282,2.9395,3.052,3.1396,3.1377,3.1377,3.1377,3.1377,3.1377,3.1377,0.0,0.0,0.0,0.0,0.0,0.0,0.0,0.0,0.0,0.0,0.0,0.0,0.0,0.0,0.0,0.0,0.0,0.0,0.0,0.0,0.0,0.0,0.0,0.0,0.0,0.0,0.0,2.2859,2.2859,0.0,0.0,0.0,0.0,0.0,0.0,0.0,0.0,0.0,0.0,0.0,2.2859,2.2859,0.0,0.0,0.0,0.0,0.0,0.0,0.0,0.0,0.0,0.0,0.0,0.0,2.6871,2.9199,2.9739,3.0455,3.1377,3.1377,3.1377,3.1377,3.1377,3.1377,3.1377,0.0,0.0,0.0,0.0,0.0,0.0,0.0,0.0,0.0,0.0,0.0,0.0,0.0,0.0,0.0,0.0,0.0,0.0,0.0,0.0,0.0,0.0,0.0,0.0,0.0,2.2859,0.0,0.0,0.0,0.0,0.0,0.0,0.0,0.0,0.0,0.0,0.0,2.6588,2.7055,2.7729,2.876,3.049,3.0407,3.0543,0.0,0.0,0.0,0.0,0.0,0.0,0.0,0.0,0.0,0.0,0.0,0.0,0.0,0.0,3.1377,3.1377,3.1377,3.1377,3.1377,0.0,0.0,0.0,0.0,0.0,0.0,0.0,0.0,0.0,0.0,0.0,0.0,0.0,0.0,0.0,0.0,2.2859,0.0,0.0,0.0,0.0,0.0,0.0,0.0,0.0,2.2859,2.2859,2.2859,2.2859,2.2859,0.0,2.2859,2.2859,0.0,0.0,0.0,0.0,0.0,0.0,0.0,0.0,2.7668,2.9935,3.0065,3.0455,3.1377,3.1377,3.1377,3.1377,3.1377,3.1377,3.1377,3.1377,3.1377,0.0,0.0,0.0,0.0,0.0,0.0,0.0,0.0,0.0,0.0,0.0,0.0,0.0,0.0,0.0,0.0,0.0,0.0,0.0,0.0,0.0,0.0,0.0,2.302,0.0,0.0,0.0,0.0,0.0,0.0,0.0,0.0,0.0,2.4922,2.6337,2.7486,2.7486,2.8099,2.8975,3.0157,0.0,0.0,0.0,0.0,0.0,0.0,0.0,3.1598,3.1598,3.1488,3.1377,3.1377,3.1377,3.1377,3.1377,0.0,0.0,3.1377,3.1377,3.1377,3.1377,3.1176,3.1066,3.1341,3.1176,3.1129,0.0,0.0,0.0,0.0,0.0,0.0,0.0,0.0,2.2859,2.2859,0.0,2.2859,0.0,0.0,0.0,0.0,0.0,0.0,0.0,0.0,2.2859,2.2859,2.2859,2.2859,2.2859,2.2859,2.2859,2.2859,2.2859,2.2859,0.0,0.0,0.0,0.0,0.0,0.0,2.9935,3.1202,3.135,3.1396,3.1433,3.1433,3.1414,3.1433,3.1433,3.1433,3.1414,3.1433,3.1414,3.1414,3.0053,0.0,0.0,0.0,0.0,0.0,0.0,0.0,0.0,0.0,0.0,0.0,0.0,0.0,0.0,0.0,0.0,0.0,0.0,0.0,0.0,2.3166,0.0,0.0,0.0,0.0,0.0,0.0,0.0,0.0,0.0,0.0,2.8217,2.8255,2.8255,2.8101,0.0,0.0,0.0,0.0,3.2539,3.257,3.2588,3.2588,3.2588,3.2258,3.2019,3.2019,0.0,0.0,3.1433,3.1433,3.1433,3.1396,3.1414,3.1396,3.1377,3.1377,3.1377,3.1377,3.1359,3.1377,3.1377,3.1359,3.1423,2.2859,0.0,0.0,0.0,0.0,2.2859,2.2859,2.2859,2.2859,2.2859,2.2859,2.2859,0.0,0.0,0.0,0.0,0.0,0.0,2.2859,2.2859,2.2859,2.2859,2.2859,2.2859,2.2859,2.2859,2.2859,2.2859,2.2859,2.2859,2.3571,2.4796,0.0,0.0,0.0,0.0,2.8577,3.0303,3.1276,3.1964,3.2239,3.2258,3.2239,3.2258,3.2239,3.2239,3.2239,3.2239,3.2239,3.2192,2.9868,0.0,0.0,0.0,0.0,0.0,0.0,0.0,0.0,0.0,0.0,0.0,0.0,0.0,0.0,0.0,0.0,0.0,0.0,0.0,2.3584,2.3594,2.3647,0.0,0.0,0.0,0.0,0.0,0.0,0.0,0.0,0.0,3.0396,3.0084,2.8927,0.0,0.0,3.048,2.9798,3.0686,3.1678,3.2491,0.0,0.0,0.0,3.2496,3.2423,3.2423,3.2313,3.2258,3.2239,3.2239,3.2148,3.1873,3.1818,3.1744,3.1433,3.1377,3.1377,3.1377,3.1377,3.1377,3.1377,3.1377,3.1506,2.2859,2.2859,2.2859,2.2859,2.2859,2.2859,2.2859,2.2859,2.2859,2.2859,2.2859,2.2859,2.2859,2.2859,2.2859,0.0,0.0,0.0,2.2859,2.2859,2.2859,2.2859,2.2859,2.2859,2.2859,2.2859,2.2859,2.2859,2.2941,2.3653,2.4879,2.6534,0.0,0.0,2.7645,2.8105,2.9194,3.0905,3.1824,3.2349,3.2588,3.2606,3.2606,3.2606,3.2606,3.2606,3.2606,3.2606,3.2606,3.2588,3.087,2.9833,0.0,0.0,0.0,0.0,0.0,0.0,0.0,0.0,0.0,0.0,0.0,2.33,2.3487,0.0,0.0,0.0,2.3781,2.3781,2.3781,2.3875,0.0,0.0,0.0,0.0,0.0,0.0,0.0,2.6632,2.8162,2.9274,2.9647,2.9769,2.9421,2.8302,2.9897,3.1027,3.0788,0.0,3.2292,3.2965,3.3083,3.3083,3.3083,3.2955,3.279,3.2625,3.2606,3.2606,3.2606,3.2606,3.2514,3.2294,3.2239,3.2166,3.1909,3.1854,3.1744,3.1451,3.1377,3.1377,3.1377,3.1377,3.1442,2.2859,2.2859,2.2859,2.2859,2.2859,2.2859,2.2859,2.2859,2.2859,2.2859,2.2859,2.2859,2.2859,2.2859,2.2859,0.0,0.0,2.2859,2.2859,2.2859,2.2859,2.2859,2.2859,2.2859,2.2859,2.2859,2.2954,2.2968,2.3187,2.481,2.6549,2.8223,2.6442,2.6306,2.796,2.9546,3.1023,3.2442,3.2442,3.246,3.2478,3.2612,3.2698,3.2698,3.2698,3.2698,3.2698,3.2698,3.2698,3.2698,3.2545,3.1313,2.8887,0.0,0.0,0.0,0.0,0.0,0.0,0.0,0.0,0.0,0.0,0.0,0.0,0.0,0.0,0.0,2.3834,0.0,2.3834,2.4075,0.0,0.0,0.0,2.4636,2.4636,2.7143,2.8357,2.7012,0.0,0.0,0.0,0.0,2.9774,3.1296,3.1508,3.1508,3.1508,3.263,3.359,3.3466,3.3572,3.3521,3.3065,3.2968,3.2884,3.2759,3.268,3.2735,3.2753,3.2735,3.2716,3.2661,3.2643,3.2606,3.2606,3.2399,3.2217,3.1634,3.1469,3.1433,3.1377,3.1377,3.1377,2.2859,2.2859,2.2859,2.2859,2.2859,2.2859,2.2859,2.2859,2.2859,2.2859,2.2859,2.2859,2.2859,2.2859,2.2859,2.2859,2.2859,2.2859,2.2859,2.2859,2.2859,2.2859,2.2859,2.2859,2.2859,2.2873,2.31,2.3818,2.4977,2.5612,2.6692,2.817,2.6894,2.7601,3.0188,3.0429,3.0822,3.1442,3.1373,3.1444,3.1792,3.2954,3.3523,3.3523,3.3523,3.3523,3.3523,3.3523,3.3523,3.3523,3.2382,3.1948,3.2452,3.1409,0.0,0.0,0.0,0.0,0.0,0.0,0.0,0.0,0.0,2.3875,2.4088,0.0,2.4195,0.0,2.4436,2.4436,2.4436,2.4489,0.0,0.0,2.4522,2.4636,2.4636,2.5286,2.5991,2.6794,2.723,2.8213,3.0162,2.9718,2.979,3.1296,3.1508,3.1508,3.1508,3.1789,3.2018,3.2088,3.2158,3.1649,3.0785,3.1228,3.2262,3.3317,3.3436,3.3523,3.3523,3.3523,3.3431,3.3156,3.3083,3.2955,3.2594,3.168,3.1375,3.2047,3.2056,3.1744,3.1451,3.1377,3.1377,2.2859,2.2859,2.2859,2.2859,2.2859,2.2859,2.2859,2.2859,2.2859,2.2859,2.2859,2.2859,2.2859,2.2859,2.2859,2.2859,2.2859,2.2859,2.2859,2.2859,2.2859,2.2859,2.2859,2.2859,2.2939,2.3073,2.3914,2.4803,2.5765,2.6773,2.771,2.8478,2.8671,2.9569,3.113,2.974,3.002,3.2277,3.2208,3.2314,3.2508,3.3381,3.3817,3.3817,3.3817,3.3817,3.3817,3.3817,3.3817,3.3817,3.2784,3.2123,3.1772,3.1878,3.0766,0.0,0.0,0.0,0.0,0.0,0.0,0.0,0.0,0.0,0.0,0.0,2.4462,0.0,2.4636,0.0,2.4636,2.4636,2.4636,2.4636,2.4636,2.4636,2.4636,2.5212,2.5932,2.6794,2.6867,2.7505,2.9218,2.8716,2.8501,2.9361,2.9433,2.9718,3.0501,3.1578,3.2298,3.1649,3.2088,3.2,3.043,3.0926,3.1508,3.1719,3.1789,3.1789,3.1736,3.1719,3.165,3.1461,3.1426,3.1635,3.1908,3.1512,3.1322,3.239,3.2698,3.2404,3.2001,3.1928,3.1909,2.2859,2.2859,2.2859,2.2859,2.2859,2.2859,2.2859,2.2859,2.2859,2.2859,2.2859,2.2859,2.2859,2.2859,2.2859,2.2859,2.2859,2.2859,2.2859,2.2859,2.2859,2.2859,2.2859,2.2968,2.306,2.3397,2.4748,2.5685,2.6088,2.774,2.8757,2.9196,3.0547,3.1437,3.1649,2.8516,2.9075,3.3451,3.3678,3.3678,3.3521,3.3521,3.3521,3.3521,3.3312,3.3242,3.3224,3.3242,3.3312,3.3521,3.3193,3.1878,2.9686,3.1705,3.1183,0.0,2.9433,0.0,0.0,0.0,0.0,0.0,0.0,0.0,0.0,2.471,2.4636,2.4636,2.4636,2.4636,2.4636,2.4636,2.4636,2.4636,2.4636,2.4636,2.4636,2.5786,2.6575,2.6648,2.6575,2.6648,2.7012,2.6721,2.6648,2.7012,2.7157,2.7505,2.8501,3.0785,3.2018,3.1084,3.1877,3.1296,3.0714,3.0714,3.043,2.9433,2.9433,2.9218,2.9361,2.9361,2.9274,2.9345,2.9615,3.0042,3.1067,3.1192,3.1458,3.2292,3.2427,3.2402,3.2527,3.2533,3.2606,2.2859,2.2859,2.2859,2.2859,2.2859,2.2859,2.2859,2.2859,2.2859,2.2859,2.2859,2.2859,2.2859,2.2859,2.2859,2.2859,2.2859,2.2859,2.2859,2.2859,2.2859,2.2859,2.2873,2.3126,2.326,2.3354,2.4079,2.5112,2.6425,2.6964,2.8551,3.0896,3.0113,3.0855,0.0,0.0,0.0,0.0,3.3173,3.3224,3.2,3.1947,3.193,3.1877,3.0714,0.0,3.0075,3.0075,3.0643,3.186,3.1878,0.0,0.0,0.0,0.0,0.0,0.0,0.0,0.0,0.0,0.0,0.0,2.4743,2.5139,2.6298,2.5359,2.4636,2.4636,2.4636,2.4636,2.4636,2.4636,2.4636,2.4636,2.4636,2.4636,2.4636,2.4844,2.4991,2.4991,2.5065,2.5506,2.659,2.5859,2.558,2.6575,2.6867,2.6502,2.5639,2.7288,2.8156,2.7795,2.7578,2.6997,2.765,2.7867,2.8372,2.8788,2.9218,2.9131,2.9075,2.9059,2.9131,2.9059,3.0217,3.0572,2.9861,2.9631,2.9757,2.9906,3.0031,3.0483,3.2196,3.2606,3.2606,2.2859,0.0,2.2859,2.2859,0.0,2.2859,2.2859,2.2859,2.2859,2.2859,2.2859,2.2859,2.2859,2.2859,2.2859,2.2859,2.2859,2.2859,2.2859,2.2859,2.2859,2.2859,2.2873,2.318,2.3407,2.3624,2.4756,2.5826,2.6691,2.6852,2.7722,2.9234,2.8444,2.886,3.0305,2.8788,2.8429,2.9218,3.073,3.1155,3.043,3.0359,3.0359,3.0359,0.0,0.0,0.0,0.0,0.0,0.0,0.0,0.0,0.0,0.0,0.0,2.707,2.765,2.736,2.5932,2.643,2.6561,2.5786,2.5712,2.5712,2.5786,2.5065,2.4636,2.4636,2.4636,2.4636,2.4636,2.4636,2.4636,2.4636,2.4636,2.4636,2.4636,2.4636,2.4636,2.4636,2.4636,2.4918,2.5639,2.5139,2.4918,2.5653,2.5786,2.5506,2.4991,2.6575,2.8012,2.7996,2.7433,2.6852,2.6867,2.6867,2.6721,2.6997,2.6925,2.6925,2.6925,2.6925,2.6925,2.6997,2.7578,2.7924,2.8141,2.8068,2.8285,2.9003,2.9218,2.9835,3.1634,3.2629,3.3193,2.2859,2.2859,2.2859,2.2859,2.2859,2.2859,2.2859,2.2859,0.0,0.0,0.0,2.2859,2.2859,2.2859,2.2859,2.2859,2.2859,2.2859,2.2859,2.2859,2.2859,2.2954,2.2966,2.326,2.3554,2.3919,2.5383,2.6316,2.6502,2.6502,2.6648,2.6867,2.6867,2.6867,2.6939,2.8141,2.8012,2.6648,2.8285,2.9218,2.9218,2.8916,2.8788,2.8772,2.8501,2.8357,2.8429,2.8341,2.8485,2.8772,2.8522,2.7865,2.6983,2.7824,2.7722,2.6692,2.7707,2.7852,2.6648,2.765,2.7852,2.6575,2.6517,2.5932,2.471,2.4636,2.4636,2.4636,2.4636,2.4636,2.4636,2.4636,2.4636,2.4636,2.4636,2.4636,2.4636,2.4636,2.4636,2.4636,2.4636,2.4636,2.4636,2.4636,2.4636,2.4636,2.471,2.4636,2.4918,2.6575,2.7924,2.7924,2.7563,2.7635,2.6867,2.6371,2.6034,2.516,2.4878,2.473,2.477,2.4796,2.4796,2.506,2.4932,2.576,2.6469,2.7012,2.7393,2.8324,2.8816,2.9321,3.0629,3.2068,3.3106,2.2859,2.2859,2.2859,2.2859,2.2859,2.2859,2.2859,2.2859,2.2859,2.2859,2.2859,2.2859,2.2859,2.2859,2.2859,2.2859,2.2859,2.2859,2.2859,0.0,2.2859,2.3006,2.3273,2.3567,2.3861,2.4155,2.4642,2.4877,2.4918,2.4918,2.5566,2.6721,2.6867,2.6867,2.6939,2.7157,2.643,2.5065,2.778,2.9218,2.9202,2.7939,2.723,2.7157,2.5932,2.5212,2.5286,2.5286,2.5859,2.7143,2.7186,2.7041,2.6939,2.7041,2.6459,2.5065,2.5139,2.5139,2.4918,2.5139,2.5139,2.4931,2.4918,2.4857,2.4636,2.4636,2.4636,2.4636,2.4636,2.4636,2.4636,2.4636,2.4636,2.4636,2.4636,2.4636,2.4636,2.4636,2.4636,2.4636,2.4636,2.4636,2.4636,2.4576,2.4663,2.4649,2.4716,2.4663,2.4764,2.4931,2.5212,2.5212,2.5286,2.5139,2.5207,2.4931,2.5066,2.5058,2.501,2.509,2.5277,2.5317,2.5317,2.5371,2.6136,2.6603,2.6088,2.6796,2.704,2.665,2.7162,2.8059,2.858,2.9765,3.1376,2.2859,2.2859,2.2859,2.2859,2.2859,2.2859,2.2859,2.2859,2.2859,2.2859,2.2859,2.2859,2.2859,2.2859,2.2859,2.2859,2.2859,2.2859,2.2859,2.2859,2.2859,2.302,2.334,2.3634,2.3915,2.4209,2.4502,2.4636,2.4636,2.4636,2.4991,2.5639,2.5639,2.5639,2.5653,2.5639,2.5286,2.4636,2.5991,2.6707,2.6707,2.5991,2.5639,2.5653,2.4918,2.4636,2.4636,2.4636,2.4918,2.5639,2.5653,2.5639,2.5639,2.5639,2.5359,2.4636,2.4636,2.4636,2.4636,2.4636,2.4636,2.4636,2.4636,2.4636,2.4636,2.4636,2.4636,2.4636,2.4636,2.4636,2.4636,2.4636,2.4636,2.4636,2.4636,2.4636,2.4636,2.4636,2.4636,2.4636,2.4636,2.4636,2.4636,2.477,2.4877,2.489,2.4997,2.5104,2.5104,2.5104,2.505,2.4917,2.4877,2.4957,2.5064,2.5117,2.517,2.5304,2.5317,2.5371,2.5504,2.5518,2.5518,2.5518,2.6115,2.6191,2.5594,2.6039,2.6115,2.5886,2.5963,2.671,2.7679,2.9016,3.0746,2.2859,2.2859,2.2859,2.2859,2.2859,2.2859,2.2859,2.2859,2.2859,2.2859,2.2859,2.2859,2.2859,2.2859,2.2859,2.2859,2.2859,2.2859,2.2859,2.2873,2.2939,2.3126,2.3434,2.3728,2.4022,2.4302,2.4529,2.4636,2.4636,2.4636,2.4636,2.4636,2.4636,2.4636,2.4636,2.4636,2.4636,2.4636,2.4636,2.4636,2.4636,2.4636,2.4636,2.4636,2.4636,2.4636,2.4636,2.4636,2.4636,2.4636,2.4636,2.4636,2.4636,2.4636,2.4636,2.4636,2.4636,2.4636,2.4636,2.4636,2.4636,2.4636,2.4636,2.4636,2.4636,2.4636,2.4636,2.4636,2.4636,2.4636,2.4636,2.4636,2.4636,2.4636,2.4636,2.4602,2.4716,2.4743,2.477,2.481,2.4836,2.485,2.4877,2.5037,2.517,2.5211,2.5371,2.5504,2.5518,2.5518,2.5424,2.5331,2.5224,2.5251,2.5478,2.5491,2.5518,2.5585,2.5611,2.5665,2.5718,2.5732,2.5718,2.5758,2.5732,2.5836,2.5732,2.5732,2.5822,2.5772,2.594,2.6207,2.7191,2.8245,2.9844,2.2859,2.2859,2.2859,2.2859,2.2859,2.2859,2.2859,2.2859,2.2859,2.2859,2.2859,2.2859,2.2859,2.2859,2.2859,2.2859,2.2859,2.2859,2.2873,2.2913,2.3153,2.3434,2.3741,2.4022,2.4315,2.4556,2.4623,2.4636,2.4636,2.4636,2.4636,2.4636,2.4636,2.4636,2.4636,2.4636,2.4636,2.4636,2.4636,2.4636,2.4636,2.4636,2.4636,2.4636,2.4636,2.4636,2.4636,2.4636,2.4636,2.4636,2.4636,2.4636,2.4636,2.4636,2.4636,2.4636,2.4636,2.4636,2.4636,2.4636,2.4649,2.4636,2.4589,2.4663,2.4663,2.4649,2.4636,2.4663,2.4649,2.4663,2.4636,2.4589,2.4629,2.4716,2.4703,2.473,2.4983,2.5037,2.5144,2.5411,2.5358,2.5424,2.5371,2.5438,2.5478,2.5518,2.5571,2.5625,2.5611,2.5611,2.5678,2.5758,2.5665,2.5518,2.5571,2.5518,2.5678,2.5865,2.5996,2.5999,2.6132,2.6226,2.6293,2.6146,2.6239,2.6226,2.6239,2.6306,2.6266,2.6186,2.6213,2.6358,2.6529,2.6789,2.7917,2.2859,2.2859,2.2859,2.2859,2.2859,2.2859,2.2859,2.2859,2.2859,2.2859,2.2859,2.2859,2.2859,2.2859,2.2859,2.2859,2.2859,2.2859,2.2966,2.3126,2.3273,2.3567,2.4008,2.4142,2.4356,2.4536,2.4636,2.4636,2.4636,2.4636,2.4636,2.4636,2.4636,2.4636,2.4636,2.4636,2.4636,2.4636,2.4636,2.4636,2.4636,2.4636,2.4636,2.4636,2.4636,2.4636,2.4636,2.4636,2.4636,2.4636,2.4636,2.4636,2.4636,2.4636,2.4636,2.4636,2.4636,2.4636,2.4636,2.4796,2.4903,2.489,2.5064,2.5157,2.5157,2.5157,2.5157,2.513,2.4997,2.4957,2.5117,2.5157,2.5157,2.5157,2.5157,2.5197,2.5317,2.5331,2.5398,2.5504,2.5518,2.5518,2.5545,2.5665,2.5838,2.5972,2.6026,2.5999,2.6026,2.6026,2.6079,2.6159,2.6106,2.6039,2.6012,2.6039,2.6092,2.6172,2.6213,2.6293,2.636,2.64,2.6386,2.6413,2.644,2.644,2.636,2.64,2.64,2.6413,2.64,2.64,2.64,2.64,2.7024,2.3182,2.3113,2.3182,2.3113,2.3182,2.3182,2.3113,2.3182,2.3182,2.3113,2.31,2.3182,2.3182,2.31,2.3033,2.2979,2.3006,2.3142,2.3233,2.3447,2.3527,2.3794,2.4182,2.4289,2.4436,2.4609,2.4636,2.4636,2.4636,2.4636,2.4636,2.4636,2.4636,2.4636,2.4636,2.4636,2.4636,2.4562,2.4716,2.4756,2.477,2.4836,2.4796,2.4589,2.4636,2.4636,2.4636,2.4636,2.4636,2.4636,2.4636,2.4636,2.4636,2.4716,2.4796,2.4789,2.4877,2.4877,2.4877,2.5077,2.5197,2.5211,2.5398,2.5518,2.5518,2.5518,2.5558,2.5611,2.5438,2.5411,2.5464,2.5518,2.5518,2.5518,2.5518,2.5531,2.5625,2.5638,2.5678,2.5732,2.5812,2.5745,2.5785,2.5945,2.6146,2.6306,2.6373,2.64,2.64,2.6373,2.6373,2.64,2.644,2.6453,2.6413,2.6346,2.64,2.6507,2.6507,2.6533,2.6587,2.664,2.664,2.68,2.668,2.6653,2.6747,2.6694,2.6627,2.6627,2.6627,2.6627,2.6707,2.66,2.6533,2.3728,2.3714,2.3728,2.3772,2.3728,2.3701,2.3714,2.3674,2.3701,2.3714,2.3688,2.3688,2.3714,2.3674,2.3434,2.3313,2.334,2.3567,2.3701,2.3768,2.4008,2.4168,2.4222,2.4476,2.4623,2.4636,2.4636,2.4636,2.4636,2.4636,2.4636,2.4636,2.4576,2.4649,2.4663,2.469,2.4649,2.4716,2.4943,2.5064,2.509,2.5317,2.5184,2.4669,2.4576,2.4676,2.4663,2.4649,2.4649,2.4649,2.4676,2.4589,2.4602,2.4917,2.517,2.5398,2.5451,2.5451,2.5438,2.5464,2.5491,2.5491,2.5558,2.5545,2.5598,2.5598,2.5705,2.5905,2.5905,2.5812,2.5611,2.5625,2.5598,2.5585,2.5545,2.5678,2.5983,2.5932,2.6066,2.6239,2.6279,2.6253,2.6306,2.636,2.6346,2.6386,2.64,2.6413,2.644,2.6426,2.644,2.6507,2.6627,2.6707,2.648,2.6533,2.6613,2.6707,2.6827,2.6867,2.7081,2.7228,2.7201,2.7188,2.7108,2.7108,2.7188,2.7188,2.7134,2.7121,2.7094,2.7094,2.7001,2.6907,2.6841,2.3781,2.3781,2.3781,2.3781,2.3781,2.3781,2.3781,2.3781,2.3781,2.3781,2.3781,2.3781,2.3781,2.3768,2.3861,2.3794,2.3634,2.3728,2.3875,2.4035,2.4155,2.4302,2.4476,2.4596,2.4636,2.4636,2.4636,2.4636,2.4636,2.4636,2.4636,2.4676,2.4836,2.4917,2.4957,2.5104,2.5197,2.5211,2.5317,2.5358,2.5358,2.5464,2.5398,2.5224,2.5197,2.5197,2.5197,2.5197,2.5197,2.5197,2.5197,2.5197,2.5211,2.5291,2.5398,2.5491,2.5518,2.5518,2.5531,2.5692,2.5798,2.5812,2.5972,2.6052,2.6066,2.6079,2.6119,2.6199,2.6226,2.6172,2.6119,2.6079,2.6066,2.6066,2.6066,2.6092,2.6199,2.6239,2.6279,2.6373,2.64,2.64,2.64,2.64,2.64,2.64,2.64,2.648,2.6627,2.6667,2.672,2.6907,2.7028,2.7068,2.7001,2.6961,2.7001,2.7054,2.7121,2.7134,2.7268,2.7321,2.7308,2.7348,2.7444,2.7444,2.7388,2.7375,2.7375,2.743,2.743,2.747,2.7336,2.7188,2.7148,2.4048,2.4048,2.4048,2.4048,2.4048,2.4048,2.4048,2.4048,2.4048,2.4048,2.4048,2.4048,2.4048,2.4075,2.4262,2.4249,2.4062,2.4062,2.4155,2.4329,2.4342,2.4449,2.4536,2.4636,2.4636,2.4636,2.4636,2.4676,2.477,2.4783,2.4836,2.4943,2.513,2.5224,2.5264,2.5424,2.5518,2.5518,2.5611,2.5651,2.5665,2.5745,2.5798,2.5798,2.5798,2.5692,2.5531,2.5518,2.5518,2.5518,2.5518,2.5558,2.5638,2.5651,2.5705,2.5772,2.5798,2.5798,2.5812,2.5985,2.6092,2.6106,2.6266,2.64,2.64,2.64,2.64,2.64,2.64,2.64,2.64,2.6386,2.64,2.64,2.64,2.64,2.64,2.6386,2.6386,2.6386,2.64,2.64,2.6413,2.648,2.6533,2.6533,2.66,2.6774,2.6921,2.6974,2.7014,2.7228,2.7335,2.7388,2.7402,2.7442,2.7388,2.7428,2.7415,2.7415,2.7468,2.7495,2.7495,2.7604,2.7618,2.7631,2.7631,2.7535,2.7535,2.7522,2.7698,2.7805,2.7685,2.7495,2.7442,2.4536,2.4522,2.4623,2.4569,2.4556,2.4556,2.4609,2.4569,2.4583,2.4543,2.4516,2.4583,2.4529,2.4596,2.4569,2.4596,2.4556,2.4543,2.4482,2.4596,2.4596,2.4596,2.4636,2.4636,2.4663,2.469,2.4663,2.4823,2.5077,2.509,2.5211,2.5438,2.5491,2.5518,2.5504,2.5571,2.5571,2.5638,2.5838,2.6037,2.6063,2.6186,2.6306,2.6333,2.6319,2.6079,2.5585,2.5571,2.5598,2.5571,2.5571,2.5678,2.5919,2.5959,2.6079,2.6266,2.6346,2.636,2.6346,2.6346,2.6346,2.6346,2.6386,2.64,2.64,2.64,2.64,2.64,2.64,2.64,2.64,2.64,2.64,2.64,2.64,2.64,2.64,2.64,2.64,2.6413,2.644,2.6413,2.6466,2.6667,2.6814,2.6867,2.7014,2.7188,2.7255,2.7268,2.7268,2.7362,2.7549,2.7696,2.7802,2.7896,2.7829,2.7776,2.7736,2.7736,2.7856,2.798,2.7953,2.7966,2.7953,2.7966,2.7953,2.7953,2.8006,2.802,2.81,2.8073,2.798,2.7789,2.7736,2.4414,2.4267,2.4488,2.4636,2.4636,2.4636,2.4636,2.4636,2.4636,2.4636,2.4636,2.4636,2.4636,2.4636,2.4636,2.4636,2.4636,2.4636,2.4636,2.4649,2.4649,2.4649,2.4636,2.4636,2.4743,2.4957,2.5157,2.5277,2.5358,2.5384,2.5438,2.5531,2.5732,2.5812,2.5825,2.6012,2.6119,2.6132,2.6199,2.6253,2.6253,2.6346,2.6386,2.64,2.6386,2.6293,2.6132,2.6119,2.6119,2.6106,2.6119,2.6159,2.6239,2.6253,2.6293,2.6373,2.64,2.64,2.64,2.64,2.64,2.64,2.64,2.64,2.64,2.64,2.64,2.64,2.64,2.64,2.64,2.64,2.6426,2.64,2.64,2.6413,2.644,2.6426,2.6493,2.6653,2.668,2.6774,2.6934,2.7108,2.7121,2.7134,2.7241,2.7348,2.7509,2.7562,2.7669,2.7913,2.8033,2.7963,2.8003,2.807,2.8096,2.8016,2.7976,2.7923,2.8154,2.8234,2.8234,2.8301,2.8288,2.8301,2.8288,2.8261,2.8288,2.8248,2.8194,2.8194,2.8207,2.814,2.7949,2.4267,2.4031,2.4414,2.4636,2.4636,2.4636,2.4636,2.4636,2.4636,2.4636,2.4636,2.4636,2.4703,2.4783,2.4796,2.4863,2.4943,2.4957,2.4957,2.4943,2.4823,2.4796,2.4823,2.4917,2.505,2.5237,2.5424,2.5571,2.5678,2.5678,2.5732,2.5865,2.6026,2.6119,2.6132,2.6279,2.64,2.64,2.6386,2.6386,2.6386,2.64,2.644,2.6533,2.6547,2.6613,2.6694,2.672,2.6613,2.644,2.64,2.64,2.64,2.6386,2.64,2.64,2.64,2.64,2.64,2.64,2.64,2.64,2.64,2.64,2.6413,2.6466,2.6547,2.656,2.6667,2.672,2.6734,2.672,2.672,2.672,2.6627,2.6613,2.6667,2.672,2.6787,2.6947,2.6987,2.7081,2.7201,2.7388,2.7415,2.7428,2.7522,2.7629,2.7816,2.7856,2.8087,2.8181,2.8167,2.8181,2.8221,2.8301,2.831,2.8257,2.819,2.8123,2.8221,2.8234,2.8234,2.8404,2.847,2.8617,2.8631,2.8444,2.8377,2.8297,2.8341,2.8234,2.8221,2.8221,2.8154,2.4097,2.4084,2.4467,2.473,2.4655,2.4655,2.4756,2.4716,2.473,2.4743,2.4655,2.477,2.4877,2.5064,2.5104,2.5224,2.5451,2.5438,2.5424,2.5384,2.5264,2.5157,2.513,2.5358,2.5504,2.5545,2.5598,2.5745,2.5972,2.5985,2.6197,2.6293,2.6319,2.6373,2.636,2.6386,2.6413,2.6453,2.644,2.6453,2.6493,2.648,2.6587,2.6827,2.6854,2.6947,2.7134,2.7161,2.6961,2.6533,2.652,2.6533,2.6466,2.644,2.6507,2.652,2.6453,2.6493,2.6466,2.6533,2.652,2.6533,2.6533,2.644,2.6547,2.6734,2.6854,2.6867,2.7054,2.7215,2.7201,2.7188,2.7201,2.7241,2.7014,2.6974,2.7283,2.7215,2.7215,2.7255,2.7295,2.7308,2.7388,2.7602,2.7696,2.7762,2.7923,2.8016,2.8154,2.8154,2.8221,2.8288,2.8257,2.835,2.843,2.8524,2.8617,2.8591,2.8524,2.8457,2.8364,2.8364,2.8364,2.8604,2.8778,2.8938,2.8938,2.8724,2.8631,2.8617,2.8484,2.8341,2.8301,2.831,2.827,2.467,2.467,2.5126,2.5277,2.5277,2.5277,2.5277,2.5277,2.5277,2.5237,2.5277,2.5277,2.5304,2.5398,2.5398,2.5451,2.5531,2.5545,2.5518,2.5545,2.5692,2.5585,2.5491,2.5692,2.5838,2.5865,2.6012,2.6199,2.6266,2.6253,2.6306,2.6386,2.64,2.64,2.64,2.6413,2.652,2.668,2.6707,2.6827,2.6987,2.7014,2.7068,2.7134,2.7148,2.7188,2.735,2.735,2.7215,2.7068,2.7041,2.7028,2.7001,2.7001,2.6974,2.6987,2.7001,2.7028,2.7014,2.7001,2.7014,2.7041,2.6974,2.7041,2.7041,2.7094,2.7148,2.7161,2.7241,2.7363,2.7363,2.7377,2.7375,2.7509,2.7348,2.7215,2.7281,2.735,2.7335,2.7535,2.7589,2.7682,2.7829,2.8006,2.8087,2.8016,2.8181,2.8261,2.8288,2.8341,2.831,2.8444,2.8537,2.8644,2.8751,2.8858,2.8925,2.8925,2.8898,2.8885,2.8831,2.8818,2.8845,2.8938,2.9045,2.9192,2.9098,2.8951,2.8925,2.8925,2.8818,2.8657,2.8671,2.8711,2.8564,2.4662,2.4662,2.5288,2.5518,2.5518,2.5518,2.5518,2.5518,2.5518,2.5518,2.5518,2.5518,2.5585,2.5692,2.5705,2.5772,2.5865,2.5879,2.5892,2.5905,2.6052,2.6026,2.5959,2.6079,2.6132,2.6146,2.6306,2.6373,2.6386,2.64,2.64,2.64,2.64,2.6453,2.6587,2.6587,2.672,2.6961,2.7014,2.7108,2.7255,2.735,2.7348,2.7402,2.7455,2.7482,2.7685,2.7725,2.7535,2.7335,2.7336,2.735,2.735,2.735,2.735,2.735,2.735,2.7336,2.735,2.735,2.735,2.735,2.735,2.735,2.7363,2.7362,2.7442,2.7455,2.7549,2.7712,2.7725,2.7725,2.7722,2.7829,2.7736,2.7629,2.7629,2.7738,2.7792,2.7829,2.7896,2.7936,2.8207,2.8221,2.8234,2.8248,2.827,2.8323,2.8377,2.843,2.8537,2.8698,2.8791,2.8885,2.9005,2.9125,2.9219,2.9219,2.9299,2.9285,2.9179,2.9179,2.9219,2.9245,2.9339,2.9379,2.9339,2.9285,2.9232,2.9205,2.9138,2.9058,2.9005,2.8991,2.8858,2.4367,2.4444,2.5137,2.5445,2.5484,2.5535,2.5511,2.5471,2.5588,2.5575,2.5575,2.5548,2.5812,2.6077,2.6012,2.6132,2.636,2.6293,2.6333,2.6319,2.6346,2.6319,2.6306,2.6306,2.6333,2.6346,2.6386,2.64,2.64,2.64,2.6426,2.6466,2.6466,2.6613,2.6814,2.6867,2.7028,2.7255,2.7308,2.7362,2.7442,2.7551,2.7562,2.7722,2.7749,2.7843,2.81,2.8154,2.7966,2.747,2.7362,2.7497,2.7484,2.7457,2.747,2.7497,2.7537,2.7511,2.747,2.7442,2.7484,2.7428,2.7497,2.7444,2.7551,2.7629,2.7749,2.7749,2.7989,2.8127,2.814,2.8181,2.8167,2.8167,2.8181,2.8207,2.8234,2.8234,2.8234,2.8234,2.8221,2.8221,2.8234,2.8248,2.8288,2.8337,2.847,2.8617,2.8671,2.8738,2.8871,2.9045,2.9098,2.9112,2.9245,2.9379,2.9472,2.9539,2.9659,2.9659,2.9446,2.9419,2.9499,2.9553,2.9606,2.9673,2.974,2.9673,2.9553,2.9499,2.9446,2.9299,2.9165,2.9165,2.9085,2.4635,2.4939,2.511,2.5189,2.5268,2.557,2.5478,2.5242,2.5872,2.5911,2.5872,2.6029,2.6213,2.6279,2.6279,2.6346,2.6386,2.64,2.64,2.64,2.64,2.64,2.64,2.64,2.64,2.64,2.64,2.64,2.64,2.644,2.652,2.6707,2.6747,2.6881,2.7134,2.7175,2.7321,2.7562,2.7602,2.7722,2.7953,2.798,2.802,2.803,2.8114,2.814,2.8207,2.8234,2.8167,2.8073,2.8006,2.7966,2.7966,2.798,2.798,2.7966,2.7993,2.8006,2.802,2.7993,2.7949,2.798,2.7966,2.8047,2.8033,2.806,2.803,2.814,2.8194,2.8221,2.8234,2.8234,2.8234,2.8234,2.8234,2.8234,2.8234,2.8234,2.8234,2.8234,2.8248,2.8234,2.8261,2.8404,2.8484,2.8537,2.8711,2.8911,2.8991,2.9045,2.9205,2.9379,2.9392,2.9406,2.9513,2.9619,2.9659,2.9713,2.9833,2.99,2.9686,2.9633,2.97,2.9766,2.9847,2.9913,2.9913,2.99,2.9753,2.9753,2.9726,2.9633,2.9526,2.9459,2.9379,2.4652,2.4811,2.497,2.505,2.513,2.5368,2.5368,2.5209,2.5607,2.5832,2.5832,2.607,2.6228,2.64,2.64,2.6386,2.64,2.64,2.64,2.64,2.64,2.64,2.64,2.64,2.64,2.64,2.64,2.6453,2.656,2.6613,2.6747,2.7001,2.7028,2.7188,2.7428,2.7468,2.7629,2.7843,2.7909,2.7989,2.8207,2.8234,2.8234,2.8234,2.8234,2.8234,2.8234,2.8234,2.8234,2.8234,2.8234,2.8234,2.8234,2.8234,2.8234,2.8234,2.8234,2.8234,2.8221,2.8234,2.8207,2.8234,2.8234,2.8234,2.8234,2.8234,2.8234,2.8234,2.8221,2.8234,2.8234,2.8234,2.8234,2.8234,2.8234,2.8234,2.8234,2.8234,2.8234,2.8261,2.8368,2.835,2.8457,2.8644,2.8764,2.8831,2.9058,2.9259,2.9325,2.9392,2.9539,2.9659,2.9673,2.9726,2.9806,2.986,2.9833,2.9847,2.9873,2.9913,2.9833,2.9833,2.9887,2.9913,2.9913,2.9913,2.9913,2.9913,2.9913,2.986,2.9847,2.9887,2.986,2.9713,2.9659,2.4412,2.4412,2.4811,2.4891,2.4891,2.497,2.497,2.4891,2.505,2.5368,2.5673,2.5753,2.607,2.6307,2.64,2.64,2.6413,2.648,2.6507,2.6507,2.66,2.6613,2.6613,2.6613,2.6613,2.652,2.6507,2.6627,2.6827,2.6907,2.7041,2.7281,2.7335,2.7482,2.7696,2.7776,2.7869,2.8154,2.8181,2.8194,2.8221,2.8234,2.8234,2.8234,2.8234,2.8234,2.8234,2.8234,2.8234,2.8234,2.8274,2.8288,2.8288,2.8234,2.8234,2.8234,2.8234,2.8234,2.8234,2.8234,2.8234,2.8234,2.8234,2.8234,2.8234,2.8234,2.8234,2.8234,2.8234,2.8234,2.8234,2.8234,2.8234,2.8248,2.8261,2.8301,2.8315,2.823,2.8323,2.8368,2.8497,2.8657,2.8764,2.8925,2.9018,2.9152,2.9379,2.9553,2.9619,2.9686,2.9766,2.982,2.9806,2.9806,2.9887,2.9913,2.9913,2.9913,2.9913,2.9913,2.9913,2.9913,2.9913,2.9913,2.9913,2.9913,2.9913,2.9913,2.9913,2.9913,2.9913,2.9913,2.9913,2.9913,2.9887,2.3932,2.392,2.4012,2.4012,2.408,2.4412,2.4412,2.416,2.4811,2.513,2.5302,2.5607,2.6017,2.6347,2.64,2.64,2.652,2.6653,2.676,2.68,2.6934,2.7041,2.7028,2.7001,2.7054,2.7041,2.6921,2.6947,2.7121,2.7215,2.7362,2.7562,2.7629,2.7776,2.7963,2.814,2.8056,2.8207,2.8234,2.8234,2.8234,2.8234,2.8234,2.8234,2.8261,2.8274,2.8261,2.8248,2.8234,2.8248,2.839,2.8497,2.8484,2.831,2.8315,2.8301,2.8315,2.8341,2.8328,2.8274,2.8248,2.8234,2.8288,2.8274,2.8261,2.8274,2.8257,2.8315,2.8301,2.8261,2.8234,2.8315,2.8261,2.8301,2.8377,2.8524,2.8564,2.8684,2.8751,2.8644,2.8818,2.8978,2.9072,2.9192,2.9339,2.9446,2.9606,2.9726,2.978,2.982,2.986,2.9887,2.99,2.99,2.9913,2.9913,2.9913,2.9913,2.9913,2.9913,2.9913,2.9913,2.9913,2.9913,2.9913,2.9913,2.9913,2.9913,2.9913,2.9913,2.9913,2.9913,2.9913,2.9913,2.9913,2.384,2.384,2.384,2.384,2.384,2.4012,2.4012,2.384,2.4252,2.4819,2.532,2.56,2.6146,2.6733,2.6841,2.6841,2.6881,2.6961,2.7054,2.7094,2.7201,2.735,2.7363,2.7363,2.7375,2.7402,2.7348,2.7321,2.7482,2.7495,2.7655,2.7869,2.7923,2.8003,2.8194,2.8207,2.8234,2.8234,2.8234,2.8234,2.8234,2.8234,2.8234,2.8261,2.831,2.8377,2.8417,2.8551,2.8604,2.8644,2.8751,2.8818,2.8791,2.8724,2.8604,2.8604,2.8591,2.8591,2.8604,2.8604,2.8631,2.8617,2.8591,2.8604,2.8604,2.8631,2.8577,2.8591,2.8604,2.8604,2.8631,2.8591,2.8604,2.8631,2.8751,2.8804,2.8885,2.9112,2.9112,2.9045,2.9179,2.9285,2.9325,2.9459,2.9646,2.9766,2.9847,2.9887,2.9913,2.9913,2.9913,2.9913,2.9913,2.9913,2.9913,2.9913,2.9913,2.9913,2.9913,2.9913,2.9913,2.9913,2.9913,2.9913,2.9913,2.9913,2.9913,2.9913,2.9913,2.9913,2.9913,2.9913,2.9913,2.9913,2.9913,2.384,2.384,2.382,2.3844,2.3844,2.3904,2.4021,2.3916,2.4021,2.4628,2.5451,2.5732,2.6242,2.6957,2.7241,2.7323,2.735,2.7295,2.7348,2.7375,2.7537,2.7551,2.7455,2.7468,2.7589,2.7762,2.7762,2.7789,2.7789,2.7789,2.7923,2.8043,2.8221,2.8234,2.8234,2.8234,2.8234,2.8234,2.8234,2.8234,2.8301,2.8328,2.8368,2.8323,2.8564,2.8684,2.8711,2.8858,2.8951,2.8991,2.9072,2.9138,2.9138,2.9192,2.9219,2.9205,2.9112,2.9045,2.8931,2.8918,2.8938,2.8938,2.8918,2.8931,2.8918,2.8938,2.8991,2.8958,2.8931,2.8978,2.8938,2.8918,2.9005,2.9018,2.9045,2.9138,2.9205,2.9352,2.9526,2.9526,2.9566,2.9566,2.9579,2.9633,2.9793,2.9806,2.9887,2.9887,2.9913,2.9913,2.9913,2.9913,2.9913,2.9913,2.9913,2.9913,2.9913,2.9913,2.9913,2.9913,2.9913,2.9913,2.9913,2.9913,2.9913,2.9913,2.9913,2.9913,2.9913,2.9913,2.9913,2.9913,2.9913,2.9913,2.9913,2.384,2.3784,2.4094,2.419,2.4226,2.442,2.4516,2.4504,2.4492,2.4799,2.5507,2.5836,2.6272,2.683,2.7158,2.7295,2.7362,2.7535,2.7655,2.7669,2.7926,2.802,2.8087,2.8127,2.8047,2.803,2.8127,2.8181,2.8043,2.8043,2.8167,2.8221,2.8234,2.8234,2.8234,2.8234,2.8234,2.8234,2.8234,2.8283,2.8511,2.8551,2.8671,2.8831,2.8951,2.8991,2.9005,2.9098,2.9125,2.9138,2.9325,2.9419,2.9472,2.9686,2.978,2.9659,2.9392,2.8958,2.9011,2.9051,2.9152,2.9165,2.9125,2.8971,2.9138,2.9051,2.9051,2.8958,2.8985,2.9038,2.9064,2.8998,2.8971,2.9165,2.9325,2.9406,2.9472,2.9553,2.974,2.978,2.974,2.978,2.982,2.986,2.99,2.9913,2.9913,2.9913,2.9913,2.9913,2.9913,2.9913,2.9913,2.9913,2.9913,2.9913,2.9913,2.9913,2.9913,2.9913,2.9913,2.9913,2.9913,2.9913,2.9913,2.9913,2.9913,2.9913,2.9913,2.9913,2.9913,2.9913,2.9913,2.9913,2.9913,2.3295,2.4299,2.4407,2.4456,2.4468,2.4589,2.4625,2.4625,2.4625,2.5124,2.5841,2.6115,2.669,2.7293,2.7513,2.7609,2.7789,2.7883,2.7949,2.7936,2.8154,2.8234,2.8207,2.8221,2.8221,2.8234,2.8234,2.8207,2.8234,2.8234,2.8234,2.8234,2.8234,2.8234,2.8234,2.8234,2.8234,2.8274,2.8323,2.8551,2.8764,2.8858,2.8925,2.9045,2.9205,2.9272,2.9325,2.9472,2.9526,2.9553,2.9686,2.9726,2.974,2.9833,2.99,2.9887,2.97,2.9553,2.9553,2.9513,2.9499,2.9513,2.9513,2.9566,2.9539,2.9513,2.9513,2.9539,2.9539,2.9526,2.9513,2.9539,2.9539,2.9579,2.9593,2.9646,2.9713,2.9793,2.9887,2.99,2.9913,2.9913,2.9913,2.9913,2.9913,2.9913,2.9913,2.9913,2.9913,2.9913,2.9913,2.9913,2.9913,2.9913,2.9913,2.9913,2.9913,2.9913,2.9913,2.9913,2.9913,2.9913,2.9913,2.9913,2.9913,2.9913,2.9913,2.9913,2.9913,2.9913,2.9913,2.9913,2.9913,2.9913,2.9913,2.3134,2.4735,2.4758,2.4733,2.4733,2.4794,2.4842,2.483,2.4842,2.5285,2.6008,2.6226,2.6845,2.7675,2.7604,2.7662,2.7954,2.8136,2.8221,2.8234,2.8234,2.8234,2.8234,2.8234,2.8234,2.8234,2.8234,2.8234,2.8234,2.8234,2.8234,2.8234,2.8234,2.8234,2.8234,2.8234,2.8261,2.8323,2.8577,2.8858,2.9098,2.9152,2.9205,2.9312,2.9459,2.9593,2.9633,2.9753,2.9873,2.9873,2.9873,2.9873,2.9887,2.99,2.9913,2.9913,2.9833,2.9833,2.9833,2.9833,2.9913,2.9913,2.9913,2.9833,2.986,2.9913,2.99,2.9847,2.9847,2.986,2.99,2.9887,2.9833,2.982,2.986,2.99,2.9913,2.9913,2.9913,2.9913,2.9913,2.9913,2.9913,2.9913,2.9913,2.9913,2.9913,2.9913,2.9913,2.9913,2.9913,2.9913,2.9913,2.9913,2.9913,2.9913,2.9913,2.9913,2.9913,2.9913,2.9913,2.9913,2.9913,2.9913,2.9913,2.9913,2.9913,2.9913,2.9913,2.9913,2.9913,2.9913,2.9913,2.9913,2.9913,2.3727,2.5361,2.5035,2.4939,2.5035,2.5277,2.5361,2.5313,2.5349,2.5337,2.5701,2.5981,2.6478,2.6953,2.7304,2.7487,2.7571,2.7968,2.8136,2.8234,2.8234,2.8234,2.8234,2.8234,2.8234,2.8234,2.8234,2.8234,2.8248,2.8288,2.8261,2.8234,2.8248,2.8234,2.8288,2.8283,2.843,2.8617,2.8898,2.9152,2.9366,2.9472,2.9553,2.9753,2.9847,2.9887,2.9887,2.99,2.9913,2.9913,2.9913,2.9913,2.9913,2.9913,2.9913,2.9913,2.9913,2.9913,2.9913,2.9913,2.9913,2.9913,2.9913,2.9913,2.9913,2.9913,2.9913,2.9913,2.9913,2.9913,2.9913,2.9913,2.9913,2.9913,2.9913,2.9913,2.9913,2.9913,2.9913,2.9913,2.9913,2.9913,2.9913,2.9913,2.9913,2.9913,2.9913,2.9913,2.9913,2.9913,2.9913,2.9913,2.9913,2.9913,2.9913,2.9913,2.9913,2.9913,2.9913,2.9913,2.9913,2.9913,2.9913,2.9913,2.9913,2.9913,2.9913,2.9913,2.9913,2.9913,2.9913,2.9913,2.9913,2.9913,2.9913,2.3697,2.5336,2.5325,2.5204,2.5216,2.5397,2.5348,2.5348,2.5446,2.5604,2.5848,2.6006,2.6358,2.6711,2.6965,2.722,2.7558,2.7981,2.8163,2.8234,2.8234,2.8234,2.8234,2.8261,2.8234,2.8248,2.8248,2.8234,2.8234,2.8337,2.8417,2.839,2.8283,2.831,2.8377,2.8591,2.8831,2.9058,2.9245,2.9459,2.9686,2.9753,2.9806,2.9887,2.9913,2.9913,2.9913,2.9913,2.9913,2.9913,2.9913,2.9913,2.9913,2.9913,2.9913,2.9913,2.9913,2.9913,2.9913,2.9913,2.9913,2.9913,2.9913,2.9913,2.9913,2.9913,2.9913,2.9913,2.9913,2.9913,2.9913,2.9913,2.9913,2.9913,2.9913,2.9913,2.9913,2.9913,2.9913,2.9913,2.9913,2.9913,2.9913,2.9913,2.9913,2.9913,2.9913,2.9913,2.9913,2.9913,2.9913,2.9913,2.9913,2.9913,2.9913,2.9913,2.9913,2.9913,2.9913,2.9913,2.9913,2.9913,2.9913,2.9913,2.9913,2.9913,2.9913,2.9913,2.9913,2.9913,2.9913,2.9913,2.9913,2.9913,2.9913,2.4212,2.5348,2.5348,2.5348,2.5348,2.5348,2.5348,2.5348,2.5348,2.5604,2.5933,2.5933,2.6018,2.6383,2.6812,2.7093,2.7571,2.805,2.8332,2.8444,2.8457,2.8404,2.8404,2.843,2.8497,2.8404,2.8404,2.8444,2.8484,2.8644,2.8711,2.8671,2.8551,2.8617,2.8738,2.9018,2.9285,2.9432,2.9606,2.9686,2.99,2.99,2.99,2.9913,2.9913,2.9913,2.9913,2.9913,2.9913,2.9913,2.9913,2.9913,2.9913,2.9913,2.9913,2.9913,2.9913,2.9913,2.9913,2.9913,2.9913,2.9913,2.9913,2.9913,2.9913,2.9913,2.9913,2.9913,2.9913,2.9913,2.9913,2.9913,2.9913,2.9913,2.9913,2.9913,2.9913,2.9913,2.9913,2.9913,2.9913,2.9913,2.9913,2.9913,2.9913,2.9913,2.9913,2.9913,2.9913,2.9913,2.9913,2.9913,2.9913,2.9913,2.9913,2.9913,2.9913,2.9913,2.9913,2.9913,2.9913,2.9913,2.9913,2.9913,2.9913,2.9913,2.9913,2.9913,2.9913,2.9913,2.9913,2.9913,2.9913,2.9913,2.9913,2.5348,2.5348,2.5348,2.5348,2.5348,2.5348,2.5348,2.5348,2.5348,2.5458,2.5567,2.5555,2.5579,2.5885,2.6782,2.719,2.75,2.8386,2.8911,2.8885,2.8845,2.8938,2.8938,2.8898,2.8831,2.8978,2.8911,2.8858,2.8938,2.9005,2.9018,2.9058,2.9018,2.9018,2.9072,2.9325,2.9472,2.9526,2.9766,2.986,2.99,2.9913,2.9913,2.9913,2.9913,2.9913,2.9913,2.9913,2.9913,2.9913,2.9913,2.9913,2.9913,2.9913,2.9913,2.9913,2.9913,2.9913,2.9913,2.9913,2.9913,2.9913,2.9913,2.9913,2.9913,2.9913,2.9913,2.9913,2.9913,2.9913,2.9913,2.9913,2.9913,2.9913,2.9913,2.9913,2.9913,2.9913,2.9913,2.9913,2.9913,2.9913,2.9913,2.9913,2.9913,2.9913,2.9913,2.9913,2.9913,2.9913,2.9913,2.9913,2.9913,2.9913,2.9913,2.9913,2.9913,2.9913,2.9913,2.9913,2.9913,2.9913,2.9913,2.9913,2.9913,2.9913,2.9913,2.9913,2.9913,2.9913,2.9913,2.9913,2.9913,2.9913,2.9913,2.5348,2.5348,2.5348,2.5348,2.5348,2.5348,2.536,2.5348,2.536,2.5542,2.5675,2.5699,2.5808,2.6202,2.6885,2.7482,2.7682,2.8404,2.8958,2.9058,2.9085,2.8945,2.8971,2.9112,2.8998,2.9045,2.9045,2.8998,2.9018,2.9219,2.9325,2.9352,2.9459,2.9499,2.9472,2.9606,2.9766,2.978,2.9873,2.9913,2.9913,2.9913,2.9913,2.9913,2.9913,2.9913,2.9913,2.9913,2.9913,2.9913,2.9913,2.9913,2.9913,2.9913,2.9913,2.9913,2.9913,2.9913,2.9913,2.9913,2.9913,2.9913,2.9913,2.9913,2.9913,2.9913,2.9913,2.9913,2.9913,2.9913,2.9913,2.9913,2.9913,2.9913,2.9913,2.9913,2.9913,2.9913,2.9913,2.9913,2.9913,2.9913,2.9913,2.9913,2.9913,2.9913,2.9913,2.9913,2.9913,2.9913,2.9913,2.9913,2.9913,2.9913,2.9913,2.9913,2.9913,2.9913,2.9913,2.9913,2.9913,2.9913,2.9913,2.9913,2.9913,2.9913,2.9913,2.9913,2.9913,2.9913,2.9913,2.9913,2.9913,2.9913,2.9913,2.5006,2.4481,2.4481,2.4527,2.4671,2.5127,2.5482,2.5578,2.5663,2.5808,2.594,2.5965,2.6037,2.6458,2.7197,2.7762,2.7863,2.8872,2.9352,2.9339,2.9352,2.9392,2.9379,2.9325,2.9419,2.9339,2.9339,2.9366,2.9406,2.9553,2.9619,2.9686,2.982,2.9753,2.9726,2.9806,2.9887,2.9887,2.9913,2.9913,2.9913,2.9913,2.9913,2.9913,2.9913,2.9913,2.9913,2.9913,2.9913,2.9913,2.9913,2.9913,2.9913,2.9913,2.9913,2.9913,2.9913,2.9913,2.9913,2.9913,2.9913,2.9913,2.9913,2.9913,2.9913,2.9913,2.9913,2.9913,2.9913,2.9913,2.9913,2.9913,2.9913,2.9913,2.9913,2.9913,2.9913,2.9913,2.9913,2.9913,2.9913,2.9913,2.9913,2.9913,2.9913,2.9913,2.9913,2.9913,2.9913,2.9913,2.9913,2.9913,2.9913,2.9913,2.9913,2.9913,2.9913,2.9913,2.9913,2.9913,2.9913,2.9913,2.9913,2.9913,2.9913,2.9913,2.9913,2.9913,2.9913,2.9913,2.9913,2.9913,2.9913,2.9913,2.9913,2.4224,2.2751,2.2578,2.2805,2.3304,2.4851,2.5663,2.5856,2.6085,2.6206,2.623,2.623,2.6291,2.6503,2.7522,2.7979,2.8182,2.9191,2.9512,2.973,2.9575,2.9704,2.9806,2.9806,2.9753,2.982,2.982,2.9713,2.9873,2.9833,2.9847,2.9873,2.9887,2.9873,2.9873,2.9887,2.9913,2.9913,2.9913,2.9913,2.9913,2.9913,2.9913,2.9913,2.9913,2.9913,2.9913,2.9913,2.9913,2.9913,2.9913,2.9913,2.9913,2.9913,2.9913,2.9913,2.9913,2.9913,2.9913,2.9913,2.9913,2.9913,2.9913,2.9913,2.9913,2.9913,2.9913,2.9913,2.9913,2.9913,2.9913,2.9913,2.9913,2.9913,2.9913,2.9913,2.9913,2.9913,2.9913,2.9913,2.9913,2.9913,2.9913,2.9913,2.9913,2.9913,2.9913,2.9913,2.9913,2.9913,2.9913,2.9913,2.9913,2.9913,2.9913,2.9927,2.9913,2.9913,2.9927,2.9927,2.9913,2.998,3.0034,3.0047,2.9953,2.9913,2.9913,2.9913,2.9913,2.9913,2.9913,2.9913,2.9913,2.9913,2.9913,2.2394,2.0871,2.0871,2.1791,2.3434,2.5436,2.623,2.6134,2.6194,2.6315,2.652,2.652,2.6592,2.6887,2.7501,2.7795,2.8103,2.8514,2.8989,2.9285,2.9465,2.9644,2.9824,2.9913,2.9913,2.9913,2.9913,2.9913,2.99,2.9913,2.9913,2.9913,2.9913,2.9913,2.9913,2.9913,2.9913,2.9913,2.9913,2.9913,2.9913,2.9913,2.9913,2.9913,2.9913,2.9913,2.9913,2.9913,2.9913,2.9913,2.9913,2.9913,2.9913,2.9913,2.9913,2.9913,2.9913,2.9913,2.9913,2.9913,2.9913,2.9913,2.9913,2.9913,2.9913,2.9913,2.9913,2.9913,2.9913,2.9913,2.9913,2.9913,2.9913,2.9913,2.9913,2.9913,2.9913,2.9913,2.9913,2.9913,2.9913,2.9913,2.9913,2.9913,2.9913,2.9913,2.9913,2.9913,2.9913,2.9913,2.9913,2.9913,2.9993,3.0007,2.9967,2.9967,2.994,2.9913,2.9993,3.01,3.0194,3.0247,3.0234,3.0207,3.0167,3.0034,2.9913,2.9967,3.01,2.9953,2.9927,2.9913,2.9913,2.9913,2.9913,2.2214,2.1431,2.1353,2.2282,2.3694,2.5846,2.6689,2.6556,2.6532,2.6653,2.6785,2.6785,2.6882,2.6979,2.7443,2.7715,2.7817,2.8281,2.8835,2.9182,2.9182,2.9554,2.9734,2.9913,2.9913,2.9913,2.9913,2.9913,2.9913,2.9913,2.9913,2.9913,2.9913,2.9913,2.9913,2.9913,2.9913,2.9913,2.9913,2.9913,2.9913,2.9913,2.9913,2.9913,2.9913,2.9913,2.9913,2.9913,2.9913,2.9913,2.9913,2.9913,2.9913,2.9913,2.9913,2.9913,2.9913,2.9913,2.9913,2.9913,2.9913,2.9913,2.9913,2.9913,2.9913,2.9913,2.9913,2.9913,2.9913,2.9913,2.9913,2.9913,2.9913,2.9913,2.9913,2.9913,2.9913,2.9913,2.9913,2.9913,2.9913,2.9913,2.9913,2.9913,2.9913,2.9913,2.9913,2.9913,2.9913,2.9913,2.9913,2.9913,3.0047,3.014,3.01,3.014,3.0234,3.0287,3.0368,3.0461,3.0515,3.0528,3.0528,3.0474,3.0408,3.0314,3.0234,3.0274,3.0341,3.0194,3.006,3.006,3.002,2.9913,2.9913,2.2896,2.3108,2.3386,2.3537,2.4102,2.608,2.7003,2.7027,2.6979,2.7015,2.7015,2.7015,2.7003,2.7118,2.7377,2.7558,2.7649,2.7933,2.8474,2.9092,2.9002,2.9285,2.9734,2.9913,2.9913,2.9913,2.9913,2.9913,2.9913,2.9913,2.9913,2.9913,2.9913,2.9913,2.9913,2.9913,2.9913,2.9913,2.9913,2.9913,2.9913,2.9913,2.9913,2.9913,2.9913,2.9913,2.9913,2.9913,2.9913,2.9913,2.9913,2.9913,2.9913,2.9913,2.9913,2.9913,2.9913,2.9913,2.9913,2.9913,2.9913,2.9913,2.9913,2.9913,2.9913,2.9913,2.9913,2.9913,2.9913,2.9913,2.9913,2.9913,2.9913,2.9913,2.9913,2.9913,2.9913,2.9913,2.9913,2.9913,2.9913,2.9913,2.9913,2.9913,2.9913,2.9913,2.9993,3.0007,3.0047,3.0047,3.0047,3.006,3.0221,3.0394,3.0421,3.0488,3.0635,3.0715,3.0728,3.0768,3.0808,3.0822,3.0835,3.0755,3.0688,3.0688,3.0662,3.0635,3.0555,3.0461,3.0341,3.0261,3.0154,3.006,2.994,2.1253,2.1649,2.3273,2.4015,2.4343,2.6162,2.7027,2.7027,2.7027,2.7027,2.7027,2.7027,2.7027,2.7027,2.7118,2.7208,2.7299,2.748,2.7933,2.8474,2.8745,2.9195,2.9734,2.9913,2.9913,2.9913,2.9913,2.9913,2.9913,2.9913,2.9913,2.9913,2.9913,2.9913,2.9913,2.9913,2.9913,2.9913,2.9913,2.9913,2.9913,2.9913,2.9913,2.9913,2.9913,2.9913,2.9913,2.9913,2.9913,2.9913,2.9913,2.9913,2.9913,2.9913,2.9913,2.9913,2.9913,2.9913,2.9913,2.9913,2.9913,2.9913,2.9913,2.9913,2.9913,2.9913,2.9913,2.9913,2.9913,2.9913,2.9913,2.9913,2.9913,2.9913,2.9913,2.9913,2.9913,2.9913,2.9913,2.9913,2.9913,2.9913,2.9913,2.9927,2.9913,3.002,3.0194,3.0287,3.0368,3.0408,3.0421,3.0448,3.0555,3.0675,3.0715,3.0822,3.0955,3.0942,3.0902,3.0982,3.1089,3.1116,3.1116,3.1036,3.0982,3.0996,3.0942,3.0795,3.0728,3.0702,3.0662,3.0581,3.0488,3.0394,3.0167,2.2653,2.3689,2.4831,2.5354,2.5639,2.6561,2.7027,2.7027,2.7027,2.7027,2.7027,2.7027,2.7027,2.7027,2.7027,2.7027,2.7027,2.7027,2.7752,2.8294,2.8565,2.9105,2.9554,2.9913,2.9913,2.9913,2.9913,2.9913,2.9913,2.9913,2.9913,2.9913,2.9913,2.9913,2.9913,2.9913,2.9913,2.9913,2.9913,2.9913,2.9913,2.9913,2.9913,2.9913,2.9913,2.9913,2.9913,2.9913,2.9913,2.9913,2.9913,2.9913,2.9913,2.9913,2.9913,2.9913,2.9913,2.9913,2.9913,2.9913,2.9913,2.9913,2.9913,2.9913,2.9913,2.9913,2.9913,2.9913,2.9913,2.9913,2.9913,2.9913,2.9913,2.9913,2.9913,2.9913,2.9913,2.9913,2.9913,2.9913,2.9913,2.9913,2.9967,3.0127,3.0127,3.0221,3.0381,3.0541,3.0635,3.0782,3.0795,3.0822,3.0915,3.0969,3.0996,3.1116,3.1276,3.1223,3.1116,3.1263,3.1396,3.141,3.141,3.133,3.1276,3.1303,3.1223,3.1102,3.1022,3.1009,3.0969,3.0929,3.0822,3.0715,3.0528,2.4958,2.6924,2.6936,2.6936,2.7027,2.7027,2.7027,2.7027,2.7027,2.7027,2.7027,2.7027,2.7027,2.7027,2.7027,2.7027,2.7027,2.7027,2.7661,2.8294,2.8474,2.9105,2.9554,2.9913,2.9913,2.9913,2.9913,2.9913,2.9913,2.9913,2.9913,2.9913,2.9913,2.9913,2.9913,2.9913,2.9913,2.9913,2.9913,2.9913,2.9913,2.9913,2.9913,2.9913,2.9913,2.9913,2.9913,2.9913,2.9913,2.9913,2.9913,2.9913,2.9913,2.9913,2.9913,2.9913,2.9913,2.9913,2.9913,2.9913,2.9913,2.9913,2.9913,2.9913,2.9913,2.9927,2.9927,2.994,2.994,2.9927,2.9927,2.9913,2.9913,2.9913,2.9913,2.9913,2.9913,2.9927,2.9927,2.9927,2.9967,2.9967,3.01,3.0261,3.0394,3.0474,3.0595,3.0742,3.0902,3.1089,3.1196,3.1209,3.1249,3.1276,3.1289,3.1356,3.149,3.1503,3.1436,3.157,3.165,3.1597,3.157,3.161,3.1583,3.1517,3.1543,3.149,3.141,3.1289,3.1289,3.1236,3.1129,3.1022,3.0902,2.5218,2.7027,2.7027,2.7027,2.7027,2.7027,2.7027,2.7027,2.7027,2.7027,2.7027,2.7027,2.7027,2.7027,2.7027,2.7027,2.7027,2.7027,2.7661,2.8384,2.8474,2.9105,2.9554,2.9734,2.9913,2.9913,2.9913,2.9913,2.9913,2.9913,2.9913,2.9913,2.9913,2.9913,2.9913,2.9913,2.9913,2.9913,2.9913,2.9913,2.9913,2.9913,2.9913,2.9913,2.9913,2.9913,2.9913,2.9913,2.9913,2.9913,2.9913,2.9913,2.9913,2.9913,2.9913,2.9913,2.9913,2.9913,2.9913,2.9913,2.9913,2.9913,2.9913,2.994,2.9953,2.998,2.9993,3.002,3.002,2.9967,2.9953,2.9927,2.9913,2.9913,2.9913,2.9913,2.9913,2.9953,2.998,3.006,3.0167,3.0221,3.0314,3.0488,3.0688,3.0795,3.0969,3.1102,3.1169,3.137,3.1557,3.1543,3.153,3.1583,3.1583,3.153,3.161,3.165,3.1677,3.1677,3.1677,3.1677,3.1677,3.1677,3.1677,3.1623,3.1664,3.1677,3.1637,3.1517,3.157,3.1543,3.1423,3.1316,3.1196]}]]